<?xml version="1.0" encoding="UTF-8" standalone="no" ?>
<gpx xmlns="http://www.topografix.com/GPX/1/1" xmlns:xsi="http://www.w3.org/2001/XMLSchema-instance" xsi:schemaLocation="http://www.topografix.com/GPX/1/1 http://www.topografix.com/GPX/1/1/gpx.xsd" version="1.1" creator="VisuGPX - https://www.visugpx.com">
  <metadata>
    <name>balade en vélo</name>
    <desc><![CDATA[essai de parcours]]></desc>
  </metadata>
  <trk>
    <name><![CDATA[Sortie VTT]]></name>
    <trkseg>
      <trkpt lat="46.56028" lon="6.06983">
        <ele>1035.4000244141</ele>
        <time>2014-07-19T07:19:58.000Z</time>
      </trkpt>
      <trkpt lat="46.56024" lon="6.06971">
        <ele>1035.4000244141</ele>
        <time>2014-07-19T07:20:00.000Z</time>
      </trkpt>
      <trkpt lat="46.56021" lon="6.06958">
        <ele>1035.1999511719</ele>
        <time>2014-07-19T07:20:02.000Z</time>
      </trkpt>
      <trkpt lat="46.56011" lon="6.06934">
        <ele>1034.4000244141</ele>
        <time>2014-07-19T07:20:06.000Z</time>
      </trkpt>
      <trkpt lat="46.55996" lon="6.06911">
        <ele>1033.1999511719</ele>
        <time>2014-07-19T07:20:10.000Z</time>
      </trkpt>
      <trkpt lat="46.55988" lon="6.06899">
        <ele>1032.4000244141</ele>
        <time>2014-07-19T07:20:12.000Z</time>
      </trkpt>
      <trkpt lat="46.55978" lon="6.06878">
        <ele>1031.5999755859</ele>
        <time>2014-07-19T07:20:15.000Z</time>
      </trkpt>
      <trkpt lat="46.5597" lon="6.06839">
        <ele>1030.5999755859</ele>
        <time>2014-07-19T07:20:20.000Z</time>
      </trkpt>
      <trkpt lat="46.55974" lon="6.06821">
        <ele>1030.1999511719</ele>
        <time>2014-07-19T07:20:23.000Z</time>
      </trkpt>
      <trkpt lat="46.55977" lon="6.06816">
        <ele>1030</ele>
        <time>2014-07-19T07:20:24.000Z</time>
      </trkpt>
      <trkpt lat="46.55988" lon="6.06792">
        <ele>1031</ele>
        <time>2014-07-19T07:20:29.000Z</time>
      </trkpt>
      <trkpt lat="46.55999" lon="6.06767">
        <ele>1034</ele>
        <time>2014-07-19T07:20:36.000Z</time>
      </trkpt>
      <trkpt lat="46.5601" lon="6.06746">
        <ele>1036.5999755859</ele>
        <time>2014-07-19T07:20:44.000Z</time>
      </trkpt>
      <trkpt lat="46.56021" lon="6.06724">
        <ele>1038</ele>
        <time>2014-07-19T07:20:53.000Z</time>
      </trkpt>
      <trkpt lat="46.56025" lon="6.06709">
        <ele>1038.8000488281</ele>
        <time>2014-07-19T07:20:59.000Z</time>
      </trkpt>
      <trkpt lat="46.56025" lon="6.06689">
        <ele>1038.8000488281</ele>
        <time>2014-07-19T07:21:07.000Z</time>
      </trkpt>
      <trkpt lat="46.56027" lon="6.0667">
        <ele>1039.1999511719</ele>
        <time>2014-07-19T07:21:15.000Z</time>
      </trkpt>
      <trkpt lat="46.5603" lon="6.06658">
        <ele>1039.8000488281</ele>
        <time>2014-07-19T07:21:20.000Z</time>
      </trkpt>
      <trkpt lat="46.56038" lon="6.06647">
        <ele>1041.4000244141</ele>
        <time>2014-07-19T07:21:27.000Z</time>
      </trkpt>
      <trkpt lat="46.56039" lon="6.06645">
        <ele>1041.5999755859</ele>
        <time>2014-07-19T07:21:28.000Z</time>
      </trkpt>
      <trkpt lat="46.56047" lon="6.06636">
        <ele>1042.8000488281</ele>
        <time>2014-07-19T07:21:35.000Z</time>
      </trkpt>
      <trkpt lat="46.56053" lon="6.06629">
        <ele>1043.8000488281</ele>
        <time>2014-07-19T07:21:40.000Z</time>
      </trkpt>
      <trkpt lat="46.56059" lon="6.06623">
        <ele>1045</ele>
        <time>2014-07-19T07:21:45.000Z</time>
      </trkpt>
      <trkpt lat="46.5607" lon="6.06609">
        <ele>1047</ele>
        <time>2014-07-19T07:21:55.000Z</time>
      </trkpt>
      <trkpt lat="46.56083" lon="6.06597">
        <ele>1048.5999755859</ele>
        <time>2014-07-19T07:22:06.000Z</time>
      </trkpt>
      <trkpt lat="46.56094" lon="6.06591">
        <ele>1050.1999511719</ele>
        <time>2014-07-19T07:22:14.000Z</time>
      </trkpt>
      <trkpt lat="46.56095" lon="6.0659">
        <ele>1050.4000244141</ele>
        <time>2014-07-19T07:22:15.000Z</time>
      </trkpt>
      <trkpt lat="46.56104" lon="6.06587">
        <ele>1051.8000488281</ele>
        <time>2014-07-19T07:22:22.000Z</time>
      </trkpt>
      <trkpt lat="46.56105" lon="6.06586">
        <ele>1052</ele>
        <time>2014-07-19T07:22:23.000Z</time>
      </trkpt>
      <trkpt lat="46.56112" lon="6.06586">
        <ele>1053.1999511719</ele>
        <time>2014-07-19T07:22:28.000Z</time>
      </trkpt>
      <trkpt lat="46.56125" lon="6.06587">
        <ele>1055.1999511719</ele>
        <time>2014-07-19T07:22:37.000Z</time>
      </trkpt>
      <trkpt lat="46.56137" lon="6.06588">
        <ele>1057.1999511719</ele>
        <time>2014-07-19T07:22:45.000Z</time>
      </trkpt>
      <trkpt lat="46.5615" lon="6.06589">
        <ele>1059.4000244141</ele>
        <time>2014-07-19T07:22:53.000Z</time>
      </trkpt>
      <trkpt lat="46.56162" lon="6.06595">
        <ele>1060.1999511719</ele>
        <time>2014-07-19T07:23:00.000Z</time>
      </trkpt>
      <trkpt lat="46.56176" lon="6.06609">
        <ele>1061</ele>
        <time>2014-07-19T07:23:09.000Z</time>
      </trkpt>
      <trkpt lat="46.56191" lon="6.06628">
        <ele>1061.5999755859</ele>
        <time>2014-07-19T07:23:18.000Z</time>
      </trkpt>
      <trkpt lat="46.56204" lon="6.06647">
        <ele>1062.1999511719</ele>
        <time>2014-07-19T07:23:26.000Z</time>
      </trkpt>
      <trkpt lat="46.56217" lon="6.06665">
        <ele>1063.4000244141</ele>
        <time>2014-07-19T07:23:34.000Z</time>
      </trkpt>
      <trkpt lat="46.56233" lon="6.06681">
        <ele>1064.8000488281</ele>
        <time>2014-07-19T07:23:41.000Z</time>
      </trkpt>
      <trkpt lat="46.56249" lon="6.06693">
        <ele>1067.1999511719</ele>
        <time>2014-07-19T07:23:49.000Z</time>
      </trkpt>
      <trkpt lat="46.5626" lon="6.06699">
        <ele>1068.8000488281</ele>
        <time>2014-07-19T07:23:55.000Z</time>
      </trkpt>
      <trkpt lat="46.56276" lon="6.06707">
        <ele>1071</ele>
        <time>2014-07-19T07:24:04.000Z</time>
      </trkpt>
      <trkpt lat="46.56286" lon="6.06718">
        <ele>1072.5999755859</ele>
        <time>2014-07-19T07:24:11.000Z</time>
      </trkpt>
      <trkpt lat="46.56286" lon="6.0672">
        <ele>1072.8000488281</ele>
        <time>2014-07-19T07:24:12.000Z</time>
      </trkpt>
      <trkpt lat="46.56283" lon="6.06733">
        <ele>1073</ele>
        <time>2014-07-19T07:24:18.000Z</time>
      </trkpt>
      <trkpt lat="46.56274" lon="6.06745">
        <ele>1072.8000488281</ele>
        <time>2014-07-19T07:24:25.000Z</time>
      </trkpt>
      <trkpt lat="46.56263" lon="6.06761">
        <ele>1072.8000488281</ele>
        <time>2014-07-19T07:24:33.000Z</time>
      </trkpt>
      <trkpt lat="46.56257" lon="6.06784">
        <ele>1074.1999511719</ele>
        <time>2014-07-19T07:24:42.000Z</time>
      </trkpt>
      <trkpt lat="46.56258" lon="6.06798">
        <ele>1075.8000488281</ele>
        <time>2014-07-19T07:24:48.000Z</time>
      </trkpt>
      <trkpt lat="46.56268" lon="6.06807">
        <ele>1077.8000488281</ele>
        <time>2014-07-19T07:24:55.000Z</time>
      </trkpt>
      <trkpt lat="46.56279" lon="6.06802">
        <ele>1078.5999755859</ele>
        <time>2014-07-19T07:25:01.000Z</time>
      </trkpt>
      <trkpt lat="46.56293" lon="6.0679">
        <ele>1079.1999511719</ele>
        <time>2014-07-19T07:25:10.000Z</time>
      </trkpt>
      <trkpt lat="46.56308" lon="6.06785">
        <ele>1080.8000488281</ele>
        <time>2014-07-19T07:25:19.000Z</time>
      </trkpt>
      <trkpt lat="46.56326" lon="6.06792">
        <ele>1083.1999511719</ele>
        <time>2014-07-19T07:25:29.000Z</time>
      </trkpt>
      <trkpt lat="46.56339" lon="6.06804">
        <ele>1085.5999755859</ele>
        <time>2014-07-19T07:25:38.000Z</time>
      </trkpt>
      <trkpt lat="46.56355" lon="6.06819">
        <ele>1087.4000244141</ele>
        <time>2014-07-19T07:25:48.000Z</time>
      </trkpt>
      <trkpt lat="46.56369" lon="6.06829">
        <ele>1088.4000244141</ele>
        <time>2014-07-19T07:25:56.000Z</time>
      </trkpt>
      <trkpt lat="46.5638" lon="6.06834">
        <ele>1089.4000244141</ele>
        <time>2014-07-19T07:26:03.000Z</time>
      </trkpt>
      <trkpt lat="46.56395" lon="6.06842">
        <ele>1090.5999755859</ele>
        <time>2014-07-19T07:26:11.000Z</time>
      </trkpt>
      <trkpt lat="46.56411" lon="6.06854">
        <ele>1091.5999755859</ele>
        <time>2014-07-19T07:26:20.000Z</time>
      </trkpt>
      <trkpt lat="46.5642" lon="6.06863">
        <ele>1091.8000488281</ele>
        <time>2014-07-19T07:26:26.000Z</time>
      </trkpt>
      <trkpt lat="46.56432" lon="6.06875">
        <ele>1092.1999511719</ele>
        <time>2014-07-19T07:26:33.000Z</time>
      </trkpt>
      <trkpt lat="46.56447" lon="6.0689">
        <ele>1092.8000488281</ele>
        <time>2014-07-19T07:26:40.000Z</time>
      </trkpt>
      <trkpt lat="46.5647" lon="6.06911">
        <ele>1094.5999755859</ele>
        <time>2014-07-19T07:26:50.000Z</time>
      </trkpt>
      <trkpt lat="46.56479" lon="6.06921">
        <ele>1095.4000244141</ele>
        <time>2014-07-19T07:26:54.000Z</time>
      </trkpt>
      <trkpt lat="46.56485" lon="6.06929">
        <ele>1095.8000488281</ele>
        <time>2014-07-19T07:26:57.000Z</time>
      </trkpt>
      <trkpt lat="46.56502" lon="6.06935">
        <ele>1095.4000244141</ele>
        <time>2014-07-19T07:27:03.000Z</time>
      </trkpt>
      <trkpt lat="46.56515" lon="6.06922">
        <ele>1094.5999755859</ele>
        <time>2014-07-19T07:27:08.000Z</time>
      </trkpt>
      <trkpt lat="46.56528" lon="6.069">
        <ele>1094.4000244141</ele>
        <time>2014-07-19T07:27:13.000Z</time>
      </trkpt>
      <trkpt lat="46.5654" lon="6.06883">
        <ele>1094.4000244141</ele>
        <time>2014-07-19T07:27:18.000Z</time>
      </trkpt>
      <trkpt lat="46.5655" lon="6.06881">
        <ele>1094.4000244141</ele>
        <time>2014-07-19T07:27:23.000Z</time>
      </trkpt>
      <trkpt lat="46.56553" lon="6.06881">
        <ele>1094.4000244141</ele>
        <time>2014-07-19T07:27:25.000Z</time>
      </trkpt>
      <trkpt lat="46.56564" lon="6.06876">
        <ele>1095</ele>
        <time>2014-07-19T07:27:32.000Z</time>
      </trkpt>
      <trkpt lat="46.56573" lon="6.06868">
        <ele>1095.5999755859</ele>
        <time>2014-07-19T07:27:39.000Z</time>
      </trkpt>
      <trkpt lat="46.56587" lon="6.06857">
        <ele>1096.1999511719</ele>
        <time>2014-07-19T07:27:48.000Z</time>
      </trkpt>
      <trkpt lat="46.56603" lon="6.06854">
        <ele>1096</ele>
        <time>2014-07-19T07:27:59.000Z</time>
      </trkpt>
      <trkpt lat="46.56611" lon="6.06853">
        <ele>1095.8000488281</ele>
        <time>2014-07-19T07:28:04.000Z</time>
      </trkpt>
      <trkpt lat="46.56617" lon="6.06857">
        <ele>1095.1999511719</ele>
        <time>2014-07-19T07:28:08.000Z</time>
      </trkpt>
      <trkpt lat="46.56626" lon="6.06859">
        <ele>1094.5999755859</ele>
        <time>2014-07-19T07:28:14.000Z</time>
      </trkpt>
      <trkpt lat="46.56627" lon="6.06859">
        <ele>1094.5999755859</ele>
        <time>2014-07-19T07:28:15.000Z</time>
      </trkpt>
      <trkpt lat="46.56635" lon="6.06856">
        <ele>1094</ele>
        <time>2014-07-19T07:28:19.000Z</time>
      </trkpt>
      <trkpt lat="46.5664" lon="6.06854">
        <ele>1093.8000488281</ele>
        <time>2014-07-19T07:28:22.000Z</time>
      </trkpt>
      <trkpt lat="46.56653" lon="6.06856">
        <ele>1093</ele>
        <time>2014-07-19T07:28:29.000Z</time>
      </trkpt>
      <trkpt lat="46.5666" lon="6.06861">
        <ele>1093.1999511719</ele>
        <time>2014-07-19T07:28:34.000Z</time>
      </trkpt>
      <trkpt lat="46.56669" lon="6.06859">
        <ele>1093.5999755859</ele>
        <time>2014-07-19T07:28:40.000Z</time>
      </trkpt>
      <trkpt lat="46.56686" lon="6.06853">
        <ele>1094.5999755859</ele>
        <time>2014-07-19T07:28:48.000Z</time>
      </trkpt>
      <trkpt lat="46.56701" lon="6.06849">
        <ele>1095.4000244141</ele>
        <time>2014-07-19T07:28:56.000Z</time>
      </trkpt>
      <trkpt lat="46.56715" lon="6.06842">
        <ele>1095.8000488281</ele>
        <time>2014-07-19T07:29:03.000Z</time>
      </trkpt>
      <trkpt lat="46.56729" lon="6.06836">
        <ele>1096.5999755859</ele>
        <time>2014-07-19T07:29:10.000Z</time>
      </trkpt>
      <trkpt lat="46.56741" lon="6.06827">
        <ele>1098</ele>
        <time>2014-07-19T07:29:16.000Z</time>
      </trkpt>
      <trkpt lat="46.56747" lon="6.06822">
        <ele>1099.1999511719</ele>
        <time>2014-07-19T07:29:20.000Z</time>
      </trkpt>
      <trkpt lat="46.56753" lon="6.06816">
        <ele>1100.1999511719</ele>
        <time>2014-07-19T07:29:26.000Z</time>
      </trkpt>
      <trkpt lat="46.56763" lon="6.06808">
        <ele>1101.8000488281</ele>
        <time>2014-07-19T07:29:33.000Z</time>
      </trkpt>
      <trkpt lat="46.56766" lon="6.06804">
        <ele>1102.1999511719</ele>
        <time>2014-07-19T07:29:36.000Z</time>
      </trkpt>
      <trkpt lat="46.56773" lon="6.06798">
        <ele>1103.1999511719</ele>
        <time>2014-07-19T07:29:43.000Z</time>
      </trkpt>
      <trkpt lat="46.56778" lon="6.06798">
        <ele>1104</ele>
        <time>2014-07-19T07:29:50.000Z</time>
      </trkpt>
      <trkpt lat="46.5678" lon="6.06801">
        <ele>1104.4000244141</ele>
        <time>2014-07-19T07:29:55.000Z</time>
      </trkpt>
      <trkpt lat="46.56785" lon="6.06806">
        <ele>1105.4000244141</ele>
        <time>2014-07-19T07:30:03.000Z</time>
      </trkpt>
      <trkpt lat="46.56797" lon="6.0681">
        <ele>1107.4000244141</ele>
        <time>2014-07-19T07:30:12.000Z</time>
      </trkpt>
      <trkpt lat="46.568" lon="6.06812">
        <ele>1108</ele>
        <time>2014-07-19T07:30:19.000Z</time>
      </trkpt>
      <trkpt lat="46.56805" lon="6.06816">
        <ele>1108.8000488281</ele>
        <time>2014-07-19T07:30:27.000Z</time>
      </trkpt>
      <trkpt lat="46.56813" lon="6.06827">
        <ele>1110.1999511719</ele>
        <time>2014-07-19T07:30:35.000Z</time>
      </trkpt>
      <trkpt lat="46.56819" lon="6.06834">
        <ele>1111.1999511719</ele>
        <time>2014-07-19T07:30:41.000Z</time>
      </trkpt>
      <trkpt lat="46.56823" lon="6.06841">
        <ele>1112</ele>
        <time>2014-07-19T07:30:47.000Z</time>
      </trkpt>
      <trkpt lat="46.56826" lon="6.06846">
        <ele>1112.4000244141</ele>
        <time>2014-07-19T07:30:50.000Z</time>
      </trkpt>
      <trkpt lat="46.56829" lon="6.06848">
        <ele>1113</ele>
        <time>2014-07-19T07:30:54.000Z</time>
      </trkpt>
      <trkpt lat="46.56832" lon="6.06848">
        <ele>1113.5999755859</ele>
        <time>2014-07-19T07:30:57.000Z</time>
      </trkpt>
      <trkpt lat="46.56842" lon="6.06843">
        <ele>1115.4000244141</ele>
        <time>2014-07-19T07:31:05.000Z</time>
      </trkpt>
      <trkpt lat="46.56844" lon="6.06841">
        <ele>1115.8000488281</ele>
        <time>2014-07-19T07:31:07.000Z</time>
      </trkpt>
      <trkpt lat="46.56851" lon="6.06828">
        <ele>1117.1999511719</ele>
        <time>2014-07-19T07:31:15.000Z</time>
      </trkpt>
      <trkpt lat="46.56857" lon="6.06822">
        <ele>1118.4000244141</ele>
        <time>2014-07-19T07:31:20.000Z</time>
      </trkpt>
      <trkpt lat="46.56864" lon="6.06813">
        <ele>1119.8000488281</ele>
        <time>2014-07-19T07:31:27.000Z</time>
      </trkpt>
      <trkpt lat="46.56865" lon="6.06812">
        <ele>1120</ele>
        <time>2014-07-19T07:31:28.000Z</time>
      </trkpt>
      <trkpt lat="46.56869" lon="6.06807">
        <ele>1120.4000244141</ele>
        <time>2014-07-19T07:31:31.000Z</time>
      </trkpt>
      <trkpt lat="46.56875" lon="6.06798">
        <ele>1121</ele>
        <time>2014-07-19T07:31:36.000Z</time>
      </trkpt>
      <trkpt lat="46.56882" lon="6.06789">
        <ele>1121.5999755859</ele>
        <time>2014-07-19T07:31:42.000Z</time>
      </trkpt>
      <trkpt lat="46.56883" lon="6.06787">
        <ele>1121.5999755859</ele>
        <time>2014-07-19T07:31:43.000Z</time>
      </trkpt>
      <trkpt lat="46.56895" lon="6.06774">
        <ele>1122.4000244141</ele>
        <time>2014-07-19T07:31:50.000Z</time>
      </trkpt>
      <trkpt lat="46.56897" lon="6.06772">
        <ele>1122.5999755859</ele>
        <time>2014-07-19T07:31:51.000Z</time>
      </trkpt>
      <trkpt lat="46.56901" lon="6.06764">
        <ele>1122.5999755859</ele>
        <time>2014-07-19T07:31:55.000Z</time>
      </trkpt>
      <trkpt lat="46.56904" lon="6.06747">
        <ele>1121</ele>
        <time>2014-07-19T07:32:01.000Z</time>
      </trkpt>
      <trkpt lat="46.56908" lon="6.06729">
        <ele>1119.5999755859</ele>
        <time>2014-07-19T07:32:05.000Z</time>
      </trkpt>
      <trkpt lat="46.56912" lon="6.06716">
        <ele>1119</ele>
        <time>2014-07-19T07:32:09.000Z</time>
      </trkpt>
      <trkpt lat="46.56914" lon="6.06704">
        <ele>1118.4000244141</ele>
        <time>2014-07-19T07:32:13.000Z</time>
      </trkpt>
      <trkpt lat="46.5692" lon="6.067">
        <ele>1118.5999755859</ele>
        <time>2014-07-19T07:32:19.000Z</time>
      </trkpt>
      <trkpt lat="46.56928" lon="6.06697">
        <ele>1118.8000488281</ele>
        <time>2014-07-19T07:32:25.000Z</time>
      </trkpt>
      <trkpt lat="46.5693" lon="6.06697">
        <ele>1119</ele>
        <time>2014-07-19T07:32:26.000Z</time>
      </trkpt>
      <trkpt lat="46.56939" lon="6.06695">
        <ele>1119.4000244141</ele>
        <time>2014-07-19T07:32:32.000Z</time>
      </trkpt>
      <trkpt lat="46.56942" lon="6.06695">
        <ele>1119.5999755859</ele>
        <time>2014-07-19T07:32:34.000Z</time>
      </trkpt>
      <trkpt lat="46.56945" lon="6.06693">
        <ele>1119.5999755859</ele>
        <time>2014-07-19T07:32:37.000Z</time>
      </trkpt>
      <trkpt lat="46.56958" lon="6.06694">
        <ele>1120.5999755859</ele>
        <time>2014-07-19T07:32:44.000Z</time>
      </trkpt>
      <trkpt lat="46.56961" lon="6.06695">
        <ele>1121</ele>
        <time>2014-07-19T07:32:46.000Z</time>
      </trkpt>
      <trkpt lat="46.56968" lon="6.06695">
        <ele>1121.5999755859</ele>
        <time>2014-07-19T07:32:50.000Z</time>
      </trkpt>
      <trkpt lat="46.5697" lon="6.06696">
        <ele>1122</ele>
        <time>2014-07-19T07:32:51.000Z</time>
      </trkpt>
      <trkpt lat="46.56979" lon="6.06697">
        <ele>1122.8000488281</ele>
        <time>2014-07-19T07:32:55.000Z</time>
      </trkpt>
      <trkpt lat="46.56984" lon="6.06698">
        <ele>1123.4000244141</ele>
        <time>2014-07-19T07:32:57.000Z</time>
      </trkpt>
      <trkpt lat="46.57001" lon="6.06703">
        <ele>1123.4000244141</ele>
        <time>2014-07-19T07:33:03.000Z</time>
      </trkpt>
      <trkpt lat="46.57005" lon="6.06705">
        <ele>1123.4000244141</ele>
        <time>2014-07-19T07:33:05.000Z</time>
      </trkpt>
      <trkpt lat="46.57014" lon="6.06711">
        <ele>1123.5999755859</ele>
        <time>2014-07-19T07:33:12.000Z</time>
      </trkpt>
      <trkpt lat="46.57019" lon="6.06712">
        <ele>1123.5999755859</ele>
        <time>2014-07-19T07:33:16.000Z</time>
      </trkpt>
      <trkpt lat="46.57035" lon="6.0671">
        <ele>1123.5999755859</ele>
        <time>2014-07-19T07:33:24.000Z</time>
      </trkpt>
      <trkpt lat="46.57047" lon="6.06711">
        <ele>1123.5999755859</ele>
        <time>2014-07-19T07:33:30.000Z</time>
      </trkpt>
      <trkpt lat="46.57059" lon="6.06712">
        <ele>1123.5999755859</ele>
        <time>2014-07-19T07:33:35.000Z</time>
      </trkpt>
      <trkpt lat="46.57077" lon="6.06717">
        <ele>1123.5999755859</ele>
        <time>2014-07-19T07:33:41.000Z</time>
      </trkpt>
      <trkpt lat="46.57089" lon="6.06722">
        <ele>1123.4000244141</ele>
        <time>2014-07-19T07:33:47.000Z</time>
      </trkpt>
      <trkpt lat="46.571" lon="6.06727">
        <ele>1123.1999511719</ele>
        <time>2014-07-19T07:33:51.000Z</time>
      </trkpt>
      <trkpt lat="46.57115" lon="6.06732">
        <ele>1123.1999511719</ele>
        <time>2014-07-19T07:33:56.000Z</time>
      </trkpt>
      <trkpt lat="46.57128" lon="6.06733">
        <ele>1123</ele>
        <time>2014-07-19T07:34:00.000Z</time>
      </trkpt>
      <trkpt lat="46.57142" lon="6.06729">
        <ele>1122.4000244141</ele>
        <time>2014-07-19T07:34:05.000Z</time>
      </trkpt>
      <trkpt lat="46.57151" lon="6.06727">
        <ele>1122</ele>
        <time>2014-07-19T07:34:09.000Z</time>
      </trkpt>
      <trkpt lat="46.57156" lon="6.06726">
        <ele>1122</ele>
        <time>2014-07-19T07:34:15.000Z</time>
      </trkpt>
      <trkpt lat="46.5716" lon="6.06725">
        <ele>1122</ele>
        <time>2014-07-19T07:34:20.000Z</time>
      </trkpt>
      <trkpt lat="46.57163" lon="6.06724">
        <ele>1122.1999511719</ele>
        <time>2014-07-19T07:34:25.000Z</time>
      </trkpt>
      <trkpt lat="46.57167" lon="6.0672">
        <ele>1122.1999511719</ele>
        <time>2014-07-19T07:34:29.000Z</time>
      </trkpt>
      <trkpt lat="46.57171" lon="6.06719">
        <ele>1122.1999511719</ele>
        <time>2014-07-19T07:34:31.000Z</time>
      </trkpt>
      <trkpt lat="46.57179" lon="6.06713">
        <ele>1122.1999511719</ele>
        <time>2014-07-19T07:34:36.000Z</time>
      </trkpt>
      <trkpt lat="46.57185" lon="6.06712">
        <ele>1122.1999511719</ele>
        <time>2014-07-19T07:34:41.000Z</time>
      </trkpt>
      <trkpt lat="46.5719" lon="6.06706">
        <ele>1122.1999511719</ele>
        <time>2014-07-19T07:34:47.000Z</time>
      </trkpt>
      <trkpt lat="46.57193" lon="6.06704">
        <ele>1122.1999511719</ele>
        <time>2014-07-19T07:34:50.000Z</time>
      </trkpt>
      <trkpt lat="46.57195" lon="6.06702">
        <ele>1122.1999511719</ele>
        <time>2014-07-19T07:34:52.000Z</time>
      </trkpt>
      <trkpt lat="46.57201" lon="6.067">
        <ele>1122.1999511719</ele>
        <time>2014-07-19T07:34:56.000Z</time>
      </trkpt>
      <trkpt lat="46.57206" lon="6.06701">
        <ele>1122.4000244141</ele>
        <time>2014-07-19T07:35:00.000Z</time>
      </trkpt>
      <trkpt lat="46.57213" lon="6.06698">
        <ele>1122.4000244141</ele>
        <time>2014-07-19T07:35:06.000Z</time>
      </trkpt>
      <trkpt lat="46.57219" lon="6.06695">
        <ele>1122.1999511719</ele>
        <time>2014-07-19T07:35:11.000Z</time>
      </trkpt>
      <trkpt lat="46.57221" lon="6.06694">
        <ele>1122.1999511719</ele>
        <time>2014-07-19T07:35:13.000Z</time>
      </trkpt>
      <trkpt lat="46.57224" lon="6.06695">
        <ele>1122.1999511719</ele>
        <time>2014-07-19T07:35:15.000Z</time>
      </trkpt>
      <trkpt lat="46.57234" lon="6.06697">
        <ele>1122.4000244141</ele>
        <time>2014-07-19T07:35:20.000Z</time>
      </trkpt>
      <trkpt lat="46.57243" lon="6.06698">
        <ele>1122.8000488281</ele>
        <time>2014-07-19T07:35:25.000Z</time>
      </trkpt>
      <trkpt lat="46.57251" lon="6.067">
        <ele>1123.1999511719</ele>
        <time>2014-07-19T07:35:30.000Z</time>
      </trkpt>
      <trkpt lat="46.57252" lon="6.067">
        <ele>1123.1999511719</ele>
        <time>2014-07-19T07:35:31.000Z</time>
      </trkpt>
      <trkpt lat="46.57257" lon="6.06699">
        <ele>1123.4000244141</ele>
        <time>2014-07-19T07:35:37.000Z</time>
      </trkpt>
      <trkpt lat="46.5726" lon="6.06701">
        <ele>1123.5999755859</ele>
        <time>2014-07-19T07:35:44.000Z</time>
      </trkpt>
      <trkpt lat="46.57269" lon="6.06704">
        <ele>1124</ele>
        <time>2014-07-19T07:35:51.000Z</time>
      </trkpt>
      <trkpt lat="46.5727" lon="6.06704">
        <ele>1124.1999511719</ele>
        <time>2014-07-19T07:35:52.000Z</time>
      </trkpt>
      <trkpt lat="46.57275" lon="6.06702">
        <ele>1124.4000244141</ele>
        <time>2014-07-19T07:35:55.000Z</time>
      </trkpt>
      <trkpt lat="46.57282" lon="6.06695">
        <ele>1124.5999755859</ele>
        <time>2014-07-19T07:36:02.000Z</time>
      </trkpt>
      <trkpt lat="46.57285" lon="6.06693">
        <ele>1124.5999755859</ele>
        <time>2014-07-19T07:36:04.000Z</time>
      </trkpt>
      <trkpt lat="46.57295" lon="6.06691">
        <ele>1125</ele>
        <time>2014-07-19T07:36:11.000Z</time>
      </trkpt>
      <trkpt lat="46.57301" lon="6.06691">
        <ele>1125.1999511719</ele>
        <time>2014-07-19T07:36:16.000Z</time>
      </trkpt>
      <trkpt lat="46.57305" lon="6.06691">
        <ele>1125.1999511719</ele>
        <time>2014-07-19T07:36:20.000Z</time>
      </trkpt>
      <trkpt lat="46.57314" lon="6.06689">
        <ele>1125.5999755859</ele>
        <time>2014-07-19T07:36:27.000Z</time>
      </trkpt>
      <trkpt lat="46.57317" lon="6.06688">
        <ele>1125.5999755859</ele>
        <time>2014-07-19T07:36:29.000Z</time>
      </trkpt>
      <trkpt lat="46.57326" lon="6.06686">
        <ele>1126</ele>
        <time>2014-07-19T07:36:35.000Z</time>
      </trkpt>
      <trkpt lat="46.57327" lon="6.06686">
        <ele>1126</ele>
        <time>2014-07-19T07:36:36.000Z</time>
      </trkpt>
      <trkpt lat="46.57334" lon="6.06683">
        <ele>1126.1999511719</ele>
        <time>2014-07-19T07:36:40.000Z</time>
      </trkpt>
      <trkpt lat="46.5735" lon="6.06687">
        <ele>1127.1999511719</ele>
        <time>2014-07-19T07:36:48.000Z</time>
      </trkpt>
      <trkpt lat="46.57356" lon="6.06688">
        <ele>1127.4000244141</ele>
        <time>2014-07-19T07:36:52.000Z</time>
      </trkpt>
      <trkpt lat="46.5736" lon="6.06688">
        <ele>1127.5999755859</ele>
        <time>2014-07-19T07:36:54.000Z</time>
      </trkpt>
      <trkpt lat="46.57366" lon="6.06689">
        <ele>1128</ele>
        <time>2014-07-19T07:36:58.000Z</time>
      </trkpt>
      <trkpt lat="46.57372" lon="6.0669">
        <ele>1128.4000244141</ele>
        <time>2014-07-19T07:37:02.000Z</time>
      </trkpt>
      <trkpt lat="46.5738" lon="6.06691">
        <ele>1129</ele>
        <time>2014-07-19T07:37:08.000Z</time>
      </trkpt>
      <trkpt lat="46.57391" lon="6.06695">
        <ele>1130</ele>
        <time>2014-07-19T07:37:15.000Z</time>
      </trkpt>
      <trkpt lat="46.57393" lon="6.06696">
        <ele>1130</ele>
        <time>2014-07-19T07:37:16.000Z</time>
      </trkpt>
      <trkpt lat="46.57399" lon="6.06705">
        <ele>1130.5999755859</ele>
        <time>2014-07-19T07:37:22.000Z</time>
      </trkpt>
      <trkpt lat="46.57408" lon="6.06719">
        <ele>1130.5999755859</ele>
        <time>2014-07-19T07:37:30.000Z</time>
      </trkpt>
      <trkpt lat="46.57416" lon="6.06733">
        <ele>1130.8000488281</ele>
        <time>2014-07-19T07:37:34.000Z</time>
      </trkpt>
      <trkpt lat="46.57431" lon="6.0675">
        <ele>1131.1999511719</ele>
        <time>2014-07-19T07:37:40.000Z</time>
      </trkpt>
      <trkpt lat="46.5745" lon="6.06757">
        <ele>1131</ele>
        <time>2014-07-19T07:37:46.000Z</time>
      </trkpt>
      <trkpt lat="46.57465" lon="6.06765">
        <ele>1130.8000488281</ele>
        <time>2014-07-19T07:37:52.000Z</time>
      </trkpt>
      <trkpt lat="46.57473" lon="6.0677">
        <ele>1130.8000488281</ele>
        <time>2014-07-19T07:37:56.000Z</time>
      </trkpt>
      <trkpt lat="46.57489" lon="6.06774">
        <ele>1130.1999511719</ele>
        <time>2014-07-19T07:38:02.000Z</time>
      </trkpt>
      <trkpt lat="46.57499" lon="6.06776">
        <ele>1129.5999755859</ele>
        <time>2014-07-19T07:38:06.000Z</time>
      </trkpt>
      <trkpt lat="46.57512" lon="6.06776">
        <ele>1128.5999755859</ele>
        <time>2014-07-19T07:38:14.000Z</time>
      </trkpt>
      <trkpt lat="46.57523" lon="6.06776">
        <ele>1127.8000488281</ele>
        <time>2014-07-19T07:38:19.000Z</time>
      </trkpt>
      <trkpt lat="46.57532" lon="6.06776">
        <ele>1127.1999511719</ele>
        <time>2014-07-19T07:38:23.000Z</time>
      </trkpt>
      <trkpt lat="46.57543" lon="6.06772">
        <ele>1126.4000244141</ele>
        <time>2014-07-19T07:38:27.000Z</time>
      </trkpt>
      <trkpt lat="46.57555" lon="6.06769">
        <ele>1125.8000488281</ele>
        <time>2014-07-19T07:38:33.000Z</time>
      </trkpt>
      <trkpt lat="46.57563" lon="6.06765">
        <ele>1125</ele>
        <time>2014-07-19T07:38:37.000Z</time>
      </trkpt>
      <trkpt lat="46.57572" lon="6.06758">
        <ele>1124.4000244141</ele>
        <time>2014-07-19T07:38:42.000Z</time>
      </trkpt>
      <trkpt lat="46.57578" lon="6.06755">
        <ele>1124</ele>
        <time>2014-07-19T07:38:45.000Z</time>
      </trkpt>
      <trkpt lat="46.57589" lon="6.06748">
        <ele>1123.4000244141</ele>
        <time>2014-07-19T07:38:50.000Z</time>
      </trkpt>
      <trkpt lat="46.576" lon="6.06743">
        <ele>1123.1999511719</ele>
        <time>2014-07-19T07:38:53.000Z</time>
      </trkpt>
      <trkpt lat="46.57617" lon="6.06735">
        <ele>1123.1999511719</ele>
        <time>2014-07-19T07:38:59.000Z</time>
      </trkpt>
      <trkpt lat="46.57624" lon="6.06731">
        <ele>1123</ele>
        <time>2014-07-19T07:39:04.000Z</time>
      </trkpt>
      <trkpt lat="46.5764" lon="6.06732">
        <ele>1123</ele>
        <time>2014-07-19T07:39:10.000Z</time>
      </trkpt>
      <trkpt lat="46.5765" lon="6.06734">
        <ele>1123</ele>
        <time>2014-07-19T07:39:13.000Z</time>
      </trkpt>
      <trkpt lat="46.57661" lon="6.06741">
        <ele>1122.5999755859</ele>
        <time>2014-07-19T07:39:17.000Z</time>
      </trkpt>
      <trkpt lat="46.57664" lon="6.06745">
        <ele>1122.4000244141</ele>
        <time>2014-07-19T07:39:19.000Z</time>
      </trkpt>
      <trkpt lat="46.57671" lon="6.0675">
        <ele>1122</ele>
        <time>2014-07-19T07:39:23.000Z</time>
      </trkpt>
      <trkpt lat="46.57684" lon="6.0676">
        <ele>1121.4000244141</ele>
        <time>2014-07-19T07:39:29.000Z</time>
      </trkpt>
      <trkpt lat="46.57687" lon="6.06761">
        <ele>1121.1999511719</ele>
        <time>2014-07-19T07:39:30.000Z</time>
      </trkpt>
      <trkpt lat="46.57704" lon="6.06775">
        <ele>1120.5999755859</ele>
        <time>2014-07-19T07:39:36.000Z</time>
      </trkpt>
      <trkpt lat="46.57706" lon="6.06778">
        <ele>1120.4000244141</ele>
        <time>2014-07-19T07:39:37.000Z</time>
      </trkpt>
      <trkpt lat="46.57718" lon="6.06797">
        <ele>1119.8000488281</ele>
        <time>2014-07-19T07:39:43.000Z</time>
      </trkpt>
      <trkpt lat="46.57729" lon="6.06815">
        <ele>1119.4000244141</ele>
        <time>2014-07-19T07:39:48.000Z</time>
      </trkpt>
      <trkpt lat="46.57732" lon="6.0682">
        <ele>1119.1999511719</ele>
        <time>2014-07-19T07:39:50.000Z</time>
      </trkpt>
      <trkpt lat="46.57738" lon="6.06832">
        <ele>1118.8000488281</ele>
        <time>2014-07-19T07:39:55.000Z</time>
      </trkpt>
      <trkpt lat="46.57748" lon="6.06843">
        <ele>1118.5999755859</ele>
        <time>2014-07-19T07:40:01.000Z</time>
      </trkpt>
      <trkpt lat="46.5775" lon="6.06845">
        <ele>1118.4000244141</ele>
        <time>2014-07-19T07:40:02.000Z</time>
      </trkpt>
      <trkpt lat="46.57751" lon="6.06845">
        <ele>1118.4000244141</ele>
        <time>2014-07-19T07:40:03.000Z</time>
      </trkpt>
      <trkpt lat="46.57758" lon="6.06846">
        <ele>1118.1999511719</ele>
        <time>2014-07-19T07:40:08.000Z</time>
      </trkpt>
      <trkpt lat="46.57763" lon="6.06847">
        <ele>1118</ele>
        <time>2014-07-19T07:40:11.000Z</time>
      </trkpt>
      <trkpt lat="46.57765" lon="6.06847">
        <ele>1118</ele>
        <time>2014-07-19T07:40:12.000Z</time>
      </trkpt>
      <trkpt lat="46.57779" lon="6.06844">
        <ele>1117.4000244141</ele>
        <time>2014-07-19T07:40:18.000Z</time>
      </trkpt>
      <trkpt lat="46.57791" lon="6.06841">
        <ele>1116.5999755859</ele>
        <time>2014-07-19T07:40:24.000Z</time>
      </trkpt>
      <trkpt lat="46.57793" lon="6.06839">
        <ele>1116.5999755859</ele>
        <time>2014-07-19T07:40:26.000Z</time>
      </trkpt>
      <trkpt lat="46.57798" lon="6.06821">
        <ele>1116.1999511719</ele>
        <time>2014-07-19T07:40:32.000Z</time>
      </trkpt>
      <trkpt lat="46.57799" lon="6.06818">
        <ele>1116</ele>
        <time>2014-07-19T07:40:33.000Z</time>
      </trkpt>
      <trkpt lat="46.57804" lon="6.06805">
        <ele>1115.8000488281</ele>
        <time>2014-07-19T07:40:38.000Z</time>
      </trkpt>
      <trkpt lat="46.57815" lon="6.068">
        <ele>1115.4000244141</ele>
        <time>2014-07-19T07:40:45.000Z</time>
      </trkpt>
      <trkpt lat="46.57826" lon="6.06799">
        <ele>1115.1999511719</ele>
        <time>2014-07-19T07:40:51.000Z</time>
      </trkpt>
      <trkpt lat="46.57838" lon="6.06802">
        <ele>1115</ele>
        <time>2014-07-19T07:40:57.000Z</time>
      </trkpt>
      <trkpt lat="46.57852" lon="6.06809">
        <ele>1114.5999755859</ele>
        <time>2014-07-19T07:41:01.000Z</time>
      </trkpt>
      <trkpt lat="46.57868" lon="6.06815">
        <ele>1114.1999511719</ele>
        <time>2014-07-19T07:41:07.000Z</time>
      </trkpt>
      <trkpt lat="46.57885" lon="6.06815">
        <ele>1114</ele>
        <time>2014-07-19T07:41:13.000Z</time>
      </trkpt>
      <trkpt lat="46.57894" lon="6.06809">
        <ele>1114.1999511719</ele>
        <time>2014-07-19T07:41:18.000Z</time>
      </trkpt>
      <trkpt lat="46.57896" lon="6.06807">
        <ele>1114.1999511719</ele>
        <time>2014-07-19T07:41:19.000Z</time>
      </trkpt>
      <trkpt lat="46.57907" lon="6.06804">
        <ele>1114.1999511719</ele>
        <time>2014-07-19T07:41:25.000Z</time>
      </trkpt>
      <trkpt lat="46.5791" lon="6.06802">
        <ele>1114.1999511719</ele>
        <time>2014-07-19T07:41:27.000Z</time>
      </trkpt>
      <trkpt lat="46.57919" lon="6.06798">
        <ele>1114.4000244141</ele>
        <time>2014-07-19T07:41:32.000Z</time>
      </trkpt>
      <trkpt lat="46.57923" lon="6.06794">
        <ele>1114.4000244141</ele>
        <time>2014-07-19T07:41:34.000Z</time>
      </trkpt>
      <trkpt lat="46.57932" lon="6.06784">
        <ele>1114.5999755859</ele>
        <time>2014-07-19T07:41:39.000Z</time>
      </trkpt>
      <trkpt lat="46.57937" lon="6.06758">
        <ele>1115</ele>
        <time>2014-07-19T07:41:46.000Z</time>
      </trkpt>
      <trkpt lat="46.57937" lon="6.06756">
        <ele>1115</ele>
        <time>2014-07-19T07:41:47.000Z</time>
      </trkpt>
      <trkpt lat="46.57941" lon="6.06747">
        <ele>1114.8000488281</ele>
        <time>2014-07-19T07:41:51.000Z</time>
      </trkpt>
      <trkpt lat="46.57941" lon="6.06745">
        <ele>1114.8000488281</ele>
        <time>2014-07-19T07:41:52.000Z</time>
      </trkpt>
      <trkpt lat="46.57942" lon="6.06742">
        <ele>1114.8000488281</ele>
        <time>2014-07-19T07:41:53.000Z</time>
      </trkpt>
      <trkpt lat="46.57951" lon="6.06729">
        <ele>1114.4000244141</ele>
        <time>2014-07-19T07:42:00.000Z</time>
      </trkpt>
      <trkpt lat="46.57956" lon="6.06713">
        <ele>1114.4000244141</ele>
        <time>2014-07-19T07:42:04.000Z</time>
      </trkpt>
      <trkpt lat="46.57957" lon="6.06692">
        <ele>1114</ele>
        <time>2014-07-19T07:42:08.000Z</time>
      </trkpt>
      <trkpt lat="46.5796" lon="6.06684">
        <ele>1113.1999511719</ele>
        <time>2014-07-19T07:42:10.000Z</time>
      </trkpt>
      <trkpt lat="46.57964" lon="6.06664">
        <ele>1111.8000488281</ele>
        <time>2014-07-19T07:42:14.000Z</time>
      </trkpt>
      <trkpt lat="46.57969" lon="6.06639">
        <ele>1110</ele>
        <time>2014-07-19T07:42:19.000Z</time>
      </trkpt>
      <trkpt lat="46.5798" lon="6.06618">
        <ele>1108.1999511719</ele>
        <time>2014-07-19T07:42:23.000Z</time>
      </trkpt>
      <trkpt lat="46.57982" lon="6.06613">
        <ele>1107.8000488281</ele>
        <time>2014-07-19T07:42:24.000Z</time>
      </trkpt>
      <trkpt lat="46.57988" lon="6.06599">
        <ele>1107</ele>
        <time>2014-07-19T07:42:28.000Z</time>
      </trkpt>
      <trkpt lat="46.57989" lon="6.06596">
        <ele>1106.8000488281</ele>
        <time>2014-07-19T07:42:29.000Z</time>
      </trkpt>
      <trkpt lat="46.57991" lon="6.06591">
        <ele>1106.5999755859</ele>
        <time>2014-07-19T07:42:31.000Z</time>
      </trkpt>
      <trkpt lat="46.57993" lon="6.0658">
        <ele>1106.1999511719</ele>
        <time>2014-07-19T07:42:35.000Z</time>
      </trkpt>
      <trkpt lat="46.57993" lon="6.0657">
        <ele>1105.8000488281</ele>
        <time>2014-07-19T07:42:38.000Z</time>
      </trkpt>
      <trkpt lat="46.57996" lon="6.06559">
        <ele>1104.5999755859</ele>
        <time>2014-07-19T07:42:41.000Z</time>
      </trkpt>
      <trkpt lat="46.58001" lon="6.0655">
        <ele>1104.1999511719</ele>
        <time>2014-07-19T07:42:46.000Z</time>
      </trkpt>
      <trkpt lat="46.58002" lon="6.06548">
        <ele>1104</ele>
        <time>2014-07-19T07:42:47.000Z</time>
      </trkpt>
      <trkpt lat="46.58019" lon="6.06538">
        <ele>1103.1999511719</ele>
        <time>2014-07-19T07:42:54.000Z</time>
      </trkpt>
      <trkpt lat="46.58032" lon="6.0653">
        <ele>1102.4000244141</ele>
        <time>2014-07-19T07:42:58.000Z</time>
      </trkpt>
      <trkpt lat="46.58034" lon="6.06529">
        <ele>1102.4000244141</ele>
        <time>2014-07-19T07:42:59.000Z</time>
      </trkpt>
      <trkpt lat="46.58043" lon="6.06529">
        <ele>1102</ele>
        <time>2014-07-19T07:43:04.000Z</time>
      </trkpt>
      <trkpt lat="46.58043" lon="6.06529">
        <ele>1102</ele>
        <time>2014-07-19T07:43:05.000Z</time>
      </trkpt>
      <trkpt lat="46.58048" lon="6.06532">
        <ele>1102</ele>
        <time>2014-07-19T07:43:09.000Z</time>
      </trkpt>
      <trkpt lat="46.58058" lon="6.0654">
        <ele>1102.1999511719</ele>
        <time>2014-07-19T07:43:15.000Z</time>
      </trkpt>
      <trkpt lat="46.58059" lon="6.06541">
        <ele>1102.1999511719</ele>
        <time>2014-07-19T07:43:16.000Z</time>
      </trkpt>
      <trkpt lat="46.58064" lon="6.06552">
        <ele>1102.5999755859</ele>
        <time>2014-07-19T07:43:22.000Z</time>
      </trkpt>
      <trkpt lat="46.58075" lon="6.06568">
        <ele>1103.5999755859</ele>
        <time>2014-07-19T07:43:30.000Z</time>
      </trkpt>
      <trkpt lat="46.58082" lon="6.06582">
        <ele>1104.4000244141</ele>
        <time>2014-07-19T07:43:36.000Z</time>
      </trkpt>
      <trkpt lat="46.5809" lon="6.06592">
        <ele>1105.1999511719</ele>
        <time>2014-07-19T07:43:43.000Z</time>
      </trkpt>
      <trkpt lat="46.58097" lon="6.066">
        <ele>1105.5999755859</ele>
        <time>2014-07-19T07:43:48.000Z</time>
      </trkpt>
      <trkpt lat="46.58105" lon="6.06607">
        <ele>1105.8000488281</ele>
        <time>2014-07-19T07:43:54.000Z</time>
      </trkpt>
      <trkpt lat="46.58105" lon="6.06609">
        <ele>1106</ele>
        <time>2014-07-19T07:43:55.000Z</time>
      </trkpt>
      <trkpt lat="46.5811" lon="6.0662">
        <ele>1106.8000488281</ele>
        <time>2014-07-19T07:44:00.000Z</time>
      </trkpt>
      <trkpt lat="46.58117" lon="6.06639">
        <ele>1108.1999511719</ele>
        <time>2014-07-19T07:44:08.000Z</time>
      </trkpt>
      <trkpt lat="46.58123" lon="6.06648">
        <ele>1109</ele>
        <time>2014-07-19T07:44:13.000Z</time>
      </trkpt>
      <trkpt lat="46.58135" lon="6.06651">
        <ele>1108.5999755859</ele>
        <time>2014-07-19T07:44:19.000Z</time>
      </trkpt>
      <trkpt lat="46.58145" lon="6.06645">
        <ele>1107.4000244141</ele>
        <time>2014-07-19T07:44:24.000Z</time>
      </trkpt>
      <trkpt lat="46.58159" lon="6.06642">
        <ele>1106.5999755859</ele>
        <time>2014-07-19T07:44:29.000Z</time>
      </trkpt>
      <trkpt lat="46.58166" lon="6.0664">
        <ele>1106.1999511719</ele>
        <time>2014-07-19T07:44:32.000Z</time>
      </trkpt>
      <trkpt lat="46.58181" lon="6.06638">
        <ele>1105.5999755859</ele>
        <time>2014-07-19T07:44:36.000Z</time>
      </trkpt>
      <trkpt lat="46.58201" lon="6.06639">
        <ele>1104.8000488281</ele>
        <time>2014-07-19T07:44:40.000Z</time>
      </trkpt>
      <trkpt lat="46.58206" lon="6.06639">
        <ele>1104.8000488281</ele>
        <time>2014-07-19T07:44:43.000Z</time>
      </trkpt>
      <trkpt lat="46.58207" lon="6.0664">
        <ele>1104.8000488281</ele>
        <time>2014-07-19T07:45:03.000Z</time>
      </trkpt>
      <trkpt lat="46.58215" lon="6.06637">
        <ele>1104.1999511719</ele>
        <time>2014-07-19T07:45:25.000Z</time>
      </trkpt>
      <trkpt lat="46.58225" lon="6.06633">
        <ele>1103.5999755859</ele>
        <time>2014-07-19T07:45:31.000Z</time>
      </trkpt>
      <trkpt lat="46.58235" lon="6.06623">
        <ele>1101.5999755859</ele>
        <time>2014-07-19T07:45:36.000Z</time>
      </trkpt>
      <trkpt lat="46.58247" lon="6.0661">
        <ele>1100.4000244141</ele>
        <time>2014-07-19T07:45:42.000Z</time>
      </trkpt>
      <trkpt lat="46.58271" lon="6.06582">
        <ele>1098.1999511719</ele>
        <time>2014-07-19T07:45:52.000Z</time>
      </trkpt>
      <trkpt lat="46.58285" lon="6.06561">
        <ele>1097.1999511719</ele>
        <time>2014-07-19T07:45:57.000Z</time>
      </trkpt>
      <trkpt lat="46.58296" lon="6.06543">
        <ele>1096.4000244141</ele>
        <time>2014-07-19T07:46:02.000Z</time>
      </trkpt>
      <trkpt lat="46.58306" lon="6.06527">
        <ele>1096.5999755859</ele>
        <time>2014-07-19T07:46:08.000Z</time>
      </trkpt>
      <trkpt lat="46.58313" lon="6.06514">
        <ele>1097</ele>
        <time>2014-07-19T07:46:15.000Z</time>
      </trkpt>
      <trkpt lat="46.58316" lon="6.06509">
        <ele>1097</ele>
        <time>2014-07-19T07:46:18.000Z</time>
      </trkpt>
      <trkpt lat="46.58321" lon="6.06502">
        <ele>1097.1999511719</ele>
        <time>2014-07-19T07:46:24.000Z</time>
      </trkpt>
      <trkpt lat="46.58325" lon="6.06497">
        <ele>1097.4000244141</ele>
        <time>2014-07-19T07:46:29.000Z</time>
      </trkpt>
      <trkpt lat="46.58334" lon="6.06494">
        <ele>1098</ele>
        <time>2014-07-19T07:46:37.000Z</time>
      </trkpt>
      <trkpt lat="46.5834" lon="6.06497">
        <ele>1098.8000488281</ele>
        <time>2014-07-19T07:46:42.000Z</time>
      </trkpt>
      <trkpt lat="46.58346" lon="6.06501">
        <ele>1099.5999755859</ele>
        <time>2014-07-19T07:46:48.000Z</time>
      </trkpt>
      <trkpt lat="46.58347" lon="6.06501">
        <ele>1099.8000488281</ele>
        <time>2014-07-19T07:46:49.000Z</time>
      </trkpt>
      <trkpt lat="46.5835" lon="6.06503">
        <ele>1100</ele>
        <time>2014-07-19T07:46:51.000Z</time>
      </trkpt>
      <trkpt lat="46.58353" lon="6.06507">
        <ele>1100.4000244141</ele>
        <time>2014-07-19T07:46:55.000Z</time>
      </trkpt>
      <trkpt lat="46.58361" lon="6.06511">
        <ele>1101.5999755859</ele>
        <time>2014-07-19T07:47:03.000Z</time>
      </trkpt>
      <trkpt lat="46.58363" lon="6.06511">
        <ele>1102</ele>
        <time>2014-07-19T07:47:05.000Z</time>
      </trkpt>
      <trkpt lat="46.58368" lon="6.06513">
        <ele>1102.5999755859</ele>
        <time>2014-07-19T07:47:09.000Z</time>
      </trkpt>
      <trkpt lat="46.58376" lon="6.06512">
        <ele>1104</ele>
        <time>2014-07-19T07:47:16.000Z</time>
      </trkpt>
      <trkpt lat="46.58382" lon="6.06513">
        <ele>1105</ele>
        <time>2014-07-19T07:47:21.000Z</time>
      </trkpt>
      <trkpt lat="46.58389" lon="6.06515">
        <ele>1106</ele>
        <time>2014-07-19T07:47:27.000Z</time>
      </trkpt>
      <trkpt lat="46.58396" lon="6.0652">
        <ele>1107</ele>
        <time>2014-07-19T07:47:34.000Z</time>
      </trkpt>
      <trkpt lat="46.58399" lon="6.06522">
        <ele>1107.4000244141</ele>
        <time>2014-07-19T07:47:37.000Z</time>
      </trkpt>
      <trkpt lat="46.58411" lon="6.06525">
        <ele>1107.1999511719</ele>
        <time>2014-07-19T07:47:47.000Z</time>
      </trkpt>
      <trkpt lat="46.5842" lon="6.06524">
        <ele>1106.8000488281</ele>
        <time>2014-07-19T07:47:53.000Z</time>
      </trkpt>
      <trkpt lat="46.58428" lon="6.06524">
        <ele>1106.4000244141</ele>
        <time>2014-07-19T07:47:58.000Z</time>
      </trkpt>
      <trkpt lat="46.58432" lon="6.06522">
        <ele>1106.4000244141</ele>
        <time>2014-07-19T07:48:00.000Z</time>
      </trkpt>
      <trkpt lat="46.58439" lon="6.06512">
        <ele>1106.4000244141</ele>
        <time>2014-07-19T07:48:06.000Z</time>
      </trkpt>
      <trkpt lat="46.58445" lon="6.06503">
        <ele>1106</ele>
        <time>2014-07-19T07:48:11.000Z</time>
      </trkpt>
      <trkpt lat="46.58446" lon="6.06501">
        <ele>1106</ele>
        <time>2014-07-19T07:48:12.000Z</time>
      </trkpt>
      <trkpt lat="46.58454" lon="6.06485">
        <ele>1105.4000244141</ele>
        <time>2014-07-19T07:48:19.000Z</time>
      </trkpt>
      <trkpt lat="46.58456" lon="6.06481">
        <ele>1105.4000244141</ele>
        <time>2014-07-19T07:48:21.000Z</time>
      </trkpt>
      <trkpt lat="46.58464" lon="6.06467">
        <ele>1105.1999511719</ele>
        <time>2014-07-19T07:48:27.000Z</time>
      </trkpt>
      <trkpt lat="46.58466" lon="6.0646">
        <ele>1105.1999511719</ele>
        <time>2014-07-19T07:48:31.000Z</time>
      </trkpt>
      <trkpt lat="46.58464" lon="6.06454">
        <ele>1105.4000244141</ele>
        <time>2014-07-19T07:48:35.000Z</time>
      </trkpt>
      <trkpt lat="46.58464" lon="6.06446">
        <ele>1105.4000244141</ele>
        <time>2014-07-19T07:48:38.000Z</time>
      </trkpt>
      <trkpt lat="46.58465" lon="6.06441">
        <ele>1105.1999511719</ele>
        <time>2014-07-19T07:48:40.000Z</time>
      </trkpt>
      <trkpt lat="46.58467" lon="6.06419">
        <ele>1104.5999755859</ele>
        <time>2014-07-19T07:48:47.000Z</time>
      </trkpt>
      <trkpt lat="46.58471" lon="6.06399">
        <ele>1104</ele>
        <time>2014-07-19T07:48:51.000Z</time>
      </trkpt>
      <trkpt lat="46.58471" lon="6.06372">
        <ele>1104.4000244141</ele>
        <time>2014-07-19T07:48:57.000Z</time>
      </trkpt>
      <trkpt lat="46.58472" lon="6.06359">
        <ele>1104.4000244141</ele>
        <time>2014-07-19T07:49:02.000Z</time>
      </trkpt>
      <trkpt lat="46.58473" lon="6.06352">
        <ele>1104.4000244141</ele>
        <time>2014-07-19T07:49:06.000Z</time>
      </trkpt>
      <trkpt lat="46.58473" lon="6.06346">
        <ele>1104.4000244141</ele>
        <time>2014-07-19T07:49:14.000Z</time>
      </trkpt>
      <trkpt lat="46.58472" lon="6.06334">
        <ele>1104.8000488281</ele>
        <time>2014-07-19T07:49:20.000Z</time>
      </trkpt>
      <trkpt lat="46.58472" lon="6.06319">
        <ele>1104.8000488281</ele>
        <time>2014-07-19T07:49:25.000Z</time>
      </trkpt>
      <trkpt lat="46.58474" lon="6.06306">
        <ele>1104.5999755859</ele>
        <time>2014-07-19T07:49:30.000Z</time>
      </trkpt>
      <trkpt lat="46.58476" lon="6.06292">
        <ele>1103.8000488281</ele>
        <time>2014-07-19T07:49:36.000Z</time>
      </trkpt>
      <trkpt lat="46.58476" lon="6.06289">
        <ele>1103.4000244141</ele>
        <time>2014-07-19T07:49:37.000Z</time>
      </trkpt>
      <trkpt lat="46.58478" lon="6.0626">
        <ele>1101.8000488281</ele>
        <time>2014-07-19T07:49:46.000Z</time>
      </trkpt>
      <trkpt lat="46.58478" lon="6.06243">
        <ele>1101</ele>
        <time>2014-07-19T07:49:51.000Z</time>
      </trkpt>
      <trkpt lat="46.58477" lon="6.06227">
        <ele>1100.4000244141</ele>
        <time>2014-07-19T07:49:56.000Z</time>
      </trkpt>
      <trkpt lat="46.58479" lon="6.06214">
        <ele>1099.4000244141</ele>
        <time>2014-07-19T07:50:00.000Z</time>
      </trkpt>
      <trkpt lat="46.5848" lon="6.06187">
        <ele>1098.5999755859</ele>
        <time>2014-07-19T07:50:06.000Z</time>
      </trkpt>
      <trkpt lat="46.5848" lon="6.06183">
        <ele>1098.5999755859</ele>
        <time>2014-07-19T07:50:07.000Z</time>
      </trkpt>
      <trkpt lat="46.58483" lon="6.06167">
        <ele>1097.8000488281</ele>
        <time>2014-07-19T07:50:13.000Z</time>
      </trkpt>
      <trkpt lat="46.58483" lon="6.06164">
        <ele>1097.5999755859</ele>
        <time>2014-07-19T07:50:14.000Z</time>
      </trkpt>
      <trkpt lat="46.58484" lon="6.06158">
        <ele>1097.4000244141</ele>
        <time>2014-07-19T07:50:16.000Z</time>
      </trkpt>
      <trkpt lat="46.5849" lon="6.06142">
        <ele>1096</ele>
        <time>2014-07-19T07:50:23.000Z</time>
      </trkpt>
      <trkpt lat="46.58491" lon="6.06137">
        <ele>1095.8000488281</ele>
        <time>2014-07-19T07:50:25.000Z</time>
      </trkpt>
      <trkpt lat="46.58496" lon="6.06122">
        <ele>1094.5999755859</ele>
        <time>2014-07-19T07:50:31.000Z</time>
      </trkpt>
      <trkpt lat="46.58496" lon="6.0612">
        <ele>1094.5999755859</ele>
        <time>2014-07-19T07:50:32.000Z</time>
      </trkpt>
      <trkpt lat="46.58497" lon="6.06105">
        <ele>1094.1999511719</ele>
        <time>2014-07-19T07:50:36.000Z</time>
      </trkpt>
      <trkpt lat="46.58497" lon="6.06081">
        <ele>1094</ele>
        <time>2014-07-19T07:50:42.000Z</time>
      </trkpt>
      <trkpt lat="46.58498" lon="6.06058">
        <ele>1093.5999755859</ele>
        <time>2014-07-19T07:50:48.000Z</time>
      </trkpt>
      <trkpt lat="46.58503" lon="6.06034">
        <ele>1091.5999755859</ele>
        <time>2014-07-19T07:50:55.000Z</time>
      </trkpt>
      <trkpt lat="46.58507" lon="6.0602">
        <ele>1090</ele>
        <time>2014-07-19T07:50:59.000Z</time>
      </trkpt>
      <trkpt lat="46.58511" lon="6.06015">
        <ele>1089.1999511719</ele>
        <time>2014-07-19T07:51:01.000Z</time>
      </trkpt>
      <trkpt lat="46.58514" lon="6.0601">
        <ele>1088.4000244141</ele>
        <time>2014-07-19T07:51:03.000Z</time>
      </trkpt>
      <trkpt lat="46.58528" lon="6.06005">
        <ele>1087.4000244141</ele>
        <time>2014-07-19T07:51:10.000Z</time>
      </trkpt>
      <trkpt lat="46.58537" lon="6.06005">
        <ele>1086.8000488281</ele>
        <time>2014-07-19T07:51:15.000Z</time>
      </trkpt>
      <trkpt lat="46.58545" lon="6.06007">
        <ele>1086.1999511719</ele>
        <time>2014-07-19T07:51:19.000Z</time>
      </trkpt>
      <trkpt lat="46.5855" lon="6.06009">
        <ele>1085.8000488281</ele>
        <time>2014-07-19T07:51:21.000Z</time>
      </trkpt>
      <trkpt lat="46.58565" lon="6.06026">
        <ele>1083.5999755859</ele>
        <time>2014-07-19T07:51:28.000Z</time>
      </trkpt>
      <trkpt lat="46.58577" lon="6.06043">
        <ele>1082.5999755859</ele>
        <time>2014-07-19T07:51:33.000Z</time>
      </trkpt>
      <trkpt lat="46.58587" lon="6.06052">
        <ele>1082.5999755859</ele>
        <time>2014-07-19T07:51:38.000Z</time>
      </trkpt>
      <trkpt lat="46.58601" lon="6.06056">
        <ele>1083.1999511719</ele>
        <time>2014-07-19T07:51:43.000Z</time>
      </trkpt>
      <trkpt lat="46.58618" lon="6.06069">
        <ele>1084</ele>
        <time>2014-07-19T07:51:48.000Z</time>
      </trkpt>
      <trkpt lat="46.58637" lon="6.06079">
        <ele>1085.1999511719</ele>
        <time>2014-07-19T07:51:54.000Z</time>
      </trkpt>
      <trkpt lat="46.58645" lon="6.06081">
        <ele>1085.5999755859</ele>
        <time>2014-07-19T07:51:59.000Z</time>
      </trkpt>
      <trkpt lat="46.58657" lon="6.06084">
        <ele>1086.4000244141</ele>
        <time>2014-07-19T07:52:06.000Z</time>
      </trkpt>
      <trkpt lat="46.58669" lon="6.06085">
        <ele>1087.1999511719</ele>
        <time>2014-07-19T07:52:12.000Z</time>
      </trkpt>
      <trkpt lat="46.58683" lon="6.06093">
        <ele>1088.1999511719</ele>
        <time>2014-07-19T07:52:16.000Z</time>
      </trkpt>
      <trkpt lat="46.58698" lon="6.06109">
        <ele>1089.4000244141</ele>
        <time>2014-07-19T07:52:20.000Z</time>
      </trkpt>
      <trkpt lat="46.58711" lon="6.06128">
        <ele>1090.1999511719</ele>
        <time>2014-07-19T07:52:25.000Z</time>
      </trkpt>
      <trkpt lat="46.58719" lon="6.06146">
        <ele>1091</ele>
        <time>2014-07-19T07:52:31.000Z</time>
      </trkpt>
      <trkpt lat="46.58729" lon="6.06164">
        <ele>1092.1999511719</ele>
        <time>2014-07-19T07:52:39.000Z</time>
      </trkpt>
      <trkpt lat="46.5874" lon="6.06183">
        <ele>1093.4000244141</ele>
        <time>2014-07-19T07:52:47.000Z</time>
      </trkpt>
      <trkpt lat="46.58749" lon="6.06202">
        <ele>1094.8000488281</ele>
        <time>2014-07-19T07:52:55.000Z</time>
      </trkpt>
      <trkpt lat="46.58756" lon="6.06216">
        <ele>1095.8000488281</ele>
        <time>2014-07-19T07:53:02.000Z</time>
      </trkpt>
      <trkpt lat="46.58765" lon="6.06226">
        <ele>1097</ele>
        <time>2014-07-19T07:53:09.000Z</time>
      </trkpt>
      <trkpt lat="46.58769" lon="6.06229">
        <ele>1097.1999511719</ele>
        <time>2014-07-19T07:53:12.000Z</time>
      </trkpt>
      <trkpt lat="46.58779" lon="6.06237">
        <ele>1098.1999511719</ele>
        <time>2014-07-19T07:53:20.000Z</time>
      </trkpt>
      <trkpt lat="46.58785" lon="6.06241">
        <ele>1098.5999755859</ele>
        <time>2014-07-19T07:53:26.000Z</time>
      </trkpt>
      <trkpt lat="46.58791" lon="6.06245">
        <ele>1099.1999511719</ele>
        <time>2014-07-19T07:53:32.000Z</time>
      </trkpt>
      <trkpt lat="46.58793" lon="6.06247">
        <ele>1099.4000244141</ele>
        <time>2014-07-19T07:53:35.000Z</time>
      </trkpt>
      <trkpt lat="46.58799" lon="6.06251">
        <ele>1099.8000488281</ele>
        <time>2014-07-19T07:53:42.000Z</time>
      </trkpt>
      <trkpt lat="46.58802" lon="6.06255">
        <ele>1100</ele>
        <time>2014-07-19T07:53:45.000Z</time>
      </trkpt>
      <trkpt lat="46.58809" lon="6.06258">
        <ele>1100.8000488281</ele>
        <time>2014-07-19T07:53:51.000Z</time>
      </trkpt>
      <trkpt lat="46.58816" lon="6.06261">
        <ele>1101.4000244141</ele>
        <time>2014-07-19T07:53:57.000Z</time>
      </trkpt>
      <trkpt lat="46.5882" lon="6.06263">
        <ele>1101.5999755859</ele>
        <time>2014-07-19T07:53:59.000Z</time>
      </trkpt>
      <trkpt lat="46.58826" lon="6.06266">
        <ele>1101.8000488281</ele>
        <time>2014-07-19T07:54:04.000Z</time>
      </trkpt>
      <trkpt lat="46.58835" lon="6.06271">
        <ele>1102.1999511719</ele>
        <time>2014-07-19T07:54:11.000Z</time>
      </trkpt>
      <trkpt lat="46.58837" lon="6.06272">
        <ele>1102.4000244141</ele>
        <time>2014-07-19T07:54:12.000Z</time>
      </trkpt>
      <trkpt lat="46.58846" lon="6.06276">
        <ele>1102.8000488281</ele>
        <time>2014-07-19T07:54:18.000Z</time>
      </trkpt>
      <trkpt lat="46.58855" lon="6.0628">
        <ele>1103.1999511719</ele>
        <time>2014-07-19T07:54:25.000Z</time>
      </trkpt>
      <trkpt lat="46.58863" lon="6.06285">
        <ele>1103.4000244141</ele>
        <time>2014-07-19T07:54:31.000Z</time>
      </trkpt>
      <trkpt lat="46.58873" lon="6.0629">
        <ele>1103.8000488281</ele>
        <time>2014-07-19T07:54:37.000Z</time>
      </trkpt>
      <trkpt lat="46.58879" lon="6.06291">
        <ele>1104.1999511719</ele>
        <time>2014-07-19T07:54:40.000Z</time>
      </trkpt>
      <trkpt lat="46.58893" lon="6.06294">
        <ele>1105</ele>
        <time>2014-07-19T07:54:46.000Z</time>
      </trkpt>
      <trkpt lat="46.5891" lon="6.06295">
        <ele>1105.5999755859</ele>
        <time>2014-07-19T07:54:52.000Z</time>
      </trkpt>
      <trkpt lat="46.58927" lon="6.06298">
        <ele>1105.8000488281</ele>
        <time>2014-07-19T07:54:58.000Z</time>
      </trkpt>
      <trkpt lat="46.58945" lon="6.063">
        <ele>1105.8000488281</ele>
        <time>2014-07-19T07:55:04.000Z</time>
      </trkpt>
      <trkpt lat="46.58966" lon="6.06303">
        <ele>1106</ele>
        <time>2014-07-19T07:55:09.000Z</time>
      </trkpt>
      <trkpt lat="46.58984" lon="6.06304">
        <ele>1106.4000244141</ele>
        <time>2014-07-19T07:55:13.000Z</time>
      </trkpt>
      <trkpt lat="46.58989" lon="6.06304">
        <ele>1106.4000244141</ele>
        <time>2014-07-19T07:55:14.000Z</time>
      </trkpt>
      <trkpt lat="46.59008" lon="6.06312">
        <ele>1106.8000488281</ele>
        <time>2014-07-19T07:55:18.000Z</time>
      </trkpt>
      <trkpt lat="46.59016" lon="6.06317">
        <ele>1107</ele>
        <time>2014-07-19T07:55:20.000Z</time>
      </trkpt>
      <trkpt lat="46.59033" lon="6.06341">
        <ele>1107</ele>
        <time>2014-07-19T07:55:26.000Z</time>
      </trkpt>
      <trkpt lat="46.59035" lon="6.06345">
        <ele>1107</ele>
        <time>2014-07-19T07:55:27.000Z</time>
      </trkpt>
      <trkpt lat="46.59047" lon="6.06375">
        <ele>1106.8000488281</ele>
        <time>2014-07-19T07:55:34.000Z</time>
      </trkpt>
      <trkpt lat="46.59056" lon="6.06398">
        <ele>1106.8000488281</ele>
        <time>2014-07-19T07:55:39.000Z</time>
      </trkpt>
      <trkpt lat="46.59065" lon="6.06416">
        <ele>1106.4000244141</ele>
        <time>2014-07-19T07:55:44.000Z</time>
      </trkpt>
      <trkpt lat="46.59081" lon="6.06435">
        <ele>1105.5999755859</ele>
        <time>2014-07-19T07:55:51.000Z</time>
      </trkpt>
      <trkpt lat="46.59095" lon="6.0645">
        <ele>1104.5999755859</ele>
        <time>2014-07-19T07:55:57.000Z</time>
      </trkpt>
      <trkpt lat="46.59113" lon="6.06464">
        <ele>1103.5999755859</ele>
        <time>2014-07-19T07:56:04.000Z</time>
      </trkpt>
      <trkpt lat="46.59127" lon="6.06486">
        <ele>1103.4000244141</ele>
        <time>2014-07-19T07:56:09.000Z</time>
      </trkpt>
      <trkpt lat="46.59134" lon="6.06516">
        <ele>1104.5999755859</ele>
        <time>2014-07-19T07:56:13.000Z</time>
      </trkpt>
      <trkpt lat="46.59135" lon="6.06523">
        <ele>1104.8000488281</ele>
        <time>2014-07-19T07:56:14.000Z</time>
      </trkpt>
      <trkpt lat="46.59142" lon="6.06549">
        <ele>1105.8000488281</ele>
        <time>2014-07-19T07:56:18.000Z</time>
      </trkpt>
      <trkpt lat="46.59154" lon="6.06566">
        <ele>1106.5999755859</ele>
        <time>2014-07-19T07:56:22.000Z</time>
      </trkpt>
      <trkpt lat="46.59161" lon="6.0657">
        <ele>1106.5999755859</ele>
        <time>2014-07-19T07:56:24.000Z</time>
      </trkpt>
      <trkpt lat="46.59168" lon="6.06572">
        <ele>1106.8000488281</ele>
        <time>2014-07-19T07:56:26.000Z</time>
      </trkpt>
      <trkpt lat="46.59187" lon="6.06583">
        <ele>1107.4000244141</ele>
        <time>2014-07-19T07:56:33.000Z</time>
      </trkpt>
      <trkpt lat="46.59197" lon="6.06595">
        <ele>1108</ele>
        <time>2014-07-19T07:56:39.000Z</time>
      </trkpt>
      <trkpt lat="46.59208" lon="6.06613">
        <ele>1108.5999755859</ele>
        <time>2014-07-19T07:56:47.000Z</time>
      </trkpt>
      <trkpt lat="46.5922" lon="6.06629">
        <ele>1109.4000244141</ele>
        <time>2014-07-19T07:56:54.000Z</time>
      </trkpt>
      <trkpt lat="46.59221" lon="6.06632">
        <ele>1109.5999755859</ele>
        <time>2014-07-19T07:56:55.000Z</time>
      </trkpt>
      <trkpt lat="46.59232" lon="6.0664">
        <ele>1110</ele>
        <time>2014-07-19T07:57:00.000Z</time>
      </trkpt>
      <trkpt lat="46.59234" lon="6.06642">
        <ele>1110</ele>
        <time>2014-07-19T07:57:01.000Z</time>
      </trkpt>
      <trkpt lat="46.59247" lon="6.06652">
        <ele>1111</ele>
        <time>2014-07-19T07:57:07.000Z</time>
      </trkpt>
      <trkpt lat="46.59264" lon="6.06661">
        <ele>1112.1999511719</ele>
        <time>2014-07-19T07:57:15.000Z</time>
      </trkpt>
      <trkpt lat="46.59279" lon="6.06666">
        <ele>1113</ele>
        <time>2014-07-19T07:57:23.000Z</time>
      </trkpt>
      <trkpt lat="46.59294" lon="6.06671">
        <ele>1113.8000488281</ele>
        <time>2014-07-19T07:57:32.000Z</time>
      </trkpt>
      <trkpt lat="46.59309" lon="6.06665">
        <ele>1114</ele>
        <time>2014-07-19T07:57:42.000Z</time>
      </trkpt>
      <trkpt lat="46.59311" lon="6.06662">
        <ele>1114</ele>
        <time>2014-07-19T07:57:44.000Z</time>
      </trkpt>
      <trkpt lat="46.59316" lon="6.06658">
        <ele>1113.8000488281</ele>
        <time>2014-07-19T07:57:48.000Z</time>
      </trkpt>
      <trkpt lat="46.59328" lon="6.06651">
        <ele>1114</ele>
        <time>2014-07-19T07:57:57.000Z</time>
      </trkpt>
      <trkpt lat="46.59337" lon="6.0665">
        <ele>1115.1999511719</ele>
        <time>2014-07-19T07:58:03.000Z</time>
      </trkpt>
      <trkpt lat="46.59346" lon="6.0665">
        <ele>1116.1999511719</ele>
        <time>2014-07-19T07:58:09.000Z</time>
      </trkpt>
      <trkpt lat="46.59355" lon="6.06656">
        <ele>1117.1999511719</ele>
        <time>2014-07-19T07:58:16.000Z</time>
      </trkpt>
      <trkpt lat="46.59363" lon="6.06663">
        <ele>1118.1999511719</ele>
        <time>2014-07-19T07:58:23.000Z</time>
      </trkpt>
      <trkpt lat="46.59373" lon="6.06673">
        <ele>1119.1999511719</ele>
        <time>2014-07-19T07:58:31.000Z</time>
      </trkpt>
      <trkpt lat="46.59385" lon="6.06687">
        <ele>1120.4000244141</ele>
        <time>2014-07-19T07:58:41.000Z</time>
      </trkpt>
      <trkpt lat="46.5939" lon="6.06693">
        <ele>1121</ele>
        <time>2014-07-19T07:58:46.000Z</time>
      </trkpt>
      <trkpt lat="46.59399" lon="6.06704">
        <ele>1122</ele>
        <time>2014-07-19T07:58:54.000Z</time>
      </trkpt>
      <trkpt lat="46.59402" lon="6.06715">
        <ele>1122.1999511719</ele>
        <time>2014-07-19T07:59:01.000Z</time>
      </trkpt>
      <trkpt lat="46.59405" lon="6.06729">
        <ele>1121.4000244141</ele>
        <time>2014-07-19T07:59:07.000Z</time>
      </trkpt>
      <trkpt lat="46.59407" lon="6.06741">
        <ele>1120.5999755859</ele>
        <time>2014-07-19T07:59:13.000Z</time>
      </trkpt>
      <trkpt lat="46.59406" lon="6.06755">
        <ele>1120</ele>
        <time>2014-07-19T07:59:19.000Z</time>
      </trkpt>
      <trkpt lat="46.59404" lon="6.06773">
        <ele>1119.4000244141</ele>
        <time>2014-07-19T07:59:23.000Z</time>
      </trkpt>
      <trkpt lat="46.594" lon="6.06803">
        <ele>1118.1999511719</ele>
        <time>2014-07-19T07:59:28.000Z</time>
      </trkpt>
      <trkpt lat="46.59405" lon="6.06822">
        <ele>1117.8000488281</ele>
        <time>2014-07-19T07:59:32.000Z</time>
      </trkpt>
      <trkpt lat="46.59408" lon="6.06826">
        <ele>1117.4000244141</ele>
        <time>2014-07-19T07:59:33.000Z</time>
      </trkpt>
      <trkpt lat="46.59423" lon="6.06842">
        <ele>1115</ele>
        <time>2014-07-19T07:59:38.000Z</time>
      </trkpt>
      <trkpt lat="46.59443" lon="6.06855">
        <ele>1111.5999755859</ele>
        <time>2014-07-19T07:59:43.000Z</time>
      </trkpt>
      <trkpt lat="46.59459" lon="6.06855">
        <ele>1109.4000244141</ele>
        <time>2014-07-19T07:59:48.000Z</time>
      </trkpt>
      <trkpt lat="46.59473" lon="6.06845">
        <ele>1108.1999511719</ele>
        <time>2014-07-19T07:59:54.000Z</time>
      </trkpt>
      <trkpt lat="46.59489" lon="6.0683">
        <ele>1106.8000488281</ele>
        <time>2014-07-19T08:00:00.000Z</time>
      </trkpt>
      <trkpt lat="46.59505" lon="6.06817">
        <ele>1105.5999755859</ele>
        <time>2014-07-19T08:00:05.000Z</time>
      </trkpt>
      <trkpt lat="46.59512" lon="6.06811">
        <ele>1105</ele>
        <time>2014-07-19T08:00:08.000Z</time>
      </trkpt>
      <trkpt lat="46.59529" lon="6.06796">
        <ele>1105</ele>
        <time>2014-07-19T08:00:14.000Z</time>
      </trkpt>
      <trkpt lat="46.59543" lon="6.0678">
        <ele>1105.4000244141</ele>
        <time>2014-07-19T08:00:19.000Z</time>
      </trkpt>
      <trkpt lat="46.59554" lon="6.06765">
        <ele>1104.5999755859</ele>
        <time>2014-07-19T08:00:24.000Z</time>
      </trkpt>
      <trkpt lat="46.59559" lon="6.06757">
        <ele>1104.4000244141</ele>
        <time>2014-07-19T08:00:27.000Z</time>
      </trkpt>
      <trkpt lat="46.59571" lon="6.06742">
        <ele>1104</ele>
        <time>2014-07-19T08:00:32.000Z</time>
      </trkpt>
      <trkpt lat="46.59572" lon="6.06739">
        <ele>1104.1999511719</ele>
        <time>2014-07-19T08:00:33.000Z</time>
      </trkpt>
      <trkpt lat="46.59584" lon="6.06718">
        <ele>1106.4000244141</ele>
        <time>2014-07-19T08:00:39.000Z</time>
      </trkpt>
      <trkpt lat="46.59591" lon="6.06711">
        <ele>1107.5999755859</ele>
        <time>2014-07-19T08:00:42.000Z</time>
      </trkpt>
      <trkpt lat="46.59609" lon="6.06712">
        <ele>1107.8000488281</ele>
        <time>2014-07-19T08:00:47.000Z</time>
      </trkpt>
      <trkpt lat="46.59612" lon="6.06715">
        <ele>1107.4000244141</ele>
        <time>2014-07-19T08:00:48.000Z</time>
      </trkpt>
      <trkpt lat="46.59619" lon="6.0673">
        <ele>1106</ele>
        <time>2014-07-19T08:00:53.000Z</time>
      </trkpt>
      <trkpt lat="46.5962" lon="6.06737">
        <ele>1105.8000488281</ele>
        <time>2014-07-19T08:00:56.000Z</time>
      </trkpt>
      <trkpt lat="46.59621" lon="6.06741">
        <ele>1105.5999755859</ele>
        <time>2014-07-19T08:00:58.000Z</time>
      </trkpt>
      <trkpt lat="46.59626" lon="6.0675">
        <ele>1105.1999511719</ele>
        <time>2014-07-19T08:01:03.000Z</time>
      </trkpt>
      <trkpt lat="46.59627" lon="6.06753">
        <ele>1105</ele>
        <time>2014-07-19T08:01:04.000Z</time>
      </trkpt>
      <trkpt lat="46.5963" lon="6.06768">
        <ele>1104.4000244141</ele>
        <time>2014-07-19T08:01:10.000Z</time>
      </trkpt>
      <trkpt lat="46.5963" lon="6.06782">
        <ele>1103.8000488281</ele>
        <time>2014-07-19T08:01:17.000Z</time>
      </trkpt>
      <trkpt lat="46.59631" lon="6.06792">
        <ele>1103.1999511719</ele>
        <time>2014-07-19T08:01:21.000Z</time>
      </trkpt>
      <trkpt lat="46.59632" lon="6.06808">
        <ele>1102.1999511719</ele>
        <time>2014-07-19T08:01:27.000Z</time>
      </trkpt>
      <trkpt lat="46.59632" lon="6.06812">
        <ele>1101.8000488281</ele>
        <time>2014-07-19T08:01:28.000Z</time>
      </trkpt>
      <trkpt lat="46.5963" lon="6.06827">
        <ele>1100.5999755859</ele>
        <time>2014-07-19T08:01:33.000Z</time>
      </trkpt>
      <trkpt lat="46.59626" lon="6.06843">
        <ele>1099.4000244141</ele>
        <time>2014-07-19T08:01:38.000Z</time>
      </trkpt>
      <trkpt lat="46.5962" lon="6.06863">
        <ele>1097.8000488281</ele>
        <time>2014-07-19T08:01:44.000Z</time>
      </trkpt>
      <trkpt lat="46.59624" lon="6.06896">
        <ele>1096.4000244141</ele>
        <time>2014-07-19T08:01:53.000Z</time>
      </trkpt>
      <trkpt lat="46.59635" lon="6.06909">
        <ele>1095.8000488281</ele>
        <time>2014-07-19T08:01:59.000Z</time>
      </trkpt>
      <trkpt lat="46.59647" lon="6.06914">
        <ele>1095.5999755859</ele>
        <time>2014-07-19T08:02:05.000Z</time>
      </trkpt>
      <trkpt lat="46.59661" lon="6.06913">
        <ele>1095.5999755859</ele>
        <time>2014-07-19T08:02:11.000Z</time>
      </trkpt>
      <trkpt lat="46.59673" lon="6.06911">
        <ele>1096</ele>
        <time>2014-07-19T08:02:16.000Z</time>
      </trkpt>
      <trkpt lat="46.59683" lon="6.06915">
        <ele>1096.1999511719</ele>
        <time>2014-07-19T08:02:21.000Z</time>
      </trkpt>
      <trkpt lat="46.59698" lon="6.06925">
        <ele>1095.8000488281</ele>
        <time>2014-07-19T08:02:27.000Z</time>
      </trkpt>
      <trkpt lat="46.5971" lon="6.06938">
        <ele>1094.8000488281</ele>
        <time>2014-07-19T08:02:32.000Z</time>
      </trkpt>
      <trkpt lat="46.59724" lon="6.06955">
        <ele>1093.4000244141</ele>
        <time>2014-07-19T08:02:38.000Z</time>
      </trkpt>
      <trkpt lat="46.59734" lon="6.06961">
        <ele>1093.4000244141</ele>
        <time>2014-07-19T08:02:42.000Z</time>
      </trkpt>
      <trkpt lat="46.59746" lon="6.06968">
        <ele>1092.4000244141</ele>
        <time>2014-07-19T08:02:48.000Z</time>
      </trkpt>
      <trkpt lat="46.5976" lon="6.06976">
        <ele>1091.4000244141</ele>
        <time>2014-07-19T08:02:55.000Z</time>
      </trkpt>
      <trkpt lat="46.59778" lon="6.06988">
        <ele>1090.1999511719</ele>
        <time>2014-07-19T08:03:04.000Z</time>
      </trkpt>
      <trkpt lat="46.59782" lon="6.06997">
        <ele>1089.4000244141</ele>
        <time>2014-07-19T08:03:09.000Z</time>
      </trkpt>
      <trkpt lat="46.59779" lon="6.07007">
        <ele>1088.1999511719</ele>
        <time>2014-07-19T08:03:26.000Z</time>
      </trkpt>
      <trkpt lat="46.59771" lon="6.07023">
        <ele>1086.8000488281</ele>
        <time>2014-07-19T08:03:31.000Z</time>
      </trkpt>
      <trkpt lat="46.59761" lon="6.07034">
        <ele>1086.1999511719</ele>
        <time>2014-07-19T08:03:37.000Z</time>
      </trkpt>
      <trkpt lat="46.59749" lon="6.07054">
        <ele>1085</ele>
        <time>2014-07-19T08:03:46.000Z</time>
      </trkpt>
      <trkpt lat="46.59739" lon="6.07068">
        <ele>1084.8000488281</ele>
        <time>2014-07-19T08:03:53.000Z</time>
      </trkpt>
      <trkpt lat="46.59727" lon="6.07086">
        <ele>1086</ele>
        <time>2014-07-19T08:04:02.000Z</time>
      </trkpt>
      <trkpt lat="46.59713" lon="6.07105">
        <ele>1087.1999511719</ele>
        <time>2014-07-19T08:04:12.000Z</time>
      </trkpt>
      <trkpt lat="46.59705" lon="6.07116">
        <ele>1088</ele>
        <time>2014-07-19T08:04:20.000Z</time>
      </trkpt>
      <trkpt lat="46.59697" lon="6.07126">
        <ele>1089</ele>
        <time>2014-07-19T08:04:27.000Z</time>
      </trkpt>
      <trkpt lat="46.5969" lon="6.07139">
        <ele>1090.1999511719</ele>
        <time>2014-07-19T08:04:35.000Z</time>
      </trkpt>
      <trkpt lat="46.59681" lon="6.07158">
        <ele>1091</ele>
        <time>2014-07-19T08:04:45.000Z</time>
      </trkpt>
      <trkpt lat="46.59671" lon="6.07181">
        <ele>1092.4000244141</ele>
        <time>2014-07-19T08:04:56.000Z</time>
      </trkpt>
      <trkpt lat="46.59662" lon="6.07202">
        <ele>1094</ele>
        <time>2014-07-19T08:05:06.000Z</time>
      </trkpt>
      <trkpt lat="46.59652" lon="6.07225">
        <ele>1095.8000488281</ele>
        <time>2014-07-19T08:05:16.000Z</time>
      </trkpt>
      <trkpt lat="46.59644" lon="6.07245">
        <ele>1097.4000244141</ele>
        <time>2014-07-19T08:05:25.000Z</time>
      </trkpt>
      <trkpt lat="46.59637" lon="6.0726">
        <ele>1098.5999755859</ele>
        <time>2014-07-19T08:05:32.000Z</time>
      </trkpt>
      <trkpt lat="46.59628" lon="6.07283">
        <ele>1100.5999755859</ele>
        <time>2014-07-19T08:05:42.000Z</time>
      </trkpt>
      <trkpt lat="46.59619" lon="6.07307">
        <ele>1101.1999511719</ele>
        <time>2014-07-19T08:05:52.000Z</time>
      </trkpt>
      <trkpt lat="46.59609" lon="6.0733">
        <ele>1102.4000244141</ele>
        <time>2014-07-19T08:06:01.000Z</time>
      </trkpt>
      <trkpt lat="46.59599" lon="6.07354">
        <ele>1103.8000488281</ele>
        <time>2014-07-19T08:06:11.000Z</time>
      </trkpt>
      <trkpt lat="46.59588" lon="6.07372">
        <ele>1105.4000244141</ele>
        <time>2014-07-19T08:06:19.000Z</time>
      </trkpt>
      <trkpt lat="46.59576" lon="6.0739">
        <ele>1107.1999511719</ele>
        <time>2014-07-19T08:06:28.000Z</time>
      </trkpt>
      <trkpt lat="46.59568" lon="6.07407">
        <ele>1108.4000244141</ele>
        <time>2014-07-19T08:06:36.000Z</time>
      </trkpt>
      <trkpt lat="46.59565" lon="6.07422">
        <ele>1109</ele>
        <time>2014-07-19T08:06:42.000Z</time>
      </trkpt>
      <trkpt lat="46.59567" lon="6.0743">
        <ele>1109</ele>
        <time>2014-07-19T08:06:46.000Z</time>
      </trkpt>
      <trkpt lat="46.59571" lon="6.07435">
        <ele>1108.5999755859</ele>
        <time>2014-07-19T08:06:50.000Z</time>
      </trkpt>
      <trkpt lat="46.59579" lon="6.07439">
        <ele>1107.4000244141</ele>
        <time>2014-07-19T08:06:55.000Z</time>
      </trkpt>
      <trkpt lat="46.59594" lon="6.07442">
        <ele>1105</ele>
        <time>2014-07-19T08:07:01.000Z</time>
      </trkpt>
      <trkpt lat="46.59601" lon="6.07449">
        <ele>1103.8000488281</ele>
        <time>2014-07-19T08:07:04.000Z</time>
      </trkpt>
      <trkpt lat="46.59621" lon="6.07471">
        <ele>1101</ele>
        <time>2014-07-19T08:07:10.000Z</time>
      </trkpt>
      <trkpt lat="46.59641" lon="6.07484">
        <ele>1097.8000488281</ele>
        <time>2014-07-19T08:07:14.000Z</time>
      </trkpt>
      <trkpt lat="46.59662" lon="6.07495">
        <ele>1094.8000488281</ele>
        <time>2014-07-19T08:07:18.000Z</time>
      </trkpt>
      <trkpt lat="46.59683" lon="6.07507">
        <ele>1092.5999755859</ele>
        <time>2014-07-19T08:07:22.000Z</time>
      </trkpt>
      <trkpt lat="46.59702" lon="6.07518">
        <ele>1090.5999755859</ele>
        <time>2014-07-19T08:07:26.000Z</time>
      </trkpt>
      <trkpt lat="46.59723" lon="6.07529">
        <ele>1088.4000244141</ele>
        <time>2014-07-19T08:07:30.000Z</time>
      </trkpt>
      <trkpt lat="46.59739" lon="6.07537">
        <ele>1086.5999755859</ele>
        <time>2014-07-19T08:07:33.000Z</time>
      </trkpt>
      <trkpt lat="46.59761" lon="6.07553">
        <ele>1084.1999511719</ele>
        <time>2014-07-19T08:07:37.000Z</time>
      </trkpt>
      <trkpt lat="46.59778" lon="6.07563">
        <ele>1082.1999511719</ele>
        <time>2014-07-19T08:07:40.000Z</time>
      </trkpt>
      <trkpt lat="46.59796" lon="6.07571">
        <ele>1080.1999511719</ele>
        <time>2014-07-19T08:07:43.000Z</time>
      </trkpt>
      <trkpt lat="46.59814" lon="6.07578">
        <ele>1078</ele>
        <time>2014-07-19T08:07:46.000Z</time>
      </trkpt>
      <trkpt lat="46.59832" lon="6.07583">
        <ele>1076</ele>
        <time>2014-07-19T08:07:49.000Z</time>
      </trkpt>
      <trkpt lat="46.59865" lon="6.07583">
        <ele>1072.5999755859</ele>
        <time>2014-07-19T08:07:54.000Z</time>
      </trkpt>
      <trkpt lat="46.59884" lon="6.07583">
        <ele>1070.5999755859</ele>
        <time>2014-07-19T08:07:57.000Z</time>
      </trkpt>
      <trkpt lat="46.59903" lon="6.07585">
        <ele>1068.5999755859</ele>
        <time>2014-07-19T08:08:00.000Z</time>
      </trkpt>
      <trkpt lat="46.59914" lon="6.07586">
        <ele>1068</ele>
        <time>2014-07-19T08:08:02.000Z</time>
      </trkpt>
      <trkpt lat="46.5994" lon="6.076">
        <ele>1066.1999511719</ele>
        <time>2014-07-19T08:08:07.000Z</time>
      </trkpt>
      <trkpt lat="46.59949" lon="6.07605">
        <ele>1065.5999755859</ele>
        <time>2014-07-19T08:08:09.000Z</time>
      </trkpt>
      <trkpt lat="46.59974" lon="6.07618">
        <ele>1063.8000488281</ele>
        <time>2014-07-19T08:08:14.000Z</time>
      </trkpt>
      <trkpt lat="46.59993" lon="6.07629">
        <ele>1062.4000244141</ele>
        <time>2014-07-19T08:08:18.000Z</time>
      </trkpt>
      <trkpt lat="46.59997" lon="6.07632">
        <ele>1062</ele>
        <time>2014-07-19T08:08:19.000Z</time>
      </trkpt>
      <trkpt lat="46.60017" lon="6.07648">
        <ele>1060.4000244141</ele>
        <time>2014-07-19T08:08:24.000Z</time>
      </trkpt>
      <trkpt lat="46.60021" lon="6.07652">
        <ele>1060.1999511719</ele>
        <time>2014-07-19T08:08:25.000Z</time>
      </trkpt>
      <trkpt lat="46.60029" lon="6.07661">
        <ele>1059.5999755859</ele>
        <time>2014-07-19T08:08:27.000Z</time>
      </trkpt>
      <trkpt lat="46.60046" lon="6.07688">
        <ele>1058.4000244141</ele>
        <time>2014-07-19T08:08:32.000Z</time>
      </trkpt>
      <trkpt lat="46.60056" lon="6.07711">
        <ele>1057.8000488281</ele>
        <time>2014-07-19T08:08:35.000Z</time>
      </trkpt>
      <trkpt lat="46.60069" lon="6.07748">
        <ele>1058.1999511719</ele>
        <time>2014-07-19T08:08:40.000Z</time>
      </trkpt>
      <trkpt lat="46.6007" lon="6.07753">
        <ele>1058.4000244141</ele>
        <time>2014-07-19T08:08:41.000Z</time>
      </trkpt>
      <trkpt lat="46.60072" lon="6.07764">
        <ele>1059</ele>
        <time>2014-07-19T08:08:45.000Z</time>
      </trkpt>
      <trkpt lat="46.60069" lon="6.07781">
        <ele>1060.1999511719</ele>
        <time>2014-07-19T08:08:53.000Z</time>
      </trkpt>
      <trkpt lat="46.60067" lon="6.07787">
        <ele>1060.8000488281</ele>
        <time>2014-07-19T08:08:55.000Z</time>
      </trkpt>
      <trkpt lat="46.60059" lon="6.07815">
        <ele>1062.5999755859</ele>
        <time>2014-07-19T08:09:02.000Z</time>
      </trkpt>
      <trkpt lat="46.60051" lon="6.07839">
        <ele>1062.5999755859</ele>
        <time>2014-07-19T08:09:07.000Z</time>
      </trkpt>
      <trkpt lat="46.60041" lon="6.07861">
        <ele>1062.8000488281</ele>
        <time>2014-07-19T08:09:12.000Z</time>
      </trkpt>
      <trkpt lat="46.60034" lon="6.07885">
        <ele>1063.8000488281</ele>
        <time>2014-07-19T08:09:17.000Z</time>
      </trkpt>
      <trkpt lat="46.60034" lon="6.07917">
        <ele>1063.5999755859</ele>
        <time>2014-07-19T08:09:23.000Z</time>
      </trkpt>
      <trkpt lat="46.60034" lon="6.07948">
        <ele>1062.8000488281</ele>
        <time>2014-07-19T08:09:28.000Z</time>
      </trkpt>
      <trkpt lat="46.6003" lon="6.07978">
        <ele>1063</ele>
        <time>2014-07-19T08:09:33.000Z</time>
      </trkpt>
      <trkpt lat="46.60029" lon="6.07983">
        <ele>1062.8000488281</ele>
        <time>2014-07-19T08:09:34.000Z</time>
      </trkpt>
      <trkpt lat="46.60032" lon="6.08018">
        <ele>1060.8000488281</ele>
        <time>2014-07-19T08:09:40.000Z</time>
      </trkpt>
      <trkpt lat="46.60032" lon="6.08023">
        <ele>1060.5999755859</ele>
        <time>2014-07-19T08:09:41.000Z</time>
      </trkpt>
      <trkpt lat="46.60033" lon="6.08039">
        <ele>1060.1999511719</ele>
        <time>2014-07-19T08:09:44.000Z</time>
      </trkpt>
      <trkpt lat="46.60037" lon="6.08072">
        <ele>1059.4000244141</ele>
        <time>2014-07-19T08:09:49.000Z</time>
      </trkpt>
      <trkpt lat="46.60037" lon="6.08078">
        <ele>1059.1999511719</ele>
        <time>2014-07-19T08:09:50.000Z</time>
      </trkpt>
      <trkpt lat="46.60032" lon="6.08113">
        <ele>1059.8000488281</ele>
        <time>2014-07-19T08:09:56.000Z</time>
      </trkpt>
      <trkpt lat="46.60029" lon="6.08117">
        <ele>1059.8000488281</ele>
        <time>2014-07-19T08:09:57.000Z</time>
      </trkpt>
      <trkpt lat="46.6002" lon="6.08129">
        <ele>1060</ele>
        <time>2014-07-19T08:10:00.000Z</time>
      </trkpt>
      <trkpt lat="46.60014" lon="6.08139">
        <ele>1060.1999511719</ele>
        <time>2014-07-19T08:10:02.000Z</time>
      </trkpt>
      <trkpt lat="46.60004" lon="6.08176">
        <ele>1061.8000488281</ele>
        <time>2014-07-19T08:10:07.000Z</time>
      </trkpt>
      <trkpt lat="46.60005" lon="6.08192">
        <ele>1061.4000244141</ele>
        <time>2014-07-19T08:10:09.000Z</time>
      </trkpt>
      <trkpt lat="46.60007" lon="6.08212">
        <ele>1061</ele>
        <time>2014-07-19T08:10:12.000Z</time>
      </trkpt>
      <trkpt lat="46.60006" lon="6.08245">
        <ele>1061.5999755859</ele>
        <time>2014-07-19T08:10:17.000Z</time>
      </trkpt>
      <trkpt lat="46.60003" lon="6.08278">
        <ele>1061.8000488281</ele>
        <time>2014-07-19T08:10:21.000Z</time>
      </trkpt>
      <trkpt lat="46.60002" lon="6.08304">
        <ele>1061.8000488281</ele>
        <time>2014-07-19T08:10:24.000Z</time>
      </trkpt>
      <trkpt lat="46.6" lon="6.08334">
        <ele>1063.1999511719</ele>
        <time>2014-07-19T08:10:28.000Z</time>
      </trkpt>
      <trkpt lat="46.59999" lon="6.08364">
        <ele>1063.8000488281</ele>
        <time>2014-07-19T08:10:33.000Z</time>
      </trkpt>
      <trkpt lat="46.60001" lon="6.0839">
        <ele>1064.5999755859</ele>
        <time>2014-07-19T08:10:39.000Z</time>
      </trkpt>
      <trkpt lat="46.60001" lon="6.08419">
        <ele>1065.5999755859</ele>
        <time>2014-07-19T08:10:45.000Z</time>
      </trkpt>
      <trkpt lat="46.59997" lon="6.0845">
        <ele>1065.1999511719</ele>
        <time>2014-07-19T08:10:51.000Z</time>
      </trkpt>
      <trkpt lat="46.59993" lon="6.08476">
        <ele>1064.8000488281</ele>
        <time>2014-07-19T08:10:56.000Z</time>
      </trkpt>
      <trkpt lat="46.59994" lon="6.08502">
        <ele>1066.4000244141</ele>
        <time>2014-07-19T08:11:00.000Z</time>
      </trkpt>
      <trkpt lat="46.59996" lon="6.08516">
        <ele>1067.4000244141</ele>
        <time>2014-07-19T08:11:02.000Z</time>
      </trkpt>
      <trkpt lat="46.59991" lon="6.08546">
        <ele>1068.8000488281</ele>
        <time>2014-07-19T08:11:07.000Z</time>
      </trkpt>
      <trkpt lat="46.5999" lon="6.08551">
        <ele>1069</ele>
        <time>2014-07-19T08:11:08.000Z</time>
      </trkpt>
      <trkpt lat="46.59983" lon="6.08565">
        <ele>1069</ele>
        <time>2014-07-19T08:11:11.000Z</time>
      </trkpt>
      <trkpt lat="46.59969" lon="6.0858">
        <ele>1069.4000244141</ele>
        <time>2014-07-19T08:11:16.000Z</time>
      </trkpt>
      <trkpt lat="46.59948" lon="6.08595">
        <ele>1069.8000488281</ele>
        <time>2014-07-19T08:11:23.000Z</time>
      </trkpt>
      <trkpt lat="46.59935" lon="6.08614">
        <ele>1068.5999755859</ele>
        <time>2014-07-19T08:11:29.000Z</time>
      </trkpt>
      <trkpt lat="46.59919" lon="6.08632">
        <ele>1066.5999755859</ele>
        <time>2014-07-19T08:11:35.000Z</time>
      </trkpt>
      <trkpt lat="46.59898" lon="6.08651">
        <ele>1065</ele>
        <time>2014-07-19T08:11:42.000Z</time>
      </trkpt>
      <trkpt lat="46.59886" lon="6.08672">
        <ele>1065.4000244141</ele>
        <time>2014-07-19T08:11:47.000Z</time>
      </trkpt>
      <trkpt lat="46.59874" lon="6.08697">
        <ele>1065.4000244141</ele>
        <time>2014-07-19T08:11:53.000Z</time>
      </trkpt>
      <trkpt lat="46.59861" lon="6.08722">
        <ele>1061.8000488281</ele>
        <time>2014-07-19T08:11:58.000Z</time>
      </trkpt>
      <trkpt lat="46.59843" lon="6.08738">
        <ele>1061.8000488281</ele>
        <time>2014-07-19T08:12:03.000Z</time>
      </trkpt>
      <trkpt lat="46.59841" lon="6.0874">
        <ele>1061.8000488281</ele>
        <time>2014-07-19T08:12:04.000Z</time>
      </trkpt>
      <trkpt lat="46.59835" lon="6.08748">
        <ele>1061.5999755859</ele>
        <time>2014-07-19T08:12:06.000Z</time>
      </trkpt>
      <trkpt lat="46.59826" lon="6.08777">
        <ele>1058</ele>
        <time>2014-07-19T08:12:11.000Z</time>
      </trkpt>
      <trkpt lat="46.5982" lon="6.08802">
        <ele>1055</ele>
        <time>2014-07-19T08:12:15.000Z</time>
      </trkpt>
      <trkpt lat="46.59817" lon="6.08829">
        <ele>1054</ele>
        <time>2014-07-19T08:12:19.000Z</time>
      </trkpt>
      <trkpt lat="46.5982" lon="6.08859">
        <ele>1053.4000244141</ele>
        <time>2014-07-19T08:12:23.000Z</time>
      </trkpt>
      <trkpt lat="46.59826" lon="6.08889">
        <ele>1053</ele>
        <time>2014-07-19T08:12:27.000Z</time>
      </trkpt>
      <trkpt lat="46.59831" lon="6.08919">
        <ele>1053</ele>
        <time>2014-07-19T08:12:31.000Z</time>
      </trkpt>
      <trkpt lat="46.59833" lon="6.0894">
        <ele>1052.8000488281</ele>
        <time>2014-07-19T08:12:34.000Z</time>
      </trkpt>
      <trkpt lat="46.59833" lon="6.08946">
        <ele>1052.8000488281</ele>
        <time>2014-07-19T08:12:35.000Z</time>
      </trkpt>
      <trkpt lat="46.59835" lon="6.0897">
        <ele>1052.4000244141</ele>
        <time>2014-07-19T08:12:39.000Z</time>
      </trkpt>
      <trkpt lat="46.59838" lon="6.08982">
        <ele>1052.5999755859</ele>
        <time>2014-07-19T08:12:41.000Z</time>
      </trkpt>
      <trkpt lat="46.59852" lon="6.09011">
        <ele>1053.1999511719</ele>
        <time>2014-07-19T08:12:48.000Z</time>
      </trkpt>
      <trkpt lat="46.59869" lon="6.09028">
        <ele>1053.8000488281</ele>
        <time>2014-07-19T08:12:54.000Z</time>
      </trkpt>
      <trkpt lat="46.59886" lon="6.09041">
        <ele>1054.4000244141</ele>
        <time>2014-07-19T08:12:59.000Z</time>
      </trkpt>
      <trkpt lat="46.59903" lon="6.09054">
        <ele>1055</ele>
        <time>2014-07-19T08:13:04.000Z</time>
      </trkpt>
      <trkpt lat="46.59921" lon="6.09067">
        <ele>1055</ele>
        <time>2014-07-19T08:13:09.000Z</time>
      </trkpt>
      <trkpt lat="46.5994" lon="6.09081">
        <ele>1055.1999511719</ele>
        <time>2014-07-19T08:13:14.000Z</time>
      </trkpt>
      <trkpt lat="46.59958" lon="6.09093">
        <ele>1055.5999755859</ele>
        <time>2014-07-19T08:13:19.000Z</time>
      </trkpt>
      <trkpt lat="46.59965" lon="6.09098">
        <ele>1055.5999755859</ele>
        <time>2014-07-19T08:13:21.000Z</time>
      </trkpt>
      <trkpt lat="46.59983" lon="6.0911">
        <ele>1055.8000488281</ele>
        <time>2014-07-19T08:13:26.000Z</time>
      </trkpt>
      <trkpt lat="46.60005" lon="6.09127">
        <ele>1057.4000244141</ele>
        <time>2014-07-19T08:13:32.000Z</time>
      </trkpt>
      <trkpt lat="46.60008" lon="6.09131">
        <ele>1057.5999755859</ele>
        <time>2014-07-19T08:13:33.000Z</time>
      </trkpt>
      <trkpt lat="46.60021" lon="6.09152">
        <ele>1058.4000244141</ele>
        <time>2014-07-19T08:13:38.000Z</time>
      </trkpt>
      <trkpt lat="46.60038" lon="6.0919">
        <ele>1057.1999511719</ele>
        <time>2014-07-19T08:13:45.000Z</time>
      </trkpt>
      <trkpt lat="46.60049" lon="6.09216">
        <ele>1057.4000244141</ele>
        <time>2014-07-19T08:13:50.000Z</time>
      </trkpt>
      <trkpt lat="46.60061" lon="6.09242">
        <ele>1057</ele>
        <time>2014-07-19T08:13:55.000Z</time>
      </trkpt>
      <trkpt lat="46.60072" lon="6.09263">
        <ele>1056.5999755859</ele>
        <time>2014-07-19T08:13:59.000Z</time>
      </trkpt>
      <trkpt lat="46.60082" lon="6.09289">
        <ele>1056.5999755859</ele>
        <time>2014-07-19T08:14:04.000Z</time>
      </trkpt>
      <trkpt lat="46.60084" lon="6.09294">
        <ele>1056.5999755859</ele>
        <time>2014-07-19T08:14:05.000Z</time>
      </trkpt>
      <trkpt lat="46.60095" lon="6.09316">
        <ele>1057</ele>
        <time>2014-07-19T08:14:10.000Z</time>
      </trkpt>
      <trkpt lat="46.60106" lon="6.09338">
        <ele>1058.1999511719</ele>
        <time>2014-07-19T08:14:16.000Z</time>
      </trkpt>
      <trkpt lat="46.60109" lon="6.0934">
        <ele>1058.4000244141</ele>
        <time>2014-07-19T08:14:17.000Z</time>
      </trkpt>
      <trkpt lat="46.6012" lon="6.09336">
        <ele>1058.4000244141</ele>
        <time>2014-07-19T08:14:20.000Z</time>
      </trkpt>
      <trkpt lat="46.60124" lon="6.09332">
        <ele>1058.4000244141</ele>
        <time>2014-07-19T08:14:21.000Z</time>
      </trkpt>
      <trkpt lat="46.60141" lon="6.09314">
        <ele>1058</ele>
        <time>2014-07-19T08:14:26.000Z</time>
      </trkpt>
      <trkpt lat="46.60156" lon="6.09297">
        <ele>1058.4000244141</ele>
        <time>2014-07-19T08:14:30.000Z</time>
      </trkpt>
      <trkpt lat="46.60173" lon="6.09279">
        <ele>1059.4000244141</ele>
        <time>2014-07-19T08:14:35.000Z</time>
      </trkpt>
      <trkpt lat="46.60189" lon="6.09262">
        <ele>1060.1999511719</ele>
        <time>2014-07-19T08:14:40.000Z</time>
      </trkpt>
      <trkpt lat="46.60206" lon="6.09244">
        <ele>1060</ele>
        <time>2014-07-19T08:14:45.000Z</time>
      </trkpt>
      <trkpt lat="46.60224" lon="6.09227">
        <ele>1059.8000488281</ele>
        <time>2014-07-19T08:14:50.000Z</time>
      </trkpt>
      <trkpt lat="46.60244" lon="6.09212">
        <ele>1060.1999511719</ele>
        <time>2014-07-19T08:14:55.000Z</time>
      </trkpt>
      <trkpt lat="46.60261" lon="6.092">
        <ele>1060.5999755859</ele>
        <time>2014-07-19T08:14:59.000Z</time>
      </trkpt>
      <trkpt lat="46.6028" lon="6.09186">
        <ele>1061.1999511719</ele>
        <time>2014-07-19T08:15:04.000Z</time>
      </trkpt>
      <trkpt lat="46.60297" lon="6.09174">
        <ele>1061.1999511719</ele>
        <time>2014-07-19T08:15:08.000Z</time>
      </trkpt>
      <trkpt lat="46.60309" lon="6.09167">
        <ele>1061.4000244141</ele>
        <time>2014-07-19T08:15:11.000Z</time>
      </trkpt>
      <trkpt lat="46.60332" lon="6.09161">
        <ele>1062</ele>
        <time>2014-07-19T08:15:16.000Z</time>
      </trkpt>
      <trkpt lat="46.60353" lon="6.09159">
        <ele>1062</ele>
        <time>2014-07-19T08:15:20.000Z</time>
      </trkpt>
      <trkpt lat="46.60375" lon="6.09159">
        <ele>1061.5999755859</ele>
        <time>2014-07-19T08:15:24.000Z</time>
      </trkpt>
      <trkpt lat="46.60396" lon="6.09158">
        <ele>1061.4000244141</ele>
        <time>2014-07-19T08:15:28.000Z</time>
      </trkpt>
      <trkpt lat="46.60414" lon="6.09157">
        <ele>1061.5999755859</ele>
        <time>2014-07-19T08:15:32.000Z</time>
      </trkpt>
      <trkpt lat="46.60434" lon="6.09154">
        <ele>1061.4000244141</ele>
        <time>2014-07-19T08:15:36.000Z</time>
      </trkpt>
      <trkpt lat="46.60453" lon="6.09151">
        <ele>1061</ele>
        <time>2014-07-19T08:15:40.000Z</time>
      </trkpt>
      <trkpt lat="46.60472" lon="6.09148">
        <ele>1060.5999755859</ele>
        <time>2014-07-19T08:15:44.000Z</time>
      </trkpt>
      <trkpt lat="46.60491" lon="6.09143">
        <ele>1060.5999755859</ele>
        <time>2014-07-19T08:15:48.000Z</time>
      </trkpt>
      <trkpt lat="46.60511" lon="6.09139">
        <ele>1062.5999755859</ele>
        <time>2014-07-19T08:15:52.000Z</time>
      </trkpt>
      <trkpt lat="46.60516" lon="6.09139">
        <ele>1063</ele>
        <time>2014-07-19T08:15:53.000Z</time>
      </trkpt>
      <trkpt lat="46.6053" lon="6.09133">
        <ele>1064.1999511719</ele>
        <time>2014-07-19T08:15:56.000Z</time>
      </trkpt>
      <trkpt lat="46.60552" lon="6.09116">
        <ele>1064.8000488281</ele>
        <time>2014-07-19T08:16:01.000Z</time>
      </trkpt>
      <trkpt lat="46.6056" lon="6.09106">
        <ele>1064.1999511719</ele>
        <time>2014-07-19T08:16:03.000Z</time>
      </trkpt>
      <trkpt lat="46.60568" lon="6.09097">
        <ele>1063.4000244141</ele>
        <time>2014-07-19T08:16:05.000Z</time>
      </trkpt>
      <trkpt lat="46.60585" lon="6.0908">
        <ele>1063</ele>
        <time>2014-07-19T08:16:09.000Z</time>
      </trkpt>
      <trkpt lat="46.60604" lon="6.09064">
        <ele>1062.4000244141</ele>
        <time>2014-07-19T08:16:13.000Z</time>
      </trkpt>
      <trkpt lat="46.60621" lon="6.09047">
        <ele>1062.1999511719</ele>
        <time>2014-07-19T08:16:17.000Z</time>
      </trkpt>
      <trkpt lat="46.60636" lon="6.09027">
        <ele>1061.4000244141</ele>
        <time>2014-07-19T08:16:21.000Z</time>
      </trkpt>
      <trkpt lat="46.60649" lon="6.09006">
        <ele>1060.5999755859</ele>
        <time>2014-07-19T08:16:25.000Z</time>
      </trkpt>
      <trkpt lat="46.60661" lon="6.08983">
        <ele>1059.8000488281</ele>
        <time>2014-07-19T08:16:29.000Z</time>
      </trkpt>
      <trkpt lat="46.60672" lon="6.0896">
        <ele>1059.4000244141</ele>
        <time>2014-07-19T08:16:33.000Z</time>
      </trkpt>
      <trkpt lat="46.60683" lon="6.08936">
        <ele>1059.4000244141</ele>
        <time>2014-07-19T08:16:37.000Z</time>
      </trkpt>
      <trkpt lat="46.60702" lon="6.089">
        <ele>1058.8000488281</ele>
        <time>2014-07-19T08:16:43.000Z</time>
      </trkpt>
      <trkpt lat="46.60713" lon="6.08873">
        <ele>1058.5999755859</ele>
        <time>2014-07-19T08:16:47.000Z</time>
      </trkpt>
      <trkpt lat="46.60721" lon="6.08846">
        <ele>1058.5999755859</ele>
        <time>2014-07-19T08:16:51.000Z</time>
      </trkpt>
      <trkpt lat="46.60728" lon="6.08819">
        <ele>1058.5999755859</ele>
        <time>2014-07-19T08:16:55.000Z</time>
      </trkpt>
      <trkpt lat="46.60735" lon="6.08792">
        <ele>1058.4000244141</ele>
        <time>2014-07-19T08:16:59.000Z</time>
      </trkpt>
      <trkpt lat="46.60745" lon="6.08768">
        <ele>1058</ele>
        <time>2014-07-19T08:17:03.000Z</time>
      </trkpt>
      <trkpt lat="46.60756" lon="6.08744">
        <ele>1057.8000488281</ele>
        <time>2014-07-19T08:17:07.000Z</time>
      </trkpt>
      <trkpt lat="46.60769" lon="6.08721">
        <ele>1058.4000244141</ele>
        <time>2014-07-19T08:17:11.000Z</time>
      </trkpt>
      <trkpt lat="46.60772" lon="6.08716">
        <ele>1058.5999755859</ele>
        <time>2014-07-19T08:17:12.000Z</time>
      </trkpt>
      <trkpt lat="46.60785" lon="6.08702">
        <ele>1059.4000244141</ele>
        <time>2014-07-19T08:17:15.000Z</time>
      </trkpt>
      <trkpt lat="46.60808" lon="6.08687">
        <ele>1060.8000488281</ele>
        <time>2014-07-19T08:17:20.000Z</time>
      </trkpt>
      <trkpt lat="46.60813" lon="6.08685">
        <ele>1061</ele>
        <time>2014-07-19T08:17:21.000Z</time>
      </trkpt>
      <trkpt lat="46.60829" lon="6.08668">
        <ele>1061.4000244141</ele>
        <time>2014-07-19T08:17:25.000Z</time>
      </trkpt>
      <trkpt lat="46.60848" lon="6.08649">
        <ele>1061.1999511719</ele>
        <time>2014-07-19T08:17:29.000Z</time>
      </trkpt>
      <trkpt lat="46.6087" lon="6.08634">
        <ele>1061.5999755859</ele>
        <time>2014-07-19T08:17:33.000Z</time>
      </trkpt>
      <trkpt lat="46.60891" lon="6.08621">
        <ele>1061.5999755859</ele>
        <time>2014-07-19T08:17:37.000Z</time>
      </trkpt>
      <trkpt lat="46.60911" lon="6.08608">
        <ele>1060.5999755859</ele>
        <time>2014-07-19T08:17:41.000Z</time>
      </trkpt>
      <trkpt lat="46.60929" lon="6.08595">
        <ele>1060.8000488281</ele>
        <time>2014-07-19T08:17:45.000Z</time>
      </trkpt>
      <trkpt lat="46.60947" lon="6.08583">
        <ele>1061</ele>
        <time>2014-07-19T08:17:49.000Z</time>
      </trkpt>
      <trkpt lat="46.60951" lon="6.08581">
        <ele>1061.1999511719</ele>
        <time>2014-07-19T08:17:50.000Z</time>
      </trkpt>
      <trkpt lat="46.60961" lon="6.08578">
        <ele>1061.4000244141</ele>
        <time>2014-07-19T08:17:52.000Z</time>
      </trkpt>
      <trkpt lat="46.6098" lon="6.08574">
        <ele>1061.8000488281</ele>
        <time>2014-07-19T08:17:56.000Z</time>
      </trkpt>
      <trkpt lat="46.60985" lon="6.08571">
        <ele>1062</ele>
        <time>2014-07-19T08:17:57.000Z</time>
      </trkpt>
      <trkpt lat="46.60994" lon="6.08567">
        <ele>1063.4000244141</ele>
        <time>2014-07-19T08:17:59.000Z</time>
      </trkpt>
      <trkpt lat="46.61002" lon="6.08569">
        <ele>1065</ele>
        <time>2014-07-19T08:18:03.000Z</time>
      </trkpt>
      <trkpt lat="46.61005" lon="6.0858">
        <ele>1065</ele>
        <time>2014-07-19T08:18:08.000Z</time>
      </trkpt>
      <trkpt lat="46.6101" lon="6.08591">
        <ele>1065.8000488281</ele>
        <time>2014-07-19T08:18:14.000Z</time>
      </trkpt>
      <trkpt lat="46.6101" lon="6.086">
        <ele>1065.8000488281</ele>
        <time>2014-07-19T08:18:17.000Z</time>
      </trkpt>
      <trkpt lat="46.61006" lon="6.08629">
        <ele>1065.1999511719</ele>
        <time>2014-07-19T08:18:26.000Z</time>
      </trkpt>
      <trkpt lat="46.61007" lon="6.08656">
        <ele>1064.1999511719</ele>
        <time>2014-07-19T08:18:33.000Z</time>
      </trkpt>
      <trkpt lat="46.6101" lon="6.08683">
        <ele>1063</ele>
        <time>2014-07-19T08:18:40.000Z</time>
      </trkpt>
      <trkpt lat="46.61015" lon="6.08708">
        <ele>1062.5999755859</ele>
        <time>2014-07-19T08:18:47.000Z</time>
      </trkpt>
      <trkpt lat="46.61023" lon="6.08735">
        <ele>1062</ele>
        <time>2014-07-19T08:18:55.000Z</time>
      </trkpt>
      <trkpt lat="46.61035" lon="6.08759">
        <ele>1061</ele>
        <time>2014-07-19T08:19:01.000Z</time>
      </trkpt>
      <trkpt lat="46.61047" lon="6.0878">
        <ele>1060.4000244141</ele>
        <time>2014-07-19T08:19:05.000Z</time>
      </trkpt>
      <trkpt lat="46.61051" lon="6.08785">
        <ele>1060.4000244141</ele>
        <time>2014-07-19T08:19:06.000Z</time>
      </trkpt>
      <trkpt lat="46.61067" lon="6.08803">
        <ele>1060.4000244141</ele>
        <time>2014-07-19T08:19:10.000Z</time>
      </trkpt>
      <trkpt lat="46.61075" lon="6.08819">
        <ele>1061</ele>
        <time>2014-07-19T08:19:14.000Z</time>
      </trkpt>
      <trkpt lat="46.61082" lon="6.08844">
        <ele>1063</ele>
        <time>2014-07-19T08:19:22.000Z</time>
      </trkpt>
      <trkpt lat="46.61084" lon="6.08866">
        <ele>1064.4000244141</ele>
        <time>2014-07-19T08:19:30.000Z</time>
      </trkpt>
      <trkpt lat="46.61084" lon="6.08886">
        <ele>1065.5999755859</ele>
        <time>2014-07-19T08:19:38.000Z</time>
      </trkpt>
      <trkpt lat="46.61081" lon="6.0891">
        <ele>1066.5999755859</ele>
        <time>2014-07-19T08:19:47.000Z</time>
      </trkpt>
      <trkpt lat="46.61079" lon="6.08938">
        <ele>1067.4000244141</ele>
        <time>2014-07-19T08:19:56.000Z</time>
      </trkpt>
      <trkpt lat="46.61078" lon="6.08947">
        <ele>1067.8000488281</ele>
        <time>2014-07-19T08:19:59.000Z</time>
      </trkpt>
      <trkpt lat="46.61077" lon="6.08966">
        <ele>1068.4000244141</ele>
        <time>2014-07-19T08:20:06.000Z</time>
      </trkpt>
      <trkpt lat="46.61075" lon="6.08986">
        <ele>1068.8000488281</ele>
        <time>2014-07-19T08:20:13.000Z</time>
      </trkpt>
      <trkpt lat="46.61071" lon="6.09014">
        <ele>1068.1999511719</ele>
        <time>2014-07-19T08:20:23.000Z</time>
      </trkpt>
      <trkpt lat="46.61063" lon="6.0904">
        <ele>1067.8000488281</ele>
        <time>2014-07-19T08:20:33.000Z</time>
      </trkpt>
      <trkpt lat="46.61056" lon="6.09064">
        <ele>1068.5999755859</ele>
        <time>2014-07-19T08:20:42.000Z</time>
      </trkpt>
      <trkpt lat="46.61048" lon="6.09091">
        <ele>1070.1999511719</ele>
        <time>2014-07-19T08:20:51.000Z</time>
      </trkpt>
      <trkpt lat="46.61046" lon="6.09113">
        <ele>1071.4000244141</ele>
        <time>2014-07-19T08:20:59.000Z</time>
      </trkpt>
      <trkpt lat="46.61045" lon="6.09119">
        <ele>1071.5999755859</ele>
        <time>2014-07-19T08:21:04.000Z</time>
      </trkpt>
      <trkpt lat="46.61043" lon="6.09121">
        <ele>1071.8000488281</ele>
        <time>2014-07-19T08:21:14.000Z</time>
      </trkpt>
      <trkpt lat="46.61043" lon="6.09122">
        <ele>1071.8000488281</ele>
        <time>2014-07-19T08:21:21.000Z</time>
      </trkpt>
      <trkpt lat="46.61044" lon="6.09122">
        <ele>1071.8000488281</ele>
        <time>2014-07-19T08:21:34.000Z</time>
      </trkpt>
      <trkpt lat="46.61045" lon="6.09123">
        <ele>1071.8000488281</ele>
        <time>2014-07-19T08:21:35.000Z</time>
      </trkpt>
      <trkpt lat="46.61043" lon="6.09138">
        <ele>1072.1999511719</ele>
        <time>2014-07-19T08:21:41.000Z</time>
      </trkpt>
      <trkpt lat="46.61036" lon="6.09151">
        <ele>1073.1999511719</ele>
        <time>2014-07-19T08:21:48.000Z</time>
      </trkpt>
      <trkpt lat="46.61027" lon="6.09167">
        <ele>1074.8000488281</ele>
        <time>2014-07-19T08:21:56.000Z</time>
      </trkpt>
      <trkpt lat="46.61018" lon="6.09184">
        <ele>1076.1999511719</ele>
        <time>2014-07-19T08:22:04.000Z</time>
      </trkpt>
      <trkpt lat="46.6101" lon="6.09201">
        <ele>1076.5999755859</ele>
        <time>2014-07-19T08:22:11.000Z</time>
      </trkpt>
      <trkpt lat="46.61001" lon="6.09222">
        <ele>1077.4000244141</ele>
        <time>2014-07-19T08:22:19.000Z</time>
      </trkpt>
      <trkpt lat="46.60995" lon="6.09234">
        <ele>1078.5999755859</ele>
        <time>2014-07-19T08:22:25.000Z</time>
      </trkpt>
      <trkpt lat="46.60992" lon="6.09245">
        <ele>1080.1999511719</ele>
        <time>2014-07-19T08:22:30.000Z</time>
      </trkpt>
      <trkpt lat="46.60987" lon="6.09255">
        <ele>1081.1999511719</ele>
        <time>2014-07-19T08:22:35.000Z</time>
      </trkpt>
      <trkpt lat="46.60986" lon="6.09257">
        <ele>1081.4000244141</ele>
        <time>2014-07-19T08:22:37.000Z</time>
      </trkpt>
      <trkpt lat="46.60984" lon="6.09257">
        <ele>1081.5999755859</ele>
        <time>2014-07-19T08:22:38.000Z</time>
      </trkpt>
      <trkpt lat="46.60978" lon="6.09271">
        <ele>1084</ele>
        <time>2014-07-19T08:22:46.000Z</time>
      </trkpt>
      <trkpt lat="46.60975" lon="6.0928">
        <ele>1085.5999755859</ele>
        <time>2014-07-19T08:22:50.000Z</time>
      </trkpt>
      <trkpt lat="46.60966" lon="6.09295">
        <ele>1088</ele>
        <time>2014-07-19T08:22:58.000Z</time>
      </trkpt>
      <trkpt lat="46.60958" lon="6.09304">
        <ele>1088.1999511719</ele>
        <time>2014-07-19T08:23:05.000Z</time>
      </trkpt>
      <trkpt lat="46.60949" lon="6.09314">
        <ele>1088.8000488281</ele>
        <time>2014-07-19T08:23:12.000Z</time>
      </trkpt>
      <trkpt lat="46.60948" lon="6.09315">
        <ele>1088.8000488281</ele>
        <time>2014-07-19T08:23:13.000Z</time>
      </trkpt>
      <trkpt lat="46.60943" lon="6.09322">
        <ele>1089.5999755859</ele>
        <time>2014-07-19T08:23:17.000Z</time>
      </trkpt>
      <trkpt lat="46.60936" lon="6.09332">
        <ele>1091</ele>
        <time>2014-07-19T08:23:22.000Z</time>
      </trkpt>
      <trkpt lat="46.60929" lon="6.09347">
        <ele>1092.4000244141</ele>
        <time>2014-07-19T08:23:29.000Z</time>
      </trkpt>
      <trkpt lat="46.60928" lon="6.09349">
        <ele>1092.5999755859</ele>
        <time>2014-07-19T08:23:30.000Z</time>
      </trkpt>
      <trkpt lat="46.60926" lon="6.09359">
        <ele>1093.1999511719</ele>
        <time>2014-07-19T08:23:34.000Z</time>
      </trkpt>
      <trkpt lat="46.60907" lon="6.09398">
        <ele>1094.8000488281</ele>
        <time>2014-07-19T08:23:55.000Z</time>
      </trkpt>
      <trkpt lat="46.60901" lon="6.09407">
        <ele>1095.4000244141</ele>
        <time>2014-07-19T08:24:01.000Z</time>
      </trkpt>
      <trkpt lat="46.60895" lon="6.09414">
        <ele>1096.5999755859</ele>
        <time>2014-07-19T08:24:06.000Z</time>
      </trkpt>
      <trkpt lat="46.6089" lon="6.09425">
        <ele>1098</ele>
        <time>2014-07-19T08:24:13.000Z</time>
      </trkpt>
      <trkpt lat="46.6089" lon="6.09427">
        <ele>1098.1999511719</ele>
        <time>2014-07-19T08:24:14.000Z</time>
      </trkpt>
      <trkpt lat="46.60892" lon="6.09433">
        <ele>1098.5999755859</ele>
        <time>2014-07-19T08:24:18.000Z</time>
      </trkpt>
      <trkpt lat="46.60894" lon="6.09433">
        <ele>1098.5999755859</ele>
        <time>2014-07-19T08:24:19.000Z</time>
      </trkpt>
      <trkpt lat="46.60902" lon="6.09434">
        <ele>1097.8000488281</ele>
        <time>2014-07-19T08:24:24.000Z</time>
      </trkpt>
      <trkpt lat="46.60914" lon="6.09433">
        <ele>1098.5999755859</ele>
        <time>2014-07-19T08:24:32.000Z</time>
      </trkpt>
      <trkpt lat="46.60921" lon="6.09434">
        <ele>1099</ele>
        <time>2014-07-19T08:24:38.000Z</time>
      </trkpt>
      <trkpt lat="46.60923" lon="6.09434">
        <ele>1099.1999511719</ele>
        <time>2014-07-19T08:24:39.000Z</time>
      </trkpt>
      <trkpt lat="46.60929" lon="6.09437">
        <ele>1099.8000488281</ele>
        <time>2014-07-19T08:24:45.000Z</time>
      </trkpt>
      <trkpt lat="46.6093" lon="6.09437">
        <ele>1100</ele>
        <time>2014-07-19T08:24:46.000Z</time>
      </trkpt>
      <trkpt lat="46.60935" lon="6.0945">
        <ele>1101.4000244141</ele>
        <time>2014-07-19T08:24:53.000Z</time>
      </trkpt>
      <trkpt lat="46.60935" lon="6.09453">
        <ele>1101.5999755859</ele>
        <time>2014-07-19T08:24:54.000Z</time>
      </trkpt>
      <trkpt lat="46.60935" lon="6.09468">
        <ele>1103.1999511719</ele>
        <time>2014-07-19T08:25:01.000Z</time>
      </trkpt>
      <trkpt lat="46.60935" lon="6.09483">
        <ele>1103.8000488281</ele>
        <time>2014-07-19T08:25:09.000Z</time>
      </trkpt>
      <trkpt lat="46.60936" lon="6.09496">
        <ele>1103.5999755859</ele>
        <time>2014-07-19T08:25:16.000Z</time>
      </trkpt>
      <trkpt lat="46.60939" lon="6.09509">
        <ele>1103.4000244141</ele>
        <time>2014-07-19T08:25:23.000Z</time>
      </trkpt>
      <trkpt lat="46.60942" lon="6.09521">
        <ele>1103.5999755859</ele>
        <time>2014-07-19T08:25:29.000Z</time>
      </trkpt>
      <trkpt lat="46.60951" lon="6.09549">
        <ele>1104.8000488281</ele>
        <time>2014-07-19T08:25:40.000Z</time>
      </trkpt>
      <trkpt lat="46.60949" lon="6.09582">
        <ele>1105.4000244141</ele>
        <time>2014-07-19T08:25:46.000Z</time>
      </trkpt>
      <trkpt lat="46.60946" lon="6.09606">
        <ele>1105.4000244141</ele>
        <time>2014-07-19T08:25:51.000Z</time>
      </trkpt>
      <trkpt lat="46.60942" lon="6.09624">
        <ele>1105.5999755859</ele>
        <time>2014-07-19T08:25:56.000Z</time>
      </trkpt>
      <trkpt lat="46.60939" lon="6.09638">
        <ele>1105.5999755859</ele>
        <time>2014-07-19T08:26:00.000Z</time>
      </trkpt>
      <trkpt lat="46.60934" lon="6.09664">
        <ele>1104.5999755859</ele>
        <time>2014-07-19T08:26:08.000Z</time>
      </trkpt>
      <trkpt lat="46.60932" lon="6.09682">
        <ele>1104</ele>
        <time>2014-07-19T08:26:12.000Z</time>
      </trkpt>
      <trkpt lat="46.60931" lon="6.09708">
        <ele>1103.4000244141</ele>
        <time>2014-07-19T08:26:16.000Z</time>
      </trkpt>
      <trkpt lat="46.60933" lon="6.09729">
        <ele>1102.8000488281</ele>
        <time>2014-07-19T08:26:21.000Z</time>
      </trkpt>
      <trkpt lat="46.60941" lon="6.09749">
        <ele>1102.4000244141</ele>
        <time>2014-07-19T08:26:27.000Z</time>
      </trkpt>
      <trkpt lat="46.60951" lon="6.09763">
        <ele>1101.8000488281</ele>
        <time>2014-07-19T08:26:33.000Z</time>
      </trkpt>
      <trkpt lat="46.60958" lon="6.09777">
        <ele>1101.4000244141</ele>
        <time>2014-07-19T08:26:38.000Z</time>
      </trkpt>
      <trkpt lat="46.60969" lon="6.09798">
        <ele>1100.8000488281</ele>
        <time>2014-07-19T08:26:44.000Z</time>
      </trkpt>
      <trkpt lat="46.60972" lon="6.09802">
        <ele>1100.8000488281</ele>
        <time>2014-07-19T08:26:45.000Z</time>
      </trkpt>
      <trkpt lat="46.60988" lon="6.09805">
        <ele>1100</ele>
        <time>2014-07-19T08:26:49.000Z</time>
      </trkpt>
      <trkpt lat="46.61009" lon="6.09807">
        <ele>1099.4000244141</ele>
        <time>2014-07-19T08:26:55.000Z</time>
      </trkpt>
      <trkpt lat="46.61015" lon="6.09808">
        <ele>1099.4000244141</ele>
        <time>2014-07-19T08:26:57.000Z</time>
      </trkpt>
      <trkpt lat="46.61028" lon="6.09811">
        <ele>1099</ele>
        <time>2014-07-19T08:27:02.000Z</time>
      </trkpt>
      <trkpt lat="46.6103" lon="6.09813">
        <ele>1099</ele>
        <time>2014-07-19T08:27:03.000Z</time>
      </trkpt>
      <trkpt lat="46.61042" lon="6.09826">
        <ele>1098.8000488281</ele>
        <time>2014-07-19T08:27:09.000Z</time>
      </trkpt>
      <trkpt lat="46.61045" lon="6.09831">
        <ele>1098.8000488281</ele>
        <time>2014-07-19T08:27:13.000Z</time>
      </trkpt>
      <trkpt lat="46.61046" lon="6.09849">
        <ele>1099</ele>
        <time>2014-07-19T08:27:18.000Z</time>
      </trkpt>
      <trkpt lat="46.61044" lon="6.09852">
        <ele>1099</ele>
        <time>2014-07-19T08:27:19.000Z</time>
      </trkpt>
      <trkpt lat="46.61039" lon="6.09865">
        <ele>1099.4000244141</ele>
        <time>2014-07-19T08:27:24.000Z</time>
      </trkpt>
      <trkpt lat="46.61036" lon="6.09874">
        <ele>1099.8000488281</ele>
        <time>2014-07-19T08:27:28.000Z</time>
      </trkpt>
      <trkpt lat="46.61033" lon="6.09879">
        <ele>1100</ele>
        <time>2014-07-19T08:27:35.000Z</time>
      </trkpt>
      <trkpt lat="46.61034" lon="6.0988">
        <ele>1100</ele>
        <time>2014-07-19T08:27:42.000Z</time>
      </trkpt>
      <trkpt lat="46.61035" lon="6.09883">
        <ele>1100</ele>
        <time>2014-07-19T08:27:54.000Z</time>
      </trkpt>
      <trkpt lat="46.61036" lon="6.09889">
        <ele>1100</ele>
        <time>2014-07-19T08:28:29.000Z</time>
      </trkpt>
      <trkpt lat="46.61039" lon="6.09885">
        <ele>1099.8000488281</ele>
        <time>2014-07-19T08:28:46.000Z</time>
      </trkpt>
      <trkpt lat="46.61039" lon="6.09883">
        <ele>1099.8000488281</ele>
        <time>2014-07-19T08:28:53.000Z</time>
      </trkpt>
      <trkpt lat="46.61039" lon="6.09885">
        <ele>1099.8000488281</ele>
        <time>2014-07-19T08:29:00.000Z</time>
      </trkpt>
      <trkpt lat="46.61038" lon="6.09885">
        <ele>1099.8000488281</ele>
        <time>2014-07-19T08:29:01.000Z</time>
      </trkpt>
      <trkpt lat="46.61029" lon="6.09893">
        <ele>1100.4000244141</ele>
        <time>2014-07-19T08:29:06.000Z</time>
      </trkpt>
      <trkpt lat="46.61016" lon="6.09905">
        <ele>1101.4000244141</ele>
        <time>2014-07-19T08:29:12.000Z</time>
      </trkpt>
      <trkpt lat="46.61001" lon="6.09921">
        <ele>1101.5999755859</ele>
        <time>2014-07-19T08:29:19.000Z</time>
      </trkpt>
      <trkpt lat="46.60993" lon="6.09929">
        <ele>1100.8000488281</ele>
        <time>2014-07-19T08:29:23.000Z</time>
      </trkpt>
      <trkpt lat="46.60991" lon="6.09932">
        <ele>1100.5999755859</ele>
        <time>2014-07-19T08:29:24.000Z</time>
      </trkpt>
      <trkpt lat="46.60981" lon="6.09948">
        <ele>1099.4000244141</ele>
        <time>2014-07-19T08:29:29.000Z</time>
      </trkpt>
      <trkpt lat="46.60979" lon="6.09949">
        <ele>1099.4000244141</ele>
        <time>2014-07-19T08:29:30.000Z</time>
      </trkpt>
      <trkpt lat="46.60968" lon="6.09958">
        <ele>1099</ele>
        <time>2014-07-19T08:29:34.000Z</time>
      </trkpt>
      <trkpt lat="46.60966" lon="6.0996">
        <ele>1098.5999755859</ele>
        <time>2014-07-19T08:29:35.000Z</time>
      </trkpt>
      <trkpt lat="46.60953" lon="6.09982">
        <ele>1096</ele>
        <time>2014-07-19T08:29:40.000Z</time>
      </trkpt>
      <trkpt lat="46.60952" lon="6.10008">
        <ele>1095.1999511719</ele>
        <time>2014-07-19T08:29:44.000Z</time>
      </trkpt>
      <trkpt lat="46.60951" lon="6.10019">
        <ele>1095</ele>
        <time>2014-07-19T08:29:46.000Z</time>
      </trkpt>
      <trkpt lat="46.60948" lon="6.10041">
        <ele>1093.4000244141</ele>
        <time>2014-07-19T08:29:50.000Z</time>
      </trkpt>
      <trkpt lat="46.60947" lon="6.10069">
        <ele>1091.8000488281</ele>
        <time>2014-07-19T08:29:54.000Z</time>
      </trkpt>
      <trkpt lat="46.60949" lon="6.10087">
        <ele>1092</ele>
        <time>2014-07-19T08:29:57.000Z</time>
      </trkpt>
      <trkpt lat="46.60952" lon="6.10103">
        <ele>1092.4000244141</ele>
        <time>2014-07-19T08:30:02.000Z</time>
      </trkpt>
      <trkpt lat="46.60954" lon="6.10108">
        <ele>1092.5999755859</ele>
        <time>2014-07-19T08:30:04.000Z</time>
      </trkpt>
      <trkpt lat="46.60959" lon="6.10129">
        <ele>1093</ele>
        <time>2014-07-19T08:30:12.000Z</time>
      </trkpt>
      <trkpt lat="46.60959" lon="6.10146">
        <ele>1092.8000488281</ele>
        <time>2014-07-19T08:30:19.000Z</time>
      </trkpt>
      <trkpt lat="46.60956" lon="6.1016">
        <ele>1093</ele>
        <time>2014-07-19T08:30:25.000Z</time>
      </trkpt>
      <trkpt lat="46.60953" lon="6.10177">
        <ele>1093</ele>
        <time>2014-07-19T08:30:32.000Z</time>
      </trkpt>
      <trkpt lat="46.60951" lon="6.102">
        <ele>1093.4000244141</ele>
        <time>2014-07-19T08:30:41.000Z</time>
      </trkpt>
      <trkpt lat="46.60948" lon="6.1022">
        <ele>1094.4000244141</ele>
        <time>2014-07-19T08:30:49.000Z</time>
      </trkpt>
      <trkpt lat="46.60948" lon="6.10239">
        <ele>1094.4000244141</ele>
        <time>2014-07-19T08:30:56.000Z</time>
      </trkpt>
      <trkpt lat="46.60949" lon="6.1025">
        <ele>1094</ele>
        <time>2014-07-19T08:31:02.000Z</time>
      </trkpt>
      <trkpt lat="46.60951" lon="6.10264">
        <ele>1093.8000488281</ele>
        <time>2014-07-19T08:31:09.000Z</time>
      </trkpt>
      <trkpt lat="46.60954" lon="6.10276">
        <ele>1093.5999755859</ele>
        <time>2014-07-19T08:31:15.000Z</time>
      </trkpt>
      <trkpt lat="46.60958" lon="6.10294">
        <ele>1093.8000488281</ele>
        <time>2014-07-19T08:31:23.000Z</time>
      </trkpt>
      <trkpt lat="46.60962" lon="6.10314">
        <ele>1093.5999755859</ele>
        <time>2014-07-19T08:31:31.000Z</time>
      </trkpt>
      <trkpt lat="46.60961" lon="6.10343">
        <ele>1089.8000488281</ele>
        <time>2014-07-19T08:31:39.000Z</time>
      </trkpt>
      <trkpt lat="46.60956" lon="6.10373">
        <ele>1086.1999511719</ele>
        <time>2014-07-19T08:31:46.000Z</time>
      </trkpt>
      <trkpt lat="46.60955" lon="6.10377">
        <ele>1085.8000488281</ele>
        <time>2014-07-19T08:31:47.000Z</time>
      </trkpt>
      <trkpt lat="46.60955" lon="6.10384">
        <ele>1085.4000244141</ele>
        <time>2014-07-19T08:31:53.000Z</time>
      </trkpt>
      <trkpt lat="46.60952" lon="6.10402">
        <ele>1084.8000488281</ele>
        <time>2014-07-19T08:31:57.000Z</time>
      </trkpt>
      <trkpt lat="46.60949" lon="6.10428">
        <ele>1084.8000488281</ele>
        <time>2014-07-19T08:32:03.000Z</time>
      </trkpt>
      <trkpt lat="46.60948" lon="6.10433">
        <ele>1084.8000488281</ele>
        <time>2014-07-19T08:32:07.000Z</time>
      </trkpt>
      <trkpt lat="46.60946" lon="6.10434">
        <ele>1085</ele>
        <time>2014-07-19T08:32:14.000Z</time>
      </trkpt>
      <trkpt lat="46.60946" lon="6.10437">
        <ele>1085</ele>
        <time>2014-07-19T08:32:21.000Z</time>
      </trkpt>
      <trkpt lat="46.60946" lon="6.10436">
        <ele>1085</ele>
        <time>2014-07-19T08:32:22.000Z</time>
      </trkpt>
      <trkpt lat="46.60947" lon="6.10435">
        <ele>1085</ele>
        <time>2014-07-19T08:32:28.000Z</time>
      </trkpt>
      <trkpt lat="46.60946" lon="6.10436">
        <ele>1085</ele>
        <time>2014-07-19T08:32:32.000Z</time>
      </trkpt>
      <trkpt lat="46.60946" lon="6.10439">
        <ele>1084.8000488281</ele>
        <time>2014-07-19T08:32:36.000Z</time>
      </trkpt>
      <trkpt lat="46.60946" lon="6.10449">
        <ele>1084.4000244141</ele>
        <time>2014-07-19T08:32:40.000Z</time>
      </trkpt>
      <trkpt lat="46.60946" lon="6.10459">
        <ele>1084</ele>
        <time>2014-07-19T08:32:43.000Z</time>
      </trkpt>
      <trkpt lat="46.60957" lon="6.10472">
        <ele>1083.5999755859</ele>
        <time>2014-07-19T08:32:51.000Z</time>
      </trkpt>
      <trkpt lat="46.60968" lon="6.10475">
        <ele>1083.5999755859</ele>
        <time>2014-07-19T08:32:57.000Z</time>
      </trkpt>
      <trkpt lat="46.6098" lon="6.10469">
        <ele>1084.1999511719</ele>
        <time>2014-07-19T08:33:02.000Z</time>
      </trkpt>
      <trkpt lat="46.60999" lon="6.1046">
        <ele>1084.4000244141</ele>
        <time>2014-07-19T08:33:09.000Z</time>
      </trkpt>
      <trkpt lat="46.61018" lon="6.10452">
        <ele>1085.1999511719</ele>
        <time>2014-07-19T08:33:16.000Z</time>
      </trkpt>
      <trkpt lat="46.61037" lon="6.10445">
        <ele>1085.8000488281</ele>
        <time>2014-07-19T08:33:23.000Z</time>
      </trkpt>
      <trkpt lat="46.61056" lon="6.10437">
        <ele>1085.5999755859</ele>
        <time>2014-07-19T08:33:30.000Z</time>
      </trkpt>
      <trkpt lat="46.61074" lon="6.10429">
        <ele>1085.4000244141</ele>
        <time>2014-07-19T08:33:37.000Z</time>
      </trkpt>
      <trkpt lat="46.61092" lon="6.10422">
        <ele>1085.1999511719</ele>
        <time>2014-07-19T08:33:44.000Z</time>
      </trkpt>
      <trkpt lat="46.61109" lon="6.10413">
        <ele>1086</ele>
        <time>2014-07-19T08:33:50.000Z</time>
      </trkpt>
      <trkpt lat="46.61123" lon="6.10405">
        <ele>1086.5999755859</ele>
        <time>2014-07-19T08:33:55.000Z</time>
      </trkpt>
      <trkpt lat="46.61131" lon="6.10399">
        <ele>1087</ele>
        <time>2014-07-19T08:34:00.000Z</time>
      </trkpt>
      <trkpt lat="46.61137" lon="6.10393">
        <ele>1087.1999511719</ele>
        <time>2014-07-19T08:34:05.000Z</time>
      </trkpt>
      <trkpt lat="46.61138" lon="6.10393">
        <ele>1087.4000244141</ele>
        <time>2014-07-19T08:34:06.000Z</time>
      </trkpt>
      <trkpt lat="46.61144" lon="6.10396">
        <ele>1087.5999755859</ele>
        <time>2014-07-19T08:34:11.000Z</time>
      </trkpt>
      <trkpt lat="46.61147" lon="6.10396">
        <ele>1087.8000488281</ele>
        <time>2014-07-19T08:34:13.000Z</time>
      </trkpt>
      <trkpt lat="46.61159" lon="6.10399">
        <ele>1087.8000488281</ele>
        <time>2014-07-19T08:34:19.000Z</time>
      </trkpt>
      <trkpt lat="46.61168" lon="6.10407">
        <ele>1087.5999755859</ele>
        <time>2014-07-19T08:34:24.000Z</time>
      </trkpt>
      <trkpt lat="46.61179" lon="6.10415">
        <ele>1087.4000244141</ele>
        <time>2014-07-19T08:34:30.000Z</time>
      </trkpt>
      <trkpt lat="46.61184" lon="6.10421">
        <ele>1087.4000244141</ele>
        <time>2014-07-19T08:34:33.000Z</time>
      </trkpt>
      <trkpt lat="46.61188" lon="6.10431">
        <ele>1087.1999511719</ele>
        <time>2014-07-19T08:34:37.000Z</time>
      </trkpt>
      <trkpt lat="46.61192" lon="6.10446">
        <ele>1087</ele>
        <time>2014-07-19T08:34:42.000Z</time>
      </trkpt>
      <trkpt lat="46.61201" lon="6.10471">
        <ele>1086.8000488281</ele>
        <time>2014-07-19T08:34:49.000Z</time>
      </trkpt>
      <trkpt lat="46.6121" lon="6.10495">
        <ele>1085.8000488281</ele>
        <time>2014-07-19T08:34:55.000Z</time>
      </trkpt>
      <trkpt lat="46.61218" lon="6.10512">
        <ele>1084.8000488281</ele>
        <time>2014-07-19T08:35:00.000Z</time>
      </trkpt>
      <trkpt lat="46.61228" lon="6.10523">
        <ele>1084</ele>
        <time>2014-07-19T08:35:06.000Z</time>
      </trkpt>
      <trkpt lat="46.61235" lon="6.10531">
        <ele>1083.4000244141</ele>
        <time>2014-07-19T08:35:11.000Z</time>
      </trkpt>
      <trkpt lat="46.6124" lon="6.10535">
        <ele>1083.4000244141</ele>
        <time>2014-07-19T08:35:15.000Z</time>
      </trkpt>
      <trkpt lat="46.61243" lon="6.10536">
        <ele>1083.4000244141</ele>
        <time>2014-07-19T08:35:17.000Z</time>
      </trkpt>
      <trkpt lat="46.61259" lon="6.10541">
        <ele>1083.8000488281</ele>
        <time>2014-07-19T08:35:24.000Z</time>
      </trkpt>
      <trkpt lat="46.61274" lon="6.10546">
        <ele>1084.1999511719</ele>
        <time>2014-07-19T08:35:30.000Z</time>
      </trkpt>
      <trkpt lat="46.61286" lon="6.10551">
        <ele>1084.1999511719</ele>
        <time>2014-07-19T08:35:35.000Z</time>
      </trkpt>
      <trkpt lat="46.61293" lon="6.10558">
        <ele>1084.1999511719</ele>
        <time>2014-07-19T08:35:38.000Z</time>
      </trkpt>
      <trkpt lat="46.61303" lon="6.10571">
        <ele>1084.1999511719</ele>
        <time>2014-07-19T08:35:42.000Z</time>
      </trkpt>
      <trkpt lat="46.61308" lon="6.10575">
        <ele>1084.1999511719</ele>
        <time>2014-07-19T08:35:43.000Z</time>
      </trkpt>
      <trkpt lat="46.61328" lon="6.1058">
        <ele>1084.5999755859</ele>
        <time>2014-07-19T08:35:47.000Z</time>
      </trkpt>
      <trkpt lat="46.61341" lon="6.10584">
        <ele>1084.5999755859</ele>
        <time>2014-07-19T08:35:50.000Z</time>
      </trkpt>
      <trkpt lat="46.61358" lon="6.10596">
        <ele>1084.8000488281</ele>
        <time>2014-07-19T08:35:56.000Z</time>
      </trkpt>
      <trkpt lat="46.6136" lon="6.10598">
        <ele>1084.8000488281</ele>
        <time>2014-07-19T08:35:57.000Z</time>
      </trkpt>
      <trkpt lat="46.61362" lon="6.10599">
        <ele>1084.8000488281</ele>
        <time>2014-07-19T08:35:58.000Z</time>
      </trkpt>
      <trkpt lat="46.6137" lon="6.10607">
        <ele>1084.8000488281</ele>
        <time>2014-07-19T08:36:03.000Z</time>
      </trkpt>
      <trkpt lat="46.61374" lon="6.10612">
        <ele>1084.5999755859</ele>
        <time>2014-07-19T08:36:05.000Z</time>
      </trkpt>
      <trkpt lat="46.61375" lon="6.10614">
        <ele>1084.5999755859</ele>
        <time>2014-07-19T08:36:06.000Z</time>
      </trkpt>
      <trkpt lat="46.61377" lon="6.1062">
        <ele>1084.1999511719</ele>
        <time>2014-07-19T08:36:08.000Z</time>
      </trkpt>
      <trkpt lat="46.61383" lon="6.1063">
        <ele>1084</ele>
        <time>2014-07-19T08:36:12.000Z</time>
      </trkpt>
      <trkpt lat="46.61394" lon="6.10648">
        <ele>1084.1999511719</ele>
        <time>2014-07-19T08:36:19.000Z</time>
      </trkpt>
      <trkpt lat="46.61397" lon="6.10653">
        <ele>1084.5999755859</ele>
        <time>2014-07-19T08:36:21.000Z</time>
      </trkpt>
      <trkpt lat="46.61413" lon="6.1066">
        <ele>1085.5999755859</ele>
        <time>2014-07-19T08:36:28.000Z</time>
      </trkpt>
      <trkpt lat="46.6143" lon="6.10659">
        <ele>1086</ele>
        <time>2014-07-19T08:36:34.000Z</time>
      </trkpt>
      <trkpt lat="46.61455" lon="6.10642">
        <ele>1085.4000244141</ele>
        <time>2014-07-19T08:36:45.000Z</time>
      </trkpt>
      <trkpt lat="46.61472" lon="6.1063">
        <ele>1086.8000488281</ele>
        <time>2014-07-19T08:36:52.000Z</time>
      </trkpt>
      <trkpt lat="46.61488" lon="6.10618">
        <ele>1087.1999511719</ele>
        <time>2014-07-19T08:36:58.000Z</time>
      </trkpt>
      <trkpt lat="46.61505" lon="6.10608">
        <ele>1087.5999755859</ele>
        <time>2014-07-19T08:37:04.000Z</time>
      </trkpt>
      <trkpt lat="46.61521" lon="6.10594">
        <ele>1088.4000244141</ele>
        <time>2014-07-19T08:37:10.000Z</time>
      </trkpt>
      <trkpt lat="46.61539" lon="6.10579">
        <ele>1088.1999511719</ele>
        <time>2014-07-19T08:37:16.000Z</time>
      </trkpt>
      <trkpt lat="46.61556" lon="6.1057">
        <ele>1088</ele>
        <time>2014-07-19T08:37:22.000Z</time>
      </trkpt>
      <trkpt lat="46.61571" lon="6.10564">
        <ele>1087.8000488281</ele>
        <time>2014-07-19T08:37:27.000Z</time>
      </trkpt>
      <trkpt lat="46.61587" lon="6.10565">
        <ele>1088.1999511719</ele>
        <time>2014-07-19T08:37:33.000Z</time>
      </trkpt>
      <trkpt lat="46.6159" lon="6.10565">
        <ele>1088.1999511719</ele>
        <time>2014-07-19T08:37:35.000Z</time>
      </trkpt>
      <trkpt lat="46.61593" lon="6.10567">
        <ele>1088.1999511719</ele>
        <time>2014-07-19T08:37:38.000Z</time>
      </trkpt>
      <trkpt lat="46.61609" lon="6.10563">
        <ele>1088.8000488281</ele>
        <time>2014-07-19T08:37:43.000Z</time>
      </trkpt>
      <trkpt lat="46.61612" lon="6.10562">
        <ele>1089</ele>
        <time>2014-07-19T08:37:44.000Z</time>
      </trkpt>
      <trkpt lat="46.61629" lon="6.10555">
        <ele>1089.8000488281</ele>
        <time>2014-07-19T08:37:51.000Z</time>
      </trkpt>
      <trkpt lat="46.61636" lon="6.10549">
        <ele>1090.5999755859</ele>
        <time>2014-07-19T08:37:56.000Z</time>
      </trkpt>
      <trkpt lat="46.61647" lon="6.1054">
        <ele>1091.8000488281</ele>
        <time>2014-07-19T08:38:02.000Z</time>
      </trkpt>
      <trkpt lat="46.61653" lon="6.10536">
        <ele>1092.1999511719</ele>
        <time>2014-07-19T08:38:05.000Z</time>
      </trkpt>
      <trkpt lat="46.61663" lon="6.10532">
        <ele>1092.1999511719</ele>
        <time>2014-07-19T08:38:09.000Z</time>
      </trkpt>
      <trkpt lat="46.61666" lon="6.1053">
        <ele>1092.1999511719</ele>
        <time>2014-07-19T08:38:10.000Z</time>
      </trkpt>
      <trkpt lat="46.61679" lon="6.10536">
        <ele>1091</ele>
        <time>2014-07-19T08:38:15.000Z</time>
      </trkpt>
      <trkpt lat="46.61691" lon="6.10537">
        <ele>1090.4000244141</ele>
        <time>2014-07-19T08:38:19.000Z</time>
      </trkpt>
      <trkpt lat="46.61696" lon="6.10535">
        <ele>1090.1999511719</ele>
        <time>2014-07-19T08:38:21.000Z</time>
      </trkpt>
      <trkpt lat="46.6171" lon="6.10529">
        <ele>1090.1999511719</ele>
        <time>2014-07-19T08:38:27.000Z</time>
      </trkpt>
      <trkpt lat="46.61726" lon="6.10521">
        <ele>1090.5999755859</ele>
        <time>2014-07-19T08:38:34.000Z</time>
      </trkpt>
      <trkpt lat="46.61743" lon="6.10521">
        <ele>1090.8000488281</ele>
        <time>2014-07-19T08:38:41.000Z</time>
      </trkpt>
      <trkpt lat="46.61754" lon="6.10526">
        <ele>1090.8000488281</ele>
        <time>2014-07-19T08:38:46.000Z</time>
      </trkpt>
      <trkpt lat="46.61757" lon="6.10527">
        <ele>1091</ele>
        <time>2014-07-19T08:38:48.000Z</time>
      </trkpt>
      <trkpt lat="46.61764" lon="6.10529">
        <ele>1091.1999511719</ele>
        <time>2014-07-19T08:38:52.000Z</time>
      </trkpt>
      <trkpt lat="46.61771" lon="6.10531">
        <ele>1091.1999511719</ele>
        <time>2014-07-19T08:38:55.000Z</time>
      </trkpt>
      <trkpt lat="46.6179" lon="6.1053">
        <ele>1092.4000244141</ele>
        <time>2014-07-19T08:39:03.000Z</time>
      </trkpt>
      <trkpt lat="46.6181" lon="6.1053">
        <ele>1092.5999755859</ele>
        <time>2014-07-19T08:39:10.000Z</time>
      </trkpt>
      <trkpt lat="46.61824" lon="6.10525">
        <ele>1093.5999755859</ele>
        <time>2014-07-19T08:39:15.000Z</time>
      </trkpt>
      <trkpt lat="46.61841" lon="6.10517">
        <ele>1095.8000488281</ele>
        <time>2014-07-19T08:39:22.000Z</time>
      </trkpt>
      <trkpt lat="46.61854" lon="6.10511">
        <ele>1097.1999511719</ele>
        <time>2014-07-19T08:39:28.000Z</time>
      </trkpt>
      <trkpt lat="46.61869" lon="6.10502">
        <ele>1098.1999511719</ele>
        <time>2014-07-19T08:39:35.000Z</time>
      </trkpt>
      <trkpt lat="46.61882" lon="6.10498">
        <ele>1098.8000488281</ele>
        <time>2014-07-19T08:39:41.000Z</time>
      </trkpt>
      <trkpt lat="46.61885" lon="6.10499">
        <ele>1099</ele>
        <time>2014-07-19T08:39:43.000Z</time>
      </trkpt>
      <trkpt lat="46.61894" lon="6.10505">
        <ele>1099.1999511719</ele>
        <time>2014-07-19T08:39:50.000Z</time>
      </trkpt>
      <trkpt lat="46.61903" lon="6.10513">
        <ele>1099.8000488281</ele>
        <time>2014-07-19T08:39:58.000Z</time>
      </trkpt>
      <trkpt lat="46.61912" lon="6.10521">
        <ele>1101</ele>
        <time>2014-07-19T08:40:07.000Z</time>
      </trkpt>
      <trkpt lat="46.61919" lon="6.10529">
        <ele>1102</ele>
        <time>2014-07-19T08:40:14.000Z</time>
      </trkpt>
      <trkpt lat="46.61926" lon="6.10538">
        <ele>1103</ele>
        <time>2014-07-19T08:40:22.000Z</time>
      </trkpt>
      <trkpt lat="46.61934" lon="6.10545">
        <ele>1104.1999511719</ele>
        <time>2014-07-19T08:40:29.000Z</time>
      </trkpt>
      <trkpt lat="46.6194" lon="6.10549">
        <ele>1105</ele>
        <time>2014-07-19T08:40:33.000Z</time>
      </trkpt>
      <trkpt lat="46.6195" lon="6.10557">
        <ele>1106.5999755859</ele>
        <time>2014-07-19T08:40:42.000Z</time>
      </trkpt>
      <trkpt lat="46.61951" lon="6.10559">
        <ele>1106.5999755859</ele>
        <time>2014-07-19T08:40:43.000Z</time>
      </trkpt>
      <trkpt lat="46.61959" lon="6.10563">
        <ele>1107.8000488281</ele>
        <time>2014-07-19T08:40:49.000Z</time>
      </trkpt>
      <trkpt lat="46.61969" lon="6.10565">
        <ele>1109.4000244141</ele>
        <time>2014-07-19T08:40:56.000Z</time>
      </trkpt>
      <trkpt lat="46.61973" lon="6.10565">
        <ele>1110</ele>
        <time>2014-07-19T08:40:59.000Z</time>
      </trkpt>
      <trkpt lat="46.61979" lon="6.10565">
        <ele>1111</ele>
        <time>2014-07-19T08:41:04.000Z</time>
      </trkpt>
      <trkpt lat="46.61983" lon="6.10569">
        <ele>1111.5999755859</ele>
        <time>2014-07-19T08:41:08.000Z</time>
      </trkpt>
      <trkpt lat="46.61984" lon="6.1057">
        <ele>1111.8000488281</ele>
        <time>2014-07-19T08:41:09.000Z</time>
      </trkpt>
      <trkpt lat="46.61989" lon="6.10573">
        <ele>1112.4000244141</ele>
        <time>2014-07-19T08:41:13.000Z</time>
      </trkpt>
      <trkpt lat="46.61994" lon="6.10575">
        <ele>1113</ele>
        <time>2014-07-19T08:41:18.000Z</time>
      </trkpt>
      <trkpt lat="46.61998" lon="6.10576">
        <ele>1113.5999755859</ele>
        <time>2014-07-19T08:41:21.000Z</time>
      </trkpt>
      <trkpt lat="46.62003" lon="6.10577">
        <ele>1114.4000244141</ele>
        <time>2014-07-19T08:41:27.000Z</time>
      </trkpt>
      <trkpt lat="46.62006" lon="6.10575">
        <ele>1115</ele>
        <time>2014-07-19T08:41:31.000Z</time>
      </trkpt>
      <trkpt lat="46.62008" lon="6.10574">
        <ele>1115.4000244141</ele>
        <time>2014-07-19T08:41:33.000Z</time>
      </trkpt>
      <trkpt lat="46.62012" lon="6.10575">
        <ele>1116</ele>
        <time>2014-07-19T08:41:37.000Z</time>
      </trkpt>
      <trkpt lat="46.62014" lon="6.10577">
        <ele>1116.4000244141</ele>
        <time>2014-07-19T08:41:40.000Z</time>
      </trkpt>
      <trkpt lat="46.62021" lon="6.10578">
        <ele>1117.5999755859</ele>
        <time>2014-07-19T08:41:45.000Z</time>
      </trkpt>
      <trkpt lat="46.62027" lon="6.10575">
        <ele>1118.8000488281</ele>
        <time>2014-07-19T08:41:52.000Z</time>
      </trkpt>
      <trkpt lat="46.62029" lon="6.10573">
        <ele>1119.4000244141</ele>
        <time>2014-07-19T08:41:55.000Z</time>
      </trkpt>
      <trkpt lat="46.62033" lon="6.1057">
        <ele>1120</ele>
        <time>2014-07-19T08:42:00.000Z</time>
      </trkpt>
      <trkpt lat="46.62038" lon="6.10566">
        <ele>1121.1999511719</ele>
        <time>2014-07-19T08:42:06.000Z</time>
      </trkpt>
      <trkpt lat="46.62043" lon="6.10562">
        <ele>1122.1999511719</ele>
        <time>2014-07-19T08:42:11.000Z</time>
      </trkpt>
      <trkpt lat="46.62043" lon="6.10562">
        <ele>1122.1999511719</ele>
        <time>2014-07-19T08:42:12.000Z</time>
      </trkpt>
      <trkpt lat="46.62046" lon="6.1056">
        <ele>1123</ele>
        <time>2014-07-19T08:42:15.000Z</time>
      </trkpt>
      <trkpt lat="46.62048" lon="6.1056">
        <ele>1123.1999511719</ele>
        <time>2014-07-19T08:42:16.000Z</time>
      </trkpt>
      <trkpt lat="46.6205" lon="6.10558">
        <ele>1123.5999755859</ele>
        <time>2014-07-19T08:42:18.000Z</time>
      </trkpt>
      <trkpt lat="46.62053" lon="6.10558">
        <ele>1124.1999511719</ele>
        <time>2014-07-19T08:42:21.000Z</time>
      </trkpt>
      <trkpt lat="46.62059" lon="6.10557">
        <ele>1125.1999511719</ele>
        <time>2014-07-19T08:42:27.000Z</time>
      </trkpt>
      <trkpt lat="46.62062" lon="6.10555">
        <ele>1125.8000488281</ele>
        <time>2014-07-19T08:42:29.000Z</time>
      </trkpt>
      <trkpt lat="46.62072" lon="6.1055">
        <ele>1127.5999755859</ele>
        <time>2014-07-19T08:42:39.000Z</time>
      </trkpt>
      <trkpt lat="46.62076" lon="6.10544">
        <ele>1128</ele>
        <time>2014-07-19T08:42:44.000Z</time>
      </trkpt>
      <trkpt lat="46.62082" lon="6.10536">
        <ele>1128.8000488281</ele>
        <time>2014-07-19T08:42:52.000Z</time>
      </trkpt>
      <trkpt lat="46.62083" lon="6.10535">
        <ele>1129</ele>
        <time>2014-07-19T08:42:54.000Z</time>
      </trkpt>
      <trkpt lat="46.6209" lon="6.10529">
        <ele>1130</ele>
        <time>2014-07-19T08:43:01.000Z</time>
      </trkpt>
      <trkpt lat="46.62096" lon="6.10523">
        <ele>1130.8000488281</ele>
        <time>2014-07-19T08:43:06.000Z</time>
      </trkpt>
      <trkpt lat="46.62103" lon="6.10515">
        <ele>1131.5999755859</ele>
        <time>2014-07-19T08:43:13.000Z</time>
      </trkpt>
      <trkpt lat="46.62109" lon="6.10508">
        <ele>1132.5999755859</ele>
        <time>2014-07-19T08:43:18.000Z</time>
      </trkpt>
      <trkpt lat="46.62115" lon="6.105">
        <ele>1133.5999755859</ele>
        <time>2014-07-19T08:43:24.000Z</time>
      </trkpt>
      <trkpt lat="46.6212" lon="6.10491">
        <ele>1134.4000244141</ele>
        <time>2014-07-19T08:43:31.000Z</time>
      </trkpt>
      <trkpt lat="46.62124" lon="6.1049">
        <ele>1135</ele>
        <time>2014-07-19T08:43:37.000Z</time>
      </trkpt>
      <trkpt lat="46.62128" lon="6.1049">
        <ele>1135.5999755859</ele>
        <time>2014-07-19T08:43:42.000Z</time>
      </trkpt>
      <trkpt lat="46.62134" lon="6.10485">
        <ele>1136.4000244141</ele>
        <time>2014-07-19T08:43:47.000Z</time>
      </trkpt>
      <trkpt lat="46.62138" lon="6.10482">
        <ele>1137</ele>
        <time>2014-07-19T08:43:50.000Z</time>
      </trkpt>
      <trkpt lat="46.62144" lon="6.10478">
        <ele>1137.8000488281</ele>
        <time>2014-07-19T08:43:54.000Z</time>
      </trkpt>
      <trkpt lat="46.62146" lon="6.10477">
        <ele>1138.1999511719</ele>
        <time>2014-07-19T08:43:56.000Z</time>
      </trkpt>
      <trkpt lat="46.62155" lon="6.10473">
        <ele>1139.1999511719</ele>
        <time>2014-07-19T08:44:03.000Z</time>
      </trkpt>
      <trkpt lat="46.62159" lon="6.10471">
        <ele>1139.1999511719</ele>
        <time>2014-07-19T08:44:07.000Z</time>
      </trkpt>
      <trkpt lat="46.62165" lon="6.10467">
        <ele>1139.5999755859</ele>
        <time>2014-07-19T08:44:11.000Z</time>
      </trkpt>
      <trkpt lat="46.62174" lon="6.10461">
        <ele>1140</ele>
        <time>2014-07-19T08:44:18.000Z</time>
      </trkpt>
      <trkpt lat="46.62178" lon="6.10458">
        <ele>1140</ele>
        <time>2014-07-19T08:44:21.000Z</time>
      </trkpt>
      <trkpt lat="46.62189" lon="6.10452">
        <ele>1140.4000244141</ele>
        <time>2014-07-19T08:44:26.000Z</time>
      </trkpt>
      <trkpt lat="46.62191" lon="6.10452">
        <ele>1140.5999755859</ele>
        <time>2014-07-19T08:44:27.000Z</time>
      </trkpt>
      <trkpt lat="46.62201" lon="6.10453">
        <ele>1140.8000488281</ele>
        <time>2014-07-19T08:44:32.000Z</time>
      </trkpt>
      <trkpt lat="46.62202" lon="6.10456">
        <ele>1140.5999755859</ele>
        <time>2014-07-19T08:44:33.000Z</time>
      </trkpt>
      <trkpt lat="46.62207" lon="6.10465">
        <ele>1140.5999755859</ele>
        <time>2014-07-19T08:44:38.000Z</time>
      </trkpt>
      <trkpt lat="46.62209" lon="6.10467">
        <ele>1140.5999755859</ele>
        <time>2014-07-19T08:44:39.000Z</time>
      </trkpt>
      <trkpt lat="46.62211" lon="6.10469">
        <ele>1140.5999755859</ele>
        <time>2014-07-19T08:44:41.000Z</time>
      </trkpt>
      <trkpt lat="46.62219" lon="6.10472">
        <ele>1140.8000488281</ele>
        <time>2014-07-19T08:44:49.000Z</time>
      </trkpt>
      <trkpt lat="46.62221" lon="6.10475">
        <ele>1140.8000488281</ele>
        <time>2014-07-19T08:44:51.000Z</time>
      </trkpt>
      <trkpt lat="46.62227" lon="6.10482">
        <ele>1140.8000488281</ele>
        <time>2014-07-19T08:44:56.000Z</time>
      </trkpt>
      <trkpt lat="46.62227" lon="6.10484">
        <ele>1140.8000488281</ele>
        <time>2014-07-19T08:44:57.000Z</time>
      </trkpt>
      <trkpt lat="46.62233" lon="6.10491">
        <ele>1141</ele>
        <time>2014-07-19T08:45:03.000Z</time>
      </trkpt>
      <trkpt lat="46.62239" lon="6.10495">
        <ele>1141.1999511719</ele>
        <time>2014-07-19T08:45:08.000Z</time>
      </trkpt>
      <trkpt lat="46.62245" lon="6.10505">
        <ele>1141.5999755859</ele>
        <time>2014-07-19T08:45:14.000Z</time>
      </trkpt>
      <trkpt lat="46.62249" lon="6.1052">
        <ele>1142</ele>
        <time>2014-07-19T08:45:21.000Z</time>
      </trkpt>
      <trkpt lat="46.62251" lon="6.10532">
        <ele>1142.1999511719</ele>
        <time>2014-07-19T08:45:27.000Z</time>
      </trkpt>
      <trkpt lat="46.62259" lon="6.1054">
        <ele>1142.5999755859</ele>
        <time>2014-07-19T08:45:36.000Z</time>
      </trkpt>
      <trkpt lat="46.62259" lon="6.10541">
        <ele>1142.8000488281</ele>
        <time>2014-07-19T08:45:37.000Z</time>
      </trkpt>
      <trkpt lat="46.62256" lon="6.10549">
        <ele>1142.5999755859</ele>
        <time>2014-07-19T08:45:44.000Z</time>
      </trkpt>
      <trkpt lat="46.62254" lon="6.10554">
        <ele>1142.4000244141</ele>
        <time>2014-07-19T08:45:49.000Z</time>
      </trkpt>
      <trkpt lat="46.62247" lon="6.10563">
        <ele>1142</ele>
        <time>2014-07-19T08:45:55.000Z</time>
      </trkpt>
      <trkpt lat="46.62245" lon="6.10564">
        <ele>1141.8000488281</ele>
        <time>2014-07-19T08:45:56.000Z</time>
      </trkpt>
      <trkpt lat="46.62234" lon="6.10575">
        <ele>1141.5999755859</ele>
        <time>2014-07-19T08:46:02.000Z</time>
      </trkpt>
      <trkpt lat="46.62223" lon="6.10584">
        <ele>1141.5999755859</ele>
        <time>2014-07-19T08:46:07.000Z</time>
      </trkpt>
      <trkpt lat="46.62209" lon="6.10599">
        <ele>1141.5999755859</ele>
        <time>2014-07-19T08:46:12.000Z</time>
      </trkpt>
      <trkpt lat="46.62194" lon="6.10615">
        <ele>1141</ele>
        <time>2014-07-19T08:46:16.000Z</time>
      </trkpt>
      <trkpt lat="46.62183" lon="6.10629">
        <ele>1140</ele>
        <time>2014-07-19T08:46:19.000Z</time>
      </trkpt>
      <trkpt lat="46.62163" lon="6.10653">
        <ele>1138</ele>
        <time>2014-07-19T08:46:24.000Z</time>
      </trkpt>
      <trkpt lat="46.6215" lon="6.10674">
        <ele>1136.1999511719</ele>
        <time>2014-07-19T08:46:28.000Z</time>
      </trkpt>
      <trkpt lat="46.62134" lon="6.10696">
        <ele>1133.4000244141</ele>
        <time>2014-07-19T08:46:32.000Z</time>
      </trkpt>
      <trkpt lat="46.62121" lon="6.10714">
        <ele>1130.4000244141</ele>
        <time>2014-07-19T08:46:35.000Z</time>
      </trkpt>
      <trkpt lat="46.62107" lon="6.10732">
        <ele>1127.4000244141</ele>
        <time>2014-07-19T08:46:38.000Z</time>
      </trkpt>
      <trkpt lat="46.62093" lon="6.10751">
        <ele>1125.1999511719</ele>
        <time>2014-07-19T08:46:41.000Z</time>
      </trkpt>
      <trkpt lat="46.62079" lon="6.1077">
        <ele>1125.8000488281</ele>
        <time>2014-07-19T08:46:44.000Z</time>
      </trkpt>
      <trkpt lat="46.62065" lon="6.10789">
        <ele>1126.1999511719</ele>
        <time>2014-07-19T08:46:47.000Z</time>
      </trkpt>
      <trkpt lat="46.6205" lon="6.10807">
        <ele>1125.1999511719</ele>
        <time>2014-07-19T08:46:50.000Z</time>
      </trkpt>
      <trkpt lat="46.62034" lon="6.10825">
        <ele>1123.1999511719</ele>
        <time>2014-07-19T08:46:53.000Z</time>
      </trkpt>
      <trkpt lat="46.62019" lon="6.10843">
        <ele>1121</ele>
        <time>2014-07-19T08:46:56.000Z</time>
      </trkpt>
      <trkpt lat="46.62017" lon="6.10847">
        <ele>1120.5999755859</ele>
        <time>2014-07-19T08:46:57.000Z</time>
      </trkpt>
      <trkpt lat="46.62013" lon="6.10854">
        <ele>1120</ele>
        <time>2014-07-19T08:46:58.000Z</time>
      </trkpt>
      <trkpt lat="46.62004" lon="6.10864">
        <ele>1118.4000244141</ele>
        <time>2014-07-19T08:47:00.000Z</time>
      </trkpt>
      <trkpt lat="46.61981" lon="6.10891">
        <ele>1114.5999755859</ele>
        <time>2014-07-19T08:47:05.000Z</time>
      </trkpt>
      <trkpt lat="46.61976" lon="6.10896">
        <ele>1113.8000488281</ele>
        <time>2014-07-19T08:47:06.000Z</time>
      </trkpt>
      <trkpt lat="46.61952" lon="6.10914">
        <ele>1111.1999511719</ele>
        <time>2014-07-19T08:47:10.000Z</time>
      </trkpt>
      <trkpt lat="46.61933" lon="6.10927">
        <ele>1109.4000244141</ele>
        <time>2014-07-19T08:47:13.000Z</time>
      </trkpt>
      <trkpt lat="46.6191" lon="6.10941">
        <ele>1108.1999511719</ele>
        <time>2014-07-19T08:47:16.000Z</time>
      </trkpt>
      <trkpt lat="46.61888" lon="6.10954">
        <ele>1107.8000488281</ele>
        <time>2014-07-19T08:47:19.000Z</time>
      </trkpt>
      <trkpt lat="46.61867" lon="6.10965">
        <ele>1107</ele>
        <time>2014-07-19T08:47:22.000Z</time>
      </trkpt>
      <trkpt lat="46.61855" lon="6.10972">
        <ele>1106.4000244141</ele>
        <time>2014-07-19T08:47:24.000Z</time>
      </trkpt>
      <trkpt lat="46.61833" lon="6.1099">
        <ele>1106.4000244141</ele>
        <time>2014-07-19T08:47:29.000Z</time>
      </trkpt>
      <trkpt lat="46.61827" lon="6.10996">
        <ele>1106.5999755859</ele>
        <time>2014-07-19T08:47:31.000Z</time>
      </trkpt>
      <trkpt lat="46.61806" lon="6.11012">
        <ele>1108.1999511719</ele>
        <time>2014-07-19T08:47:39.000Z</time>
      </trkpt>
      <trkpt lat="46.6179" lon="6.11027">
        <ele>1109.5999755859</ele>
        <time>2014-07-19T08:47:46.000Z</time>
      </trkpt>
      <trkpt lat="46.61774" lon="6.11042">
        <ele>1109.4000244141</ele>
        <time>2014-07-19T08:47:53.000Z</time>
      </trkpt>
      <trkpt lat="46.61758" lon="6.11058">
        <ele>1108.8000488281</ele>
        <time>2014-07-19T08:48:00.000Z</time>
      </trkpt>
      <trkpt lat="46.61742" lon="6.11073">
        <ele>1108.8000488281</ele>
        <time>2014-07-19T08:48:07.000Z</time>
      </trkpt>
      <trkpt lat="46.61726" lon="6.11089">
        <ele>1109.1999511719</ele>
        <time>2014-07-19T08:48:15.000Z</time>
      </trkpt>
      <trkpt lat="46.61711" lon="6.11104">
        <ele>1110.4000244141</ele>
        <time>2014-07-19T08:48:22.000Z</time>
      </trkpt>
      <trkpt lat="46.61697" lon="6.11121">
        <ele>1110.4000244141</ele>
        <time>2014-07-19T08:48:29.000Z</time>
      </trkpt>
      <trkpt lat="46.61683" lon="6.11137">
        <ele>1109.4000244141</ele>
        <time>2014-07-19T08:48:36.000Z</time>
      </trkpt>
      <trkpt lat="46.6167" lon="6.1115">
        <ele>1109</ele>
        <time>2014-07-19T08:48:42.000Z</time>
      </trkpt>
      <trkpt lat="46.61655" lon="6.11167">
        <ele>1108.8000488281</ele>
        <time>2014-07-19T08:48:49.000Z</time>
      </trkpt>
      <trkpt lat="46.6164" lon="6.1118">
        <ele>1109.4000244141</ele>
        <time>2014-07-19T08:48:56.000Z</time>
      </trkpt>
      <trkpt lat="46.61638" lon="6.11182">
        <ele>1109.5999755859</ele>
        <time>2014-07-19T08:48:57.000Z</time>
      </trkpt>
      <trkpt lat="46.61642" lon="6.1119">
        <ele>1110</ele>
        <time>2014-07-19T08:49:01.000Z</time>
      </trkpt>
      <trkpt lat="46.61661" lon="6.11198">
        <ele>1111.1999511719</ele>
        <time>2014-07-19T08:49:09.000Z</time>
      </trkpt>
      <trkpt lat="46.61665" lon="6.11199">
        <ele>1111.5999755859</ele>
        <time>2014-07-19T08:49:10.000Z</time>
      </trkpt>
      <trkpt lat="46.61679" lon="6.11206">
        <ele>1113.4000244141</ele>
        <time>2014-07-19T08:49:14.000Z</time>
      </trkpt>
      <trkpt lat="46.61693" lon="6.11215">
        <ele>1115.1999511719</ele>
        <time>2014-07-19T08:49:19.000Z</time>
      </trkpt>
      <trkpt lat="46.61703" lon="6.1123">
        <ele>1117.1999511719</ele>
        <time>2014-07-19T08:49:25.000Z</time>
      </trkpt>
      <trkpt lat="46.61714" lon="6.11253">
        <ele>1119.8000488281</ele>
        <time>2014-07-19T08:49:32.000Z</time>
      </trkpt>
      <trkpt lat="46.61716" lon="6.11256">
        <ele>1120.1999511719</ele>
        <time>2014-07-19T08:49:33.000Z</time>
      </trkpt>
      <trkpt lat="46.6173" lon="6.11271">
        <ele>1122.5999755859</ele>
        <time>2014-07-19T08:49:40.000Z</time>
      </trkpt>
      <trkpt lat="46.61733" lon="6.11275">
        <ele>1123.1999511719</ele>
        <time>2014-07-19T08:49:42.000Z</time>
      </trkpt>
      <trkpt lat="46.61737" lon="6.11281">
        <ele>1124</ele>
        <time>2014-07-19T08:49:46.000Z</time>
      </trkpt>
      <trkpt lat="46.6175" lon="6.11299">
        <ele>1125.8000488281</ele>
        <time>2014-07-19T08:50:00.000Z</time>
      </trkpt>
      <trkpt lat="46.61752" lon="6.11302">
        <ele>1126.1999511719</ele>
        <time>2014-07-19T08:50:03.000Z</time>
      </trkpt>
      <trkpt lat="46.61756" lon="6.11311">
        <ele>1127</ele>
        <time>2014-07-19T08:50:09.000Z</time>
      </trkpt>
      <trkpt lat="46.61757" lon="6.11312">
        <ele>1127</ele>
        <time>2014-07-19T08:50:10.000Z</time>
      </trkpt>
      <trkpt lat="46.61759" lon="6.11315">
        <ele>1127.1999511719</ele>
        <time>2014-07-19T08:50:12.000Z</time>
      </trkpt>
      <trkpt lat="46.61764" lon="6.11324">
        <ele>1127.8000488281</ele>
        <time>2014-07-19T08:50:18.000Z</time>
      </trkpt>
      <trkpt lat="46.61765" lon="6.11326">
        <ele>1127.8000488281</ele>
        <time>2014-07-19T08:50:19.000Z</time>
      </trkpt>
      <trkpt lat="46.61765" lon="6.11328">
        <ele>1127.8000488281</ele>
        <time>2014-07-19T08:50:20.000Z</time>
      </trkpt>
      <trkpt lat="46.61767" lon="6.11334">
        <ele>1128</ele>
        <time>2014-07-19T08:50:23.000Z</time>
      </trkpt>
      <trkpt lat="46.61771" lon="6.11341">
        <ele>1128.4000244141</ele>
        <time>2014-07-19T08:50:27.000Z</time>
      </trkpt>
      <trkpt lat="46.61773" lon="6.11352">
        <ele>1129</ele>
        <time>2014-07-19T08:50:32.000Z</time>
      </trkpt>
      <trkpt lat="46.61777" lon="6.11359">
        <ele>1129.4000244141</ele>
        <time>2014-07-19T08:50:36.000Z</time>
      </trkpt>
      <trkpt lat="46.61779" lon="6.11362">
        <ele>1129.5999755859</ele>
        <time>2014-07-19T08:50:38.000Z</time>
      </trkpt>
      <trkpt lat="46.61784" lon="6.1137">
        <ele>1130.1999511719</ele>
        <time>2014-07-19T08:50:43.000Z</time>
      </trkpt>
      <trkpt lat="46.61786" lon="6.11378">
        <ele>1130.5999755859</ele>
        <time>2014-07-19T08:50:47.000Z</time>
      </trkpt>
      <trkpt lat="46.61789" lon="6.1139">
        <ele>1131.4000244141</ele>
        <time>2014-07-19T08:50:52.000Z</time>
      </trkpt>
      <trkpt lat="46.61789" lon="6.11392">
        <ele>1131.5999755859</ele>
        <time>2014-07-19T08:50:53.000Z</time>
      </trkpt>
      <trkpt lat="46.61793" lon="6.11406">
        <ele>1132</ele>
        <time>2014-07-19T08:50:59.000Z</time>
      </trkpt>
      <trkpt lat="46.61799" lon="6.11418">
        <ele>1132.4000244141</ele>
        <time>2014-07-19T08:51:04.000Z</time>
      </trkpt>
      <trkpt lat="46.61806" lon="6.11431">
        <ele>1132.8000488281</ele>
        <time>2014-07-19T08:51:10.000Z</time>
      </trkpt>
      <trkpt lat="46.61814" lon="6.11443">
        <ele>1133.1999511719</ele>
        <time>2014-07-19T08:51:16.000Z</time>
      </trkpt>
      <trkpt lat="46.61823" lon="6.11454">
        <ele>1133.8000488281</ele>
        <time>2014-07-19T08:51:22.000Z</time>
      </trkpt>
      <trkpt lat="46.61826" lon="6.11467">
        <ele>1134.4000244141</ele>
        <time>2014-07-19T08:51:26.000Z</time>
      </trkpt>
      <trkpt lat="46.61834" lon="6.11484">
        <ele>1135.1999511719</ele>
        <time>2014-07-19T08:51:32.000Z</time>
      </trkpt>
      <trkpt lat="46.61845" lon="6.11498">
        <ele>1136.4000244141</ele>
        <time>2014-07-19T08:51:40.000Z</time>
      </trkpt>
      <trkpt lat="46.61846" lon="6.115">
        <ele>1136.5999755859</ele>
        <time>2014-07-19T08:51:41.000Z</time>
      </trkpt>
      <trkpt lat="46.61852" lon="6.1151">
        <ele>1137.1999511719</ele>
        <time>2014-07-19T08:51:46.000Z</time>
      </trkpt>
      <trkpt lat="46.61855" lon="6.11519">
        <ele>1137.8000488281</ele>
        <time>2014-07-19T08:51:50.000Z</time>
      </trkpt>
      <trkpt lat="46.61857" lon="6.11535">
        <ele>1138.4000244141</ele>
        <time>2014-07-19T08:51:57.000Z</time>
      </trkpt>
      <trkpt lat="46.61854" lon="6.11545">
        <ele>1138.5999755859</ele>
        <time>2014-07-19T08:52:01.000Z</time>
      </trkpt>
      <trkpt lat="46.61849" lon="6.11569">
        <ele>1139.1999511719</ele>
        <time>2014-07-19T08:52:08.000Z</time>
      </trkpt>
      <trkpt lat="46.61847" lon="6.11583">
        <ele>1139.5999755859</ele>
        <time>2014-07-19T08:52:12.000Z</time>
      </trkpt>
      <trkpt lat="46.61844" lon="6.1161">
        <ele>1140</ele>
        <time>2014-07-19T08:52:18.000Z</time>
      </trkpt>
      <trkpt lat="46.61838" lon="6.11626">
        <ele>1140</ele>
        <time>2014-07-19T08:52:23.000Z</time>
      </trkpt>
      <trkpt lat="46.61831" lon="6.11648">
        <ele>1140</ele>
        <time>2014-07-19T08:52:30.000Z</time>
      </trkpt>
      <trkpt lat="46.61827" lon="6.11669">
        <ele>1140.8000488281</ele>
        <time>2014-07-19T08:52:36.000Z</time>
      </trkpt>
      <trkpt lat="46.61817" lon="6.11691">
        <ele>1141.8000488281</ele>
        <time>2014-07-19T08:52:43.000Z</time>
      </trkpt>
      <trkpt lat="46.61808" lon="6.11714">
        <ele>1142.4000244141</ele>
        <time>2014-07-19T08:52:50.000Z</time>
      </trkpt>
      <trkpt lat="46.61802" lon="6.11729">
        <ele>1142</ele>
        <time>2014-07-19T08:52:55.000Z</time>
      </trkpt>
      <trkpt lat="46.61796" lon="6.11747">
        <ele>1141.8000488281</ele>
        <time>2014-07-19T08:53:00.000Z</time>
      </trkpt>
      <trkpt lat="46.61786" lon="6.11771">
        <ele>1141.1999511719</ele>
        <time>2014-07-19T08:53:07.000Z</time>
      </trkpt>
      <trkpt lat="46.61777" lon="6.11794">
        <ele>1140.8000488281</ele>
        <time>2014-07-19T08:53:13.000Z</time>
      </trkpt>
      <trkpt lat="46.61768" lon="6.11819">
        <ele>1140.4000244141</ele>
        <time>2014-07-19T08:53:19.000Z</time>
      </trkpt>
      <trkpt lat="46.61758" lon="6.11844">
        <ele>1139.4000244141</ele>
        <time>2014-07-19T08:53:26.000Z</time>
      </trkpt>
      <trkpt lat="46.61752" lon="6.1187">
        <ele>1140.4000244141</ele>
        <time>2014-07-19T08:53:32.000Z</time>
      </trkpt>
      <trkpt lat="46.61746" lon="6.11889">
        <ele>1141.1999511719</ele>
        <time>2014-07-19T08:53:37.000Z</time>
      </trkpt>
      <trkpt lat="46.61732" lon="6.11909">
        <ele>1141.8000488281</ele>
        <time>2014-07-19T08:53:43.000Z</time>
      </trkpt>
      <trkpt lat="46.61723" lon="6.11918">
        <ele>1141.5999755859</ele>
        <time>2014-07-19T08:53:47.000Z</time>
      </trkpt>
      <trkpt lat="46.61706" lon="6.11929">
        <ele>1141.4000244141</ele>
        <time>2014-07-19T08:53:52.000Z</time>
      </trkpt>
      <trkpt lat="46.61688" lon="6.11932">
        <ele>1140.5999755859</ele>
        <time>2014-07-19T08:53:58.000Z</time>
      </trkpt>
      <trkpt lat="46.61672" lon="6.11929">
        <ele>1139.8000488281</ele>
        <time>2014-07-19T08:54:02.000Z</time>
      </trkpt>
      <trkpt lat="46.61661" lon="6.11929">
        <ele>1139.5999755859</ele>
        <time>2014-07-19T08:54:06.000Z</time>
      </trkpt>
      <trkpt lat="46.6165" lon="6.11928">
        <ele>1139.1999511719</ele>
        <time>2014-07-19T08:54:10.000Z</time>
      </trkpt>
      <trkpt lat="46.61631" lon="6.11929">
        <ele>1138.5999755859</ele>
        <time>2014-07-19T08:54:15.000Z</time>
      </trkpt>
      <trkpt lat="46.61615" lon="6.11933">
        <ele>1138.4000244141</ele>
        <time>2014-07-19T08:54:20.000Z</time>
      </trkpt>
      <trkpt lat="46.61601" lon="6.11944">
        <ele>1138.5999755859</ele>
        <time>2014-07-19T08:54:25.000Z</time>
      </trkpt>
      <trkpt lat="46.61592" lon="6.11959">
        <ele>1139</ele>
        <time>2014-07-19T08:54:30.000Z</time>
      </trkpt>
      <trkpt lat="46.61583" lon="6.11974">
        <ele>1139.5999755859</ele>
        <time>2014-07-19T08:54:35.000Z</time>
      </trkpt>
      <trkpt lat="46.61574" lon="6.11988">
        <ele>1139.8000488281</ele>
        <time>2014-07-19T08:54:40.000Z</time>
      </trkpt>
      <trkpt lat="46.61564" lon="6.12003">
        <ele>1140.1999511719</ele>
        <time>2014-07-19T08:54:45.000Z</time>
      </trkpt>
      <trkpt lat="46.61546" lon="6.12014">
        <ele>1140.5999755859</ele>
        <time>2014-07-19T08:54:50.000Z</time>
      </trkpt>
      <trkpt lat="46.61525" lon="6.12012">
        <ele>1140.1999511719</ele>
        <time>2014-07-19T08:54:55.000Z</time>
      </trkpt>
      <trkpt lat="46.61517" lon="6.1201">
        <ele>1140</ele>
        <time>2014-07-19T08:54:57.000Z</time>
      </trkpt>
      <trkpt lat="46.61504" lon="6.12009">
        <ele>1139.5999755859</ele>
        <time>2014-07-19T08:55:01.000Z</time>
      </trkpt>
      <trkpt lat="46.61487" lon="6.12015">
        <ele>1139.4000244141</ele>
        <time>2014-07-19T08:55:08.000Z</time>
      </trkpt>
      <trkpt lat="46.61474" lon="6.12019">
        <ele>1139</ele>
        <time>2014-07-19T08:55:12.000Z</time>
      </trkpt>
      <trkpt lat="46.61459" lon="6.12023">
        <ele>1138.4000244141</ele>
        <time>2014-07-19T08:55:15.000Z</time>
      </trkpt>
      <trkpt lat="46.61455" lon="6.12026">
        <ele>1138.1999511719</ele>
        <time>2014-07-19T08:55:16.000Z</time>
      </trkpt>
      <trkpt lat="46.61446" lon="6.12033">
        <ele>1138</ele>
        <time>2014-07-19T08:55:19.000Z</time>
      </trkpt>
      <trkpt lat="46.61441" lon="6.12039">
        <ele>1137.8000488281</ele>
        <time>2014-07-19T08:55:21.000Z</time>
      </trkpt>
      <trkpt lat="46.61433" lon="6.12054">
        <ele>1137.5999755859</ele>
        <time>2014-07-19T08:55:25.000Z</time>
      </trkpt>
      <trkpt lat="46.6143" lon="6.12058">
        <ele>1137.5999755859</ele>
        <time>2014-07-19T08:55:26.000Z</time>
      </trkpt>
      <trkpt lat="46.61416" lon="6.12075">
        <ele>1137.5999755859</ele>
        <time>2014-07-19T08:55:31.000Z</time>
      </trkpt>
      <trkpt lat="46.61407" lon="6.12088">
        <ele>1137</ele>
        <time>2014-07-19T08:55:35.000Z</time>
      </trkpt>
      <trkpt lat="46.61405" lon="6.12089">
        <ele>1137</ele>
        <time>2014-07-19T08:55:36.000Z</time>
      </trkpt>
      <trkpt lat="46.61395" lon="6.12107">
        <ele>1136.5999755859</ele>
        <time>2014-07-19T08:55:41.000Z</time>
      </trkpt>
      <trkpt lat="46.61379" lon="6.1212">
        <ele>1135.5999755859</ele>
        <time>2014-07-19T08:55:46.000Z</time>
      </trkpt>
      <trkpt lat="46.61358" lon="6.12123">
        <ele>1133.5999755859</ele>
        <time>2014-07-19T08:55:51.000Z</time>
      </trkpt>
      <trkpt lat="46.61344" lon="6.12126">
        <ele>1132.1999511719</ele>
        <time>2014-07-19T08:55:55.000Z</time>
      </trkpt>
      <trkpt lat="46.61332" lon="6.12138">
        <ele>1131.1999511719</ele>
        <time>2014-07-19T08:55:58.000Z</time>
      </trkpt>
      <trkpt lat="46.61327" lon="6.12144">
        <ele>1130.8000488281</ele>
        <time>2014-07-19T08:55:59.000Z</time>
      </trkpt>
      <trkpt lat="46.61321" lon="6.12153">
        <ele>1130.5999755859</ele>
        <time>2014-07-19T08:56:01.000Z</time>
      </trkpt>
      <trkpt lat="46.61308" lon="6.12168">
        <ele>1130.4000244141</ele>
        <time>2014-07-19T08:56:05.000Z</time>
      </trkpt>
      <trkpt lat="46.61296" lon="6.12174">
        <ele>1129.8000488281</ele>
        <time>2014-07-19T08:56:08.000Z</time>
      </trkpt>
      <trkpt lat="46.61291" lon="6.12173">
        <ele>1129.4000244141</ele>
        <time>2014-07-19T08:56:09.000Z</time>
      </trkpt>
      <trkpt lat="46.61282" lon="6.12171">
        <ele>1128.5999755859</ele>
        <time>2014-07-19T08:56:11.000Z</time>
      </trkpt>
      <trkpt lat="46.61265" lon="6.12176">
        <ele>1127.5999755859</ele>
        <time>2014-07-19T08:56:15.000Z</time>
      </trkpt>
      <trkpt lat="46.6125" lon="6.12196">
        <ele>1126.1999511719</ele>
        <time>2014-07-19T08:56:18.000Z</time>
      </trkpt>
      <trkpt lat="46.61245" lon="6.12204">
        <ele>1125.8000488281</ele>
        <time>2014-07-19T08:56:19.000Z</time>
      </trkpt>
      <trkpt lat="46.6124" lon="6.1221">
        <ele>1125.1999511719</ele>
        <time>2014-07-19T08:56:20.000Z</time>
      </trkpt>
      <trkpt lat="46.61222" lon="6.12232">
        <ele>1123.8000488281</ele>
        <time>2014-07-19T08:56:24.000Z</time>
      </trkpt>
      <trkpt lat="46.61213" lon="6.12241">
        <ele>1123.1999511719</ele>
        <time>2014-07-19T08:56:26.000Z</time>
      </trkpt>
      <trkpt lat="46.61205" lon="6.12248">
        <ele>1122.5999755859</ele>
        <time>2014-07-19T08:56:28.000Z</time>
      </trkpt>
      <trkpt lat="46.61188" lon="6.12254">
        <ele>1120.8000488281</ele>
        <time>2014-07-19T08:56:31.000Z</time>
      </trkpt>
      <trkpt lat="46.61163" lon="6.12253">
        <ele>1117.8000488281</ele>
        <time>2014-07-19T08:56:35.000Z</time>
      </trkpt>
      <trkpt lat="46.61156" lon="6.12252">
        <ele>1117</ele>
        <time>2014-07-19T08:56:38.000Z</time>
      </trkpt>
      <trkpt lat="46.61145" lon="6.12271">
        <ele>1117.4000244141</ele>
        <time>2014-07-19T08:56:44.000Z</time>
      </trkpt>
      <trkpt lat="46.61143" lon="6.12297">
        <ele>1119</ele>
        <time>2014-07-19T08:56:49.000Z</time>
      </trkpt>
      <trkpt lat="46.61141" lon="6.12316">
        <ele>1119.5999755859</ele>
        <time>2014-07-19T08:56:53.000Z</time>
      </trkpt>
      <trkpt lat="46.6114" lon="6.1233">
        <ele>1119.8000488281</ele>
        <time>2014-07-19T08:56:57.000Z</time>
      </trkpt>
      <trkpt lat="46.61139" lon="6.12344">
        <ele>1120.1999511719</ele>
        <time>2014-07-19T08:57:00.000Z</time>
      </trkpt>
      <trkpt lat="46.61146" lon="6.12365">
        <ele>1121</ele>
        <time>2014-07-19T08:57:05.000Z</time>
      </trkpt>
      <trkpt lat="46.61153" lon="6.12384">
        <ele>1121.8000488281</ele>
        <time>2014-07-19T08:57:10.000Z</time>
      </trkpt>
      <trkpt lat="46.61153" lon="6.12388">
        <ele>1122</ele>
        <time>2014-07-19T08:57:11.000Z</time>
      </trkpt>
      <trkpt lat="46.61162" lon="6.12407">
        <ele>1123.1999511719</ele>
        <time>2014-07-19T08:57:16.000Z</time>
      </trkpt>
      <trkpt lat="46.6117" lon="6.12418">
        <ele>1124.1999511719</ele>
        <time>2014-07-19T08:57:20.000Z</time>
      </trkpt>
      <trkpt lat="46.61175" lon="6.1242">
        <ele>1124.5999755859</ele>
        <time>2014-07-19T08:57:22.000Z</time>
      </trkpt>
      <trkpt lat="46.61181" lon="6.12444">
        <ele>1126</ele>
        <time>2014-07-19T08:57:28.000Z</time>
      </trkpt>
      <trkpt lat="46.61181" lon="6.12447">
        <ele>1126</ele>
        <time>2014-07-19T08:57:29.000Z</time>
      </trkpt>
      <trkpt lat="46.6118" lon="6.1245">
        <ele>1126</ele>
        <time>2014-07-19T08:57:30.000Z</time>
      </trkpt>
      <trkpt lat="46.61174" lon="6.12452">
        <ele>1125.5999755859</ele>
        <time>2014-07-19T08:57:33.000Z</time>
      </trkpt>
      <trkpt lat="46.61168" lon="6.12446">
        <ele>1125</ele>
        <time>2014-07-19T08:57:35.000Z</time>
      </trkpt>
      <trkpt lat="46.61156" lon="6.12427">
        <ele>1123.4000244141</ele>
        <time>2014-07-19T08:57:40.000Z</time>
      </trkpt>
      <trkpt lat="46.61143" lon="6.12408">
        <ele>1122</ele>
        <time>2014-07-19T08:57:45.000Z</time>
      </trkpt>
      <trkpt lat="46.6113" lon="6.12397">
        <ele>1120.8000488281</ele>
        <time>2014-07-19T08:57:49.000Z</time>
      </trkpt>
      <trkpt lat="46.61116" lon="6.12386">
        <ele>1119.8000488281</ele>
        <time>2014-07-19T08:57:53.000Z</time>
      </trkpt>
      <trkpt lat="46.611" lon="6.12376">
        <ele>1118.5999755859</ele>
        <time>2014-07-19T08:57:58.000Z</time>
      </trkpt>
      <trkpt lat="46.61083" lon="6.1237">
        <ele>1117.5999755859</ele>
        <time>2014-07-19T08:58:02.000Z</time>
      </trkpt>
      <trkpt lat="46.61069" lon="6.12369">
        <ele>1116.8000488281</ele>
        <time>2014-07-19T08:58:05.000Z</time>
      </trkpt>
      <trkpt lat="46.61052" lon="6.1237">
        <ele>1116.8000488281</ele>
        <time>2014-07-19T08:58:12.000Z</time>
      </trkpt>
      <trkpt lat="46.61039" lon="6.12373">
        <ele>1116.8000488281</ele>
        <time>2014-07-19T08:58:16.000Z</time>
      </trkpt>
      <trkpt lat="46.61029" lon="6.12376">
        <ele>1117</ele>
        <time>2014-07-19T08:58:20.000Z</time>
      </trkpt>
      <trkpt lat="46.61028" lon="6.12376">
        <ele>1117</ele>
        <time>2014-07-19T08:58:21.000Z</time>
      </trkpt>
      <trkpt lat="46.6102" lon="6.12376">
        <ele>1117.1999511719</ele>
        <time>2014-07-19T08:58:27.000Z</time>
      </trkpt>
      <trkpt lat="46.61013" lon="6.12371">
        <ele>1117.1999511719</ele>
        <time>2014-07-19T08:58:33.000Z</time>
      </trkpt>
      <trkpt lat="46.61008" lon="6.12367">
        <ele>1117</ele>
        <time>2014-07-19T08:58:37.000Z</time>
      </trkpt>
      <trkpt lat="46.60997" lon="6.12359">
        <ele>1117</ele>
        <time>2014-07-19T08:58:43.000Z</time>
      </trkpt>
      <trkpt lat="46.60991" lon="6.12355">
        <ele>1117</ele>
        <time>2014-07-19T08:58:46.000Z</time>
      </trkpt>
      <trkpt lat="46.60966" lon="6.12351">
        <ele>1116.1999511719</ele>
        <time>2014-07-19T08:58:52.000Z</time>
      </trkpt>
      <trkpt lat="46.60951" lon="6.12349">
        <ele>1115.8000488281</ele>
        <time>2014-07-19T08:58:54.000Z</time>
      </trkpt>
      <trkpt lat="46.60935" lon="6.12329">
        <ele>1114.5999755859</ele>
        <time>2014-07-19T08:58:58.000Z</time>
      </trkpt>
      <trkpt lat="46.60924" lon="6.12311">
        <ele>1113.8000488281</ele>
        <time>2014-07-19T08:59:02.000Z</time>
      </trkpt>
      <trkpt lat="46.6092" lon="6.12309">
        <ele>1113.8000488281</ele>
        <time>2014-07-19T08:59:03.000Z</time>
      </trkpt>
      <trkpt lat="46.60913" lon="6.12302">
        <ele>1113.5999755859</ele>
        <time>2014-07-19T08:59:05.000Z</time>
      </trkpt>
      <trkpt lat="46.60897" lon="6.12292">
        <ele>1113.5999755859</ele>
        <time>2014-07-19T08:59:09.000Z</time>
      </trkpt>
      <trkpt lat="46.6089" lon="6.12287">
        <ele>1114</ele>
        <time>2014-07-19T08:59:11.000Z</time>
      </trkpt>
      <trkpt lat="46.6087" lon="6.12284">
        <ele>1114.8000488281</ele>
        <time>2014-07-19T08:59:18.000Z</time>
      </trkpt>
      <trkpt lat="46.60859" lon="6.12279">
        <ele>1115.1999511719</ele>
        <time>2014-07-19T08:59:22.000Z</time>
      </trkpt>
      <trkpt lat="46.60856" lon="6.12279">
        <ele>1115.4000244141</ele>
        <time>2014-07-19T08:59:24.000Z</time>
      </trkpt>
      <trkpt lat="46.60852" lon="6.12277">
        <ele>1115.5999755859</ele>
        <time>2014-07-19T08:59:27.000Z</time>
      </trkpt>
      <trkpt lat="46.60844" lon="6.12271">
        <ele>1116</ele>
        <time>2014-07-19T08:59:33.000Z</time>
      </trkpt>
      <trkpt lat="46.60838" lon="6.12265">
        <ele>1116.4000244141</ele>
        <time>2014-07-19T08:59:36.000Z</time>
      </trkpt>
      <trkpt lat="46.60835" lon="6.12258">
        <ele>1116.5999755859</ele>
        <time>2014-07-19T08:59:40.000Z</time>
      </trkpt>
      <trkpt lat="46.60824" lon="6.12244">
        <ele>1117.4000244141</ele>
        <time>2014-07-19T08:59:48.000Z</time>
      </trkpt>
      <trkpt lat="46.60804" lon="6.12235">
        <ele>1117.8000488281</ele>
        <time>2014-07-19T08:59:53.000Z</time>
      </trkpt>
      <trkpt lat="46.60793" lon="6.12233">
        <ele>1117.8000488281</ele>
        <time>2014-07-19T08:59:57.000Z</time>
      </trkpt>
      <trkpt lat="46.60777" lon="6.12234">
        <ele>1117.8000488281</ele>
        <time>2014-07-19T09:00:01.000Z</time>
      </trkpt>
      <trkpt lat="46.60768" lon="6.12231">
        <ele>1118</ele>
        <time>2014-07-19T09:00:05.000Z</time>
      </trkpt>
      <trkpt lat="46.60756" lon="6.12226">
        <ele>1118</ele>
        <time>2014-07-19T09:00:09.000Z</time>
      </trkpt>
      <trkpt lat="46.6074" lon="6.12221">
        <ele>1118.1999511719</ele>
        <time>2014-07-19T09:00:13.000Z</time>
      </trkpt>
      <trkpt lat="46.60725" lon="6.12211">
        <ele>1117.8000488281</ele>
        <time>2014-07-19T09:00:16.000Z</time>
      </trkpt>
      <trkpt lat="46.6072" lon="6.1221">
        <ele>1117.5999755859</ele>
        <time>2014-07-19T09:00:17.000Z</time>
      </trkpt>
      <trkpt lat="46.60704" lon="6.12208">
        <ele>1116.8000488281</ele>
        <time>2014-07-19T09:00:20.000Z</time>
      </trkpt>
      <trkpt lat="46.60683" lon="6.12192">
        <ele>1116.1999511719</ele>
        <time>2014-07-19T09:00:25.000Z</time>
      </trkpt>
      <trkpt lat="46.60676" lon="6.1218">
        <ele>1115.8000488281</ele>
        <time>2014-07-19T09:00:28.000Z</time>
      </trkpt>
      <trkpt lat="46.60672" lon="6.12177">
        <ele>1115.8000488281</ele>
        <time>2014-07-19T09:00:29.000Z</time>
      </trkpt>
      <trkpt lat="46.60653" lon="6.12163">
        <ele>1115</ele>
        <time>2014-07-19T09:00:34.000Z</time>
      </trkpt>
      <trkpt lat="46.60643" lon="6.12155">
        <ele>1114.1999511719</ele>
        <time>2014-07-19T09:00:37.000Z</time>
      </trkpt>
      <trkpt lat="46.60633" lon="6.12146">
        <ele>1113.1999511719</ele>
        <time>2014-07-19T09:00:40.000Z</time>
      </trkpt>
      <trkpt lat="46.60616" lon="6.12135">
        <ele>1111.5999755859</ele>
        <time>2014-07-19T09:00:44.000Z</time>
      </trkpt>
      <trkpt lat="46.60606" lon="6.12122">
        <ele>1110.8000488281</ele>
        <time>2014-07-19T09:00:46.000Z</time>
      </trkpt>
      <trkpt lat="46.60581" lon="6.12109">
        <ele>1108.5999755859</ele>
        <time>2014-07-19T09:00:50.000Z</time>
      </trkpt>
      <trkpt lat="46.60577" lon="6.12106">
        <ele>1108.1999511719</ele>
        <time>2014-07-19T09:00:51.000Z</time>
      </trkpt>
      <trkpt lat="46.60559" lon="6.12099">
        <ele>1106.5999755859</ele>
        <time>2014-07-19T09:00:54.000Z</time>
      </trkpt>
      <trkpt lat="46.60546" lon="6.12094">
        <ele>1105.4000244141</ele>
        <time>2014-07-19T09:00:56.000Z</time>
      </trkpt>
      <trkpt lat="46.60529" lon="6.12073">
        <ele>1104</ele>
        <time>2014-07-19T09:01:00.000Z</time>
      </trkpt>
      <trkpt lat="46.60527" lon="6.12069">
        <ele>1103.8000488281</ele>
        <time>2014-07-19T09:01:01.000Z</time>
      </trkpt>
      <trkpt lat="46.60525" lon="6.12066">
        <ele>1103.8000488281</ele>
        <time>2014-07-19T09:01:02.000Z</time>
      </trkpt>
      <trkpt lat="46.60524" lon="6.12058">
        <ele>1103.8000488281</ele>
        <time>2014-07-19T09:01:05.000Z</time>
      </trkpt>
      <trkpt lat="46.60524" lon="6.12054">
        <ele>1104</ele>
        <time>2014-07-19T09:01:07.000Z</time>
      </trkpt>
      <trkpt lat="46.60523" lon="6.12046">
        <ele>1104.4000244141</ele>
        <time>2014-07-19T09:01:11.000Z</time>
      </trkpt>
      <trkpt lat="46.60522" lon="6.12044">
        <ele>1104.4000244141</ele>
        <time>2014-07-19T09:01:12.000Z</time>
      </trkpt>
      <trkpt lat="46.60517" lon="6.12032">
        <ele>1104.4000244141</ele>
        <time>2014-07-19T09:01:17.000Z</time>
      </trkpt>
      <trkpt lat="46.60513" lon="6.12026">
        <ele>1104.4000244141</ele>
        <time>2014-07-19T09:01:21.000Z</time>
      </trkpt>
      <trkpt lat="46.60505" lon="6.12009">
        <ele>1104.4000244141</ele>
        <time>2014-07-19T09:01:28.000Z</time>
      </trkpt>
      <trkpt lat="46.60503" lon="6.12007">
        <ele>1104.1999511719</ele>
        <time>2014-07-19T09:01:29.000Z</time>
      </trkpt>
      <trkpt lat="46.60496" lon="6.11999">
        <ele>1104</ele>
        <time>2014-07-19T09:01:32.000Z</time>
      </trkpt>
      <trkpt lat="46.60482" lon="6.11985">
        <ele>1103.4000244141</ele>
        <time>2014-07-19T09:01:38.000Z</time>
      </trkpt>
      <trkpt lat="46.60472" lon="6.11971">
        <ele>1103.5999755859</ele>
        <time>2014-07-19T09:01:43.000Z</time>
      </trkpt>
      <trkpt lat="46.60459" lon="6.11952">
        <ele>1103.4000244141</ele>
        <time>2014-07-19T09:01:49.000Z</time>
      </trkpt>
      <trkpt lat="46.60449" lon="6.1193">
        <ele>1103.8000488281</ele>
        <time>2014-07-19T09:01:55.000Z</time>
      </trkpt>
      <trkpt lat="46.60436" lon="6.11904">
        <ele>1104.1999511719</ele>
        <time>2014-07-19T09:02:00.000Z</time>
      </trkpt>
      <trkpt lat="46.60426" lon="6.11875">
        <ele>1104</ele>
        <time>2014-07-19T09:02:04.000Z</time>
      </trkpt>
      <trkpt lat="46.60423" lon="6.11868">
        <ele>1103.8000488281</ele>
        <time>2014-07-19T09:02:05.000Z</time>
      </trkpt>
      <trkpt lat="46.60412" lon="6.11843">
        <ele>1102.8000488281</ele>
        <time>2014-07-19T09:02:10.000Z</time>
      </trkpt>
      <trkpt lat="46.60407" lon="6.1184">
        <ele>1102.4000244141</ele>
        <time>2014-07-19T09:02:12.000Z</time>
      </trkpt>
      <trkpt lat="46.60389" lon="6.11824">
        <ele>1102.1999511719</ele>
        <time>2014-07-19T09:02:18.000Z</time>
      </trkpt>
      <trkpt lat="46.60379" lon="6.11808">
        <ele>1102.4000244141</ele>
        <time>2014-07-19T09:02:22.000Z</time>
      </trkpt>
      <trkpt lat="46.60367" lon="6.11803">
        <ele>1102.5999755859</ele>
        <time>2014-07-19T09:02:27.000Z</time>
      </trkpt>
      <trkpt lat="46.60357" lon="6.11814">
        <ele>1102.5999755859</ele>
        <time>2014-07-19T09:02:32.000Z</time>
      </trkpt>
      <trkpt lat="46.60348" lon="6.11821">
        <ele>1102.5999755859</ele>
        <time>2014-07-19T09:02:36.000Z</time>
      </trkpt>
      <trkpt lat="46.60342" lon="6.11821">
        <ele>1102.8000488281</ele>
        <time>2014-07-19T09:02:38.000Z</time>
      </trkpt>
      <trkpt lat="46.60331" lon="6.11814">
        <ele>1102.8000488281</ele>
        <time>2014-07-19T09:02:43.000Z</time>
      </trkpt>
      <trkpt lat="46.60317" lon="6.11794">
        <ele>1103.4000244141</ele>
        <time>2014-07-19T09:02:56.000Z</time>
      </trkpt>
      <trkpt lat="46.60315" lon="6.11791">
        <ele>1103.5999755859</ele>
        <time>2014-07-19T09:02:58.000Z</time>
      </trkpt>
      <trkpt lat="46.60311" lon="6.11788">
        <ele>1103.8000488281</ele>
        <time>2014-07-19T09:03:02.000Z</time>
      </trkpt>
      <trkpt lat="46.60303" lon="6.11783">
        <ele>1104.1999511719</ele>
        <time>2014-07-19T09:03:09.000Z</time>
      </trkpt>
      <trkpt lat="46.60297" lon="6.11774">
        <ele>1104.5999755859</ele>
        <time>2014-07-19T09:03:14.000Z</time>
      </trkpt>
      <trkpt lat="46.60292" lon="6.11754">
        <ele>1105.4000244141</ele>
        <time>2014-07-19T09:03:20.000Z</time>
      </trkpt>
      <trkpt lat="46.6029" lon="6.11748">
        <ele>1105.5999755859</ele>
        <time>2014-07-19T09:03:22.000Z</time>
      </trkpt>
      <trkpt lat="46.60295" lon="6.11728">
        <ele>1105.8000488281</ele>
        <time>2014-07-19T09:03:29.000Z</time>
      </trkpt>
      <trkpt lat="46.60302" lon="6.11718">
        <ele>1105.5999755859</ele>
        <time>2014-07-19T09:03:34.000Z</time>
      </trkpt>
      <trkpt lat="46.60314" lon="6.11705">
        <ele>1105.8000488281</ele>
        <time>2014-07-19T09:03:40.000Z</time>
      </trkpt>
      <trkpt lat="46.60327" lon="6.11686">
        <ele>1106.4000244141</ele>
        <time>2014-07-19T09:03:45.000Z</time>
      </trkpt>
      <trkpt lat="46.60344" lon="6.1166">
        <ele>1107.5999755859</ele>
        <time>2014-07-19T09:03:51.000Z</time>
      </trkpt>
      <trkpt lat="46.60357" lon="6.11641">
        <ele>1108.5999755859</ele>
        <time>2014-07-19T09:03:55.000Z</time>
      </trkpt>
      <trkpt lat="46.60366" lon="6.11623">
        <ele>1109</ele>
        <time>2014-07-19T09:03:59.000Z</time>
      </trkpt>
      <trkpt lat="46.60373" lon="6.11601">
        <ele>1109.4000244141</ele>
        <time>2014-07-19T09:04:03.000Z</time>
      </trkpt>
      <trkpt lat="46.60382" lon="6.11576">
        <ele>1109.1999511719</ele>
        <time>2014-07-19T09:04:08.000Z</time>
      </trkpt>
      <trkpt lat="46.60389" lon="6.11552">
        <ele>1108.8000488281</ele>
        <time>2014-07-19T09:04:13.000Z</time>
      </trkpt>
      <trkpt lat="46.60393" lon="6.11524">
        <ele>1108.5999755859</ele>
        <time>2014-07-19T09:04:19.000Z</time>
      </trkpt>
      <trkpt lat="46.604" lon="6.11498">
        <ele>1109</ele>
        <time>2014-07-19T09:04:25.000Z</time>
      </trkpt>
      <trkpt lat="46.60403" lon="6.11476">
        <ele>1109</ele>
        <time>2014-07-19T09:04:30.000Z</time>
      </trkpt>
      <trkpt lat="46.60409" lon="6.11444">
        <ele>1107.1999511719</ele>
        <time>2014-07-19T09:04:36.000Z</time>
      </trkpt>
      <trkpt lat="46.60417" lon="6.11423">
        <ele>1106.4000244141</ele>
        <time>2014-07-19T09:04:39.000Z</time>
      </trkpt>
      <trkpt lat="46.60421" lon="6.11395">
        <ele>1104.8000488281</ele>
        <time>2014-07-19T09:04:43.000Z</time>
      </trkpt>
      <trkpt lat="46.60422" lon="6.1137">
        <ele>1102.8000488281</ele>
        <time>2014-07-19T09:04:46.000Z</time>
      </trkpt>
      <trkpt lat="46.60425" lon="6.11344">
        <ele>1100.8000488281</ele>
        <time>2014-07-19T09:04:49.000Z</time>
      </trkpt>
      <trkpt lat="46.60421" lon="6.11321">
        <ele>1098.8000488281</ele>
        <time>2014-07-19T09:04:53.000Z</time>
      </trkpt>
      <trkpt lat="46.60416" lon="6.11305">
        <ele>1097.5999755859</ele>
        <time>2014-07-19T09:04:56.000Z</time>
      </trkpt>
      <trkpt lat="46.60411" lon="6.11291">
        <ele>1097</ele>
        <time>2014-07-19T09:04:57.000Z</time>
      </trkpt>
      <trkpt lat="46.60401" lon="6.11271">
        <ele>1096</ele>
        <time>2014-07-19T09:05:00.000Z</time>
      </trkpt>
      <trkpt lat="46.60381" lon="6.11243">
        <ele>1094</ele>
        <time>2014-07-19T09:05:05.000Z</time>
      </trkpt>
      <trkpt lat="46.60368" lon="6.11226">
        <ele>1092.5999755859</ele>
        <time>2014-07-19T09:05:09.000Z</time>
      </trkpt>
      <trkpt lat="46.60365" lon="6.11221">
        <ele>1092.1999511719</ele>
        <time>2014-07-19T09:05:11.000Z</time>
      </trkpt>
      <trkpt lat="46.60354" lon="6.11224">
        <ele>1091.4000244141</ele>
        <time>2014-07-19T09:05:17.000Z</time>
      </trkpt>
      <trkpt lat="46.60343" lon="6.1124">
        <ele>1091</ele>
        <time>2014-07-19T09:05:22.000Z</time>
      </trkpt>
      <trkpt lat="46.60339" lon="6.11243">
        <ele>1090.8000488281</ele>
        <time>2014-07-19T09:05:23.000Z</time>
      </trkpt>
      <trkpt lat="46.6032" lon="6.11261">
        <ele>1091</ele>
        <time>2014-07-19T09:05:28.000Z</time>
      </trkpt>
      <trkpt lat="46.60301" lon="6.11275">
        <ele>1091</ele>
        <time>2014-07-19T09:05:32.000Z</time>
      </trkpt>
      <trkpt lat="46.60282" lon="6.11289">
        <ele>1091</ele>
        <time>2014-07-19T09:05:36.000Z</time>
      </trkpt>
      <trkpt lat="46.60264" lon="6.11299">
        <ele>1090.5999755859</ele>
        <time>2014-07-19T09:05:41.000Z</time>
      </trkpt>
      <trkpt lat="46.60246" lon="6.11313">
        <ele>1090.5999755859</ele>
        <time>2014-07-19T09:05:47.000Z</time>
      </trkpt>
      <trkpt lat="46.6023" lon="6.11326">
        <ele>1090.4000244141</ele>
        <time>2014-07-19T09:05:53.000Z</time>
      </trkpt>
      <trkpt lat="46.60216" lon="6.11346">
        <ele>1090.4000244141</ele>
        <time>2014-07-19T09:06:00.000Z</time>
      </trkpt>
      <trkpt lat="46.60203" lon="6.11364">
        <ele>1090.1999511719</ele>
        <time>2014-07-19T09:06:04.000Z</time>
      </trkpt>
      <trkpt lat="46.6019" lon="6.11383">
        <ele>1090.1999511719</ele>
        <time>2014-07-19T09:06:09.000Z</time>
      </trkpt>
      <trkpt lat="46.60176" lon="6.11401">
        <ele>1090.5999755859</ele>
        <time>2014-07-19T09:06:14.000Z</time>
      </trkpt>
      <trkpt lat="46.6016" lon="6.1142">
        <ele>1091</ele>
        <time>2014-07-19T09:06:20.000Z</time>
      </trkpt>
      <trkpt lat="46.60144" lon="6.11431">
        <ele>1090.4000244141</ele>
        <time>2014-07-19T09:06:25.000Z</time>
      </trkpt>
      <trkpt lat="46.60122" lon="6.11442">
        <ele>1089.1999511719</ele>
        <time>2014-07-19T09:06:30.000Z</time>
      </trkpt>
      <trkpt lat="46.60102" lon="6.11453">
        <ele>1087.4000244141</ele>
        <time>2014-07-19T09:06:34.000Z</time>
      </trkpt>
      <trkpt lat="46.60082" lon="6.11461">
        <ele>1085</ele>
        <time>2014-07-19T09:06:38.000Z</time>
      </trkpt>
      <trkpt lat="46.6006" lon="6.11466">
        <ele>1083.5999755859</ele>
        <time>2014-07-19T09:06:42.000Z</time>
      </trkpt>
      <trkpt lat="46.60055" lon="6.11466">
        <ele>1083.5999755859</ele>
        <time>2014-07-19T09:06:43.000Z</time>
      </trkpt>
      <trkpt lat="46.60036" lon="6.11464">
        <ele>1082.8000488281</ele>
        <time>2014-07-19T09:06:47.000Z</time>
      </trkpt>
      <trkpt lat="46.60027" lon="6.11461">
        <ele>1082.5999755859</ele>
        <time>2014-07-19T09:06:49.000Z</time>
      </trkpt>
      <trkpt lat="46.60021" lon="6.11458">
        <ele>1082.1999511719</ele>
        <time>2014-07-19T09:06:51.000Z</time>
      </trkpt>
      <trkpt lat="46.59999" lon="6.11451">
        <ele>1081.4000244141</ele>
        <time>2014-07-19T09:06:58.000Z</time>
      </trkpt>
      <trkpt lat="46.59978" lon="6.11447">
        <ele>1081.1999511719</ele>
        <time>2014-07-19T09:07:05.000Z</time>
      </trkpt>
      <trkpt lat="46.59961" lon="6.11438">
        <ele>1081.8000488281</ele>
        <time>2014-07-19T09:07:11.000Z</time>
      </trkpt>
      <trkpt lat="46.59944" lon="6.11427">
        <ele>1082.4000244141</ele>
        <time>2014-07-19T09:07:17.000Z</time>
      </trkpt>
      <trkpt lat="46.59926" lon="6.11414">
        <ele>1083.1999511719</ele>
        <time>2014-07-19T09:07:23.000Z</time>
      </trkpt>
      <trkpt lat="46.59907" lon="6.11404">
        <ele>1083.8000488281</ele>
        <time>2014-07-19T09:07:29.000Z</time>
      </trkpt>
      <trkpt lat="46.59888" lon="6.11402">
        <ele>1084.5999755859</ele>
        <time>2014-07-19T09:07:35.000Z</time>
      </trkpt>
      <trkpt lat="46.59869" lon="6.11402">
        <ele>1085.1999511719</ele>
        <time>2014-07-19T09:07:41.000Z</time>
      </trkpt>
      <trkpt lat="46.59853" lon="6.11403">
        <ele>1085.8000488281</ele>
        <time>2014-07-19T09:07:47.000Z</time>
      </trkpt>
      <trkpt lat="46.59834" lon="6.11405">
        <ele>1086.5999755859</ele>
        <time>2014-07-19T09:07:55.000Z</time>
      </trkpt>
      <trkpt lat="46.59821" lon="6.1141">
        <ele>1087</ele>
        <time>2014-07-19T09:08:00.000Z</time>
      </trkpt>
      <trkpt lat="46.59806" lon="6.1142">
        <ele>1087.4000244141</ele>
        <time>2014-07-19T09:08:06.000Z</time>
      </trkpt>
      <trkpt lat="46.59791" lon="6.11414">
        <ele>1087.5999755859</ele>
        <time>2014-07-19T09:08:10.000Z</time>
      </trkpt>
      <trkpt lat="46.5978" lon="6.11396">
        <ele>1088</ele>
        <time>2014-07-19T09:08:15.000Z</time>
      </trkpt>
      <trkpt lat="46.59774" lon="6.11388">
        <ele>1088</ele>
        <time>2014-07-19T09:08:17.000Z</time>
      </trkpt>
      <trkpt lat="46.5976" lon="6.11368">
        <ele>1087.8000488281</ele>
        <time>2014-07-19T09:08:21.000Z</time>
      </trkpt>
      <trkpt lat="46.59746" lon="6.11344">
        <ele>1087.5999755859</ele>
        <time>2014-07-19T09:08:25.000Z</time>
      </trkpt>
      <trkpt lat="46.59736" lon="6.11327">
        <ele>1087.4000244141</ele>
        <time>2014-07-19T09:08:28.000Z</time>
      </trkpt>
      <trkpt lat="46.59719" lon="6.11322">
        <ele>1086.4000244141</ele>
        <time>2014-07-19T09:08:32.000Z</time>
      </trkpt>
      <trkpt lat="46.59709" lon="6.11318">
        <ele>1085.5999755859</ele>
        <time>2014-07-19T09:08:35.000Z</time>
      </trkpt>
      <trkpt lat="46.597" lon="6.11313">
        <ele>1085</ele>
        <time>2014-07-19T09:08:36.000Z</time>
      </trkpt>
      <trkpt lat="46.59686" lon="6.11318">
        <ele>1084.1999511719</ele>
        <time>2014-07-19T09:08:39.000Z</time>
      </trkpt>
      <trkpt lat="46.59678" lon="6.11332">
        <ele>1084</ele>
        <time>2014-07-19T09:08:43.000Z</time>
      </trkpt>
      <trkpt lat="46.59675" lon="6.11338">
        <ele>1084</ele>
        <time>2014-07-19T09:08:44.000Z</time>
      </trkpt>
      <trkpt lat="46.59662" lon="6.11367">
        <ele>1083</ele>
        <time>2014-07-19T09:08:50.000Z</time>
      </trkpt>
      <trkpt lat="46.59649" lon="6.11397">
        <ele>1081.5999755859</ele>
        <time>2014-07-19T09:08:55.000Z</time>
      </trkpt>
      <trkpt lat="46.59637" lon="6.11424">
        <ele>1079.1999511719</ele>
        <time>2014-07-19T09:08:58.000Z</time>
      </trkpt>
      <trkpt lat="46.59625" lon="6.11451">
        <ele>1076.8000488281</ele>
        <time>2014-07-19T09:09:01.000Z</time>
      </trkpt>
      <trkpt lat="46.5961" lon="6.11479">
        <ele>1076.5999755859</ele>
        <time>2014-07-19T09:09:04.000Z</time>
      </trkpt>
      <trkpt lat="46.59605" lon="6.11488">
        <ele>1076.4000244141</ele>
        <time>2014-07-19T09:09:06.000Z</time>
      </trkpt>
      <trkpt lat="46.59588" lon="6.11502">
        <ele>1075.8000488281</ele>
        <time>2014-07-19T09:09:09.000Z</time>
      </trkpt>
      <trkpt lat="46.59573" lon="6.11502">
        <ele>1075.4000244141</ele>
        <time>2014-07-19T09:09:11.000Z</time>
      </trkpt>
      <trkpt lat="46.59564" lon="6.115">
        <ele>1075.1999511719</ele>
        <time>2014-07-19T09:09:14.000Z</time>
      </trkpt>
      <trkpt lat="46.59555" lon="6.11496">
        <ele>1075.1999511719</ele>
        <time>2014-07-19T09:09:17.000Z</time>
      </trkpt>
      <trkpt lat="46.59534" lon="6.11487">
        <ele>1075.1999511719</ele>
        <time>2014-07-19T09:09:24.000Z</time>
      </trkpt>
      <trkpt lat="46.59514" lon="6.11484">
        <ele>1075</ele>
        <time>2014-07-19T09:09:29.000Z</time>
      </trkpt>
      <trkpt lat="46.59493" lon="6.11484">
        <ele>1075</ele>
        <time>2014-07-19T09:09:33.000Z</time>
      </trkpt>
      <trkpt lat="46.59473" lon="6.11486">
        <ele>1075.4000244141</ele>
        <time>2014-07-19T09:09:37.000Z</time>
      </trkpt>
      <trkpt lat="46.59455" lon="6.11488">
        <ele>1076</ele>
        <time>2014-07-19T09:09:41.000Z</time>
      </trkpt>
      <trkpt lat="46.59433" lon="6.11492">
        <ele>1076.5999755859</ele>
        <time>2014-07-19T09:09:45.000Z</time>
      </trkpt>
      <trkpt lat="46.59423" lon="6.11493">
        <ele>1076.8000488281</ele>
        <time>2014-07-19T09:09:47.000Z</time>
      </trkpt>
      <trkpt lat="46.59397" lon="6.11493">
        <ele>1077.8000488281</ele>
        <time>2014-07-19T09:09:56.000Z</time>
      </trkpt>
      <trkpt lat="46.59378" lon="6.11498">
        <ele>1077.8000488281</ele>
        <time>2014-07-19T09:10:03.000Z</time>
      </trkpt>
      <trkpt lat="46.59361" lon="6.11513">
        <ele>1078.1999511719</ele>
        <time>2014-07-19T09:10:12.000Z</time>
      </trkpt>
      <trkpt lat="46.59349" lon="6.11533">
        <ele>1079</ele>
        <time>2014-07-19T09:10:19.000Z</time>
      </trkpt>
      <trkpt lat="46.59336" lon="6.11554">
        <ele>1080</ele>
        <time>2014-07-19T09:10:26.000Z</time>
      </trkpt>
      <trkpt lat="46.59322" lon="6.11573">
        <ele>1080.1999511719</ele>
        <time>2014-07-19T09:10:32.000Z</time>
      </trkpt>
      <trkpt lat="46.59307" lon="6.1159">
        <ele>1080.5999755859</ele>
        <time>2014-07-19T09:10:39.000Z</time>
      </trkpt>
      <trkpt lat="46.59292" lon="6.11606">
        <ele>1080.8000488281</ele>
        <time>2014-07-19T09:10:47.000Z</time>
      </trkpt>
      <trkpt lat="46.59279" lon="6.11624">
        <ele>1081.1999511719</ele>
        <time>2014-07-19T09:10:54.000Z</time>
      </trkpt>
      <trkpt lat="46.59267" lon="6.11645">
        <ele>1082</ele>
        <time>2014-07-19T09:11:01.000Z</time>
      </trkpt>
      <trkpt lat="46.59256" lon="6.11667">
        <ele>1082.1999511719</ele>
        <time>2014-07-19T09:11:07.000Z</time>
      </trkpt>
      <trkpt lat="46.59247" lon="6.1169">
        <ele>1082.5999755859</ele>
        <time>2014-07-19T09:11:15.000Z</time>
      </trkpt>
      <trkpt lat="46.59239" lon="6.11717">
        <ele>1082.8000488281</ele>
        <time>2014-07-19T09:11:22.000Z</time>
      </trkpt>
      <trkpt lat="46.59231" lon="6.11744">
        <ele>1084</ele>
        <time>2014-07-19T09:11:31.000Z</time>
      </trkpt>
      <trkpt lat="46.59224" lon="6.11769">
        <ele>1085.4000244141</ele>
        <time>2014-07-19T09:11:39.000Z</time>
      </trkpt>
      <trkpt lat="46.59219" lon="6.1179">
        <ele>1086.5999755859</ele>
        <time>2014-07-19T09:11:45.000Z</time>
      </trkpt>
      <trkpt lat="46.59217" lon="6.11795">
        <ele>1087</ele>
        <time>2014-07-19T09:11:47.000Z</time>
      </trkpt>
      <trkpt lat="46.5921" lon="6.11797">
        <ele>1088.4000244141</ele>
        <time>2014-07-19T09:11:54.000Z</time>
      </trkpt>
      <trkpt lat="46.592" lon="6.11794">
        <ele>1089.1999511719</ele>
        <time>2014-07-19T09:12:00.000Z</time>
      </trkpt>
      <trkpt lat="46.59187" lon="6.11787">
        <ele>1089.5999755859</ele>
        <time>2014-07-19T09:12:06.000Z</time>
      </trkpt>
      <trkpt lat="46.59174" lon="6.11772">
        <ele>1089.1999511719</ele>
        <time>2014-07-19T09:12:12.000Z</time>
      </trkpt>
      <trkpt lat="46.59166" lon="6.11747">
        <ele>1087</ele>
        <time>2014-07-19T09:12:19.000Z</time>
      </trkpt>
      <trkpt lat="46.59157" lon="6.11721">
        <ele>1085.4000244141</ele>
        <time>2014-07-19T09:12:24.000Z</time>
      </trkpt>
      <trkpt lat="46.59147" lon="6.11698">
        <ele>1084.4000244141</ele>
        <time>2014-07-19T09:12:30.000Z</time>
      </trkpt>
      <trkpt lat="46.59139" lon="6.11681">
        <ele>1084</ele>
        <time>2014-07-19T09:12:37.000Z</time>
      </trkpt>
      <trkpt lat="46.59135" lon="6.11665">
        <ele>1083.4000244141</ele>
        <time>2014-07-19T09:12:42.000Z</time>
      </trkpt>
      <trkpt lat="46.59126" lon="6.11642">
        <ele>1082.5999755859</ele>
        <time>2014-07-19T09:12:50.000Z</time>
      </trkpt>
      <trkpt lat="46.59115" lon="6.1162">
        <ele>1082.4000244141</ele>
        <time>2014-07-19T09:12:59.000Z</time>
      </trkpt>
      <trkpt lat="46.59106" lon="6.11605">
        <ele>1082.1999511719</ele>
        <time>2014-07-19T09:13:05.000Z</time>
      </trkpt>
      <trkpt lat="46.59094" lon="6.11584">
        <ele>1082</ele>
        <time>2014-07-19T09:13:12.000Z</time>
      </trkpt>
      <trkpt lat="46.59082" lon="6.11566">
        <ele>1082.1999511719</ele>
        <time>2014-07-19T09:13:21.000Z</time>
      </trkpt>
      <trkpt lat="46.59068" lon="6.11548">
        <ele>1082.8000488281</ele>
        <time>2014-07-19T09:13:30.000Z</time>
      </trkpt>
      <trkpt lat="46.59056" lon="6.11531">
        <ele>1083.5999755859</ele>
        <time>2014-07-19T09:13:37.000Z</time>
      </trkpt>
      <trkpt lat="46.59044" lon="6.11517">
        <ele>1084.1999511719</ele>
        <time>2014-07-19T09:13:45.000Z</time>
      </trkpt>
      <trkpt lat="46.5903" lon="6.11504">
        <ele>1085</ele>
        <time>2014-07-19T09:13:55.000Z</time>
      </trkpt>
      <trkpt lat="46.59014" lon="6.11491">
        <ele>1086</ele>
        <time>2014-07-19T09:14:03.000Z</time>
      </trkpt>
      <trkpt lat="46.59" lon="6.11479">
        <ele>1087</ele>
        <time>2014-07-19T09:14:12.000Z</time>
      </trkpt>
      <trkpt lat="46.58988" lon="6.11466">
        <ele>1087.4000244141</ele>
        <time>2014-07-19T09:14:20.000Z</time>
      </trkpt>
      <trkpt lat="46.58977" lon="6.11454">
        <ele>1087.4000244141</ele>
        <time>2014-07-19T09:14:27.000Z</time>
      </trkpt>
      <trkpt lat="46.58967" lon="6.11442">
        <ele>1087.4000244141</ele>
        <time>2014-07-19T09:14:33.000Z</time>
      </trkpt>
      <trkpt lat="46.58951" lon="6.11424">
        <ele>1087.1999511719</ele>
        <time>2014-07-19T09:14:44.000Z</time>
      </trkpt>
      <trkpt lat="46.58937" lon="6.11409">
        <ele>1087.1999511719</ele>
        <time>2014-07-19T09:14:51.000Z</time>
      </trkpt>
      <trkpt lat="46.5892" lon="6.11399">
        <ele>1087.5999755859</ele>
        <time>2014-07-19T09:14:59.000Z</time>
      </trkpt>
      <trkpt lat="46.58902" lon="6.1139">
        <ele>1088</ele>
        <time>2014-07-19T09:15:05.000Z</time>
      </trkpt>
      <trkpt lat="46.58883" lon="6.11379">
        <ele>1087.8000488281</ele>
        <time>2014-07-19T09:15:12.000Z</time>
      </trkpt>
      <trkpt lat="46.58873" lon="6.11373">
        <ele>1087.8000488281</ele>
        <time>2014-07-19T09:15:17.000Z</time>
      </trkpt>
      <trkpt lat="46.58865" lon="6.11365">
        <ele>1087.8000488281</ele>
        <time>2014-07-19T09:15:22.000Z</time>
      </trkpt>
      <trkpt lat="46.58851" lon="6.11356">
        <ele>1087.8000488281</ele>
        <time>2014-07-19T09:15:32.000Z</time>
      </trkpt>
      <trkpt lat="46.58835" lon="6.11344">
        <ele>1087.5999755859</ele>
        <time>2014-07-19T09:15:41.000Z</time>
      </trkpt>
      <trkpt lat="46.58805" lon="6.11314">
        <ele>1087.4000244141</ele>
        <time>2014-07-19T09:16:02.000Z</time>
      </trkpt>
      <trkpt lat="46.58792" lon="6.11299">
        <ele>1088.5999755859</ele>
        <time>2014-07-19T09:16:12.000Z</time>
      </trkpt>
      <trkpt lat="46.58783" lon="6.11286">
        <ele>1090</ele>
        <time>2014-07-19T09:16:20.000Z</time>
      </trkpt>
      <trkpt lat="46.58773" lon="6.11268">
        <ele>1091.5999755859</ele>
        <time>2014-07-19T09:16:29.000Z</time>
      </trkpt>
      <trkpt lat="46.58766" lon="6.11254">
        <ele>1093.1999511719</ele>
        <time>2014-07-19T09:16:36.000Z</time>
      </trkpt>
      <trkpt lat="46.58758" lon="6.1124">
        <ele>1094.5999755859</ele>
        <time>2014-07-19T09:16:42.000Z</time>
      </trkpt>
      <trkpt lat="46.58751" lon="6.11222">
        <ele>1096.1999511719</ele>
        <time>2014-07-19T09:16:51.000Z</time>
      </trkpt>
      <trkpt lat="46.58739" lon="6.11202">
        <ele>1095.8000488281</ele>
        <time>2014-07-19T09:16:57.000Z</time>
      </trkpt>
      <trkpt lat="46.58724" lon="6.11182">
        <ele>1095.8000488281</ele>
        <time>2014-07-19T09:17:05.000Z</time>
      </trkpt>
      <trkpt lat="46.58713" lon="6.11159">
        <ele>1095.8000488281</ele>
        <time>2014-07-19T09:17:12.000Z</time>
      </trkpt>
      <trkpt lat="46.58711" lon="6.11129">
        <ele>1095.8000488281</ele>
        <time>2014-07-19T09:17:19.000Z</time>
      </trkpt>
      <trkpt lat="46.58718" lon="6.11101">
        <ele>1095.4000244141</ele>
        <time>2014-07-19T09:17:26.000Z</time>
      </trkpt>
      <trkpt lat="46.58727" lon="6.11078">
        <ele>1094.5999755859</ele>
        <time>2014-07-19T09:17:32.000Z</time>
      </trkpt>
      <trkpt lat="46.58735" lon="6.11051">
        <ele>1094.1999511719</ele>
        <time>2014-07-19T09:17:39.000Z</time>
      </trkpt>
      <trkpt lat="46.58739" lon="6.11028">
        <ele>1094.4000244141</ele>
        <time>2014-07-19T09:17:45.000Z</time>
      </trkpt>
      <trkpt lat="46.58742" lon="6.11007">
        <ele>1094.8000488281</ele>
        <time>2014-07-19T09:17:52.000Z</time>
      </trkpt>
      <trkpt lat="46.58749" lon="6.1098">
        <ele>1095.1999511719</ele>
        <time>2014-07-19T09:18:01.000Z</time>
      </trkpt>
      <trkpt lat="46.58756" lon="6.10953">
        <ele>1095.8000488281</ele>
        <time>2014-07-19T09:18:09.000Z</time>
      </trkpt>
      <trkpt lat="46.58762" lon="6.10925">
        <ele>1096.5999755859</ele>
        <time>2014-07-19T09:18:15.000Z</time>
      </trkpt>
      <trkpt lat="46.58767" lon="6.10898">
        <ele>1096.1999511719</ele>
        <time>2014-07-19T09:18:20.000Z</time>
      </trkpt>
      <trkpt lat="46.58772" lon="6.10869">
        <ele>1096.4000244141</ele>
        <time>2014-07-19T09:18:25.000Z</time>
      </trkpt>
      <trkpt lat="46.58776" lon="6.1084">
        <ele>1096.1999511719</ele>
        <time>2014-07-19T09:18:30.000Z</time>
      </trkpt>
      <trkpt lat="46.5878" lon="6.10814">
        <ele>1095.4000244141</ele>
        <time>2014-07-19T09:18:35.000Z</time>
      </trkpt>
      <trkpt lat="46.58784" lon="6.10787">
        <ele>1095</ele>
        <time>2014-07-19T09:18:40.000Z</time>
      </trkpt>
      <trkpt lat="46.5879" lon="6.10757">
        <ele>1094.8000488281</ele>
        <time>2014-07-19T09:18:45.000Z</time>
      </trkpt>
      <trkpt lat="46.58803" lon="6.10735">
        <ele>1094</ele>
        <time>2014-07-19T09:18:51.000Z</time>
      </trkpt>
      <trkpt lat="46.58822" lon="6.1072">
        <ele>1092.8000488281</ele>
        <time>2014-07-19T09:18:56.000Z</time>
      </trkpt>
      <trkpt lat="46.58827" lon="6.10718">
        <ele>1092.4000244141</ele>
        <time>2014-07-19T09:18:57.000Z</time>
      </trkpt>
      <trkpt lat="46.58841" lon="6.10715">
        <ele>1091.4000244141</ele>
        <time>2014-07-19T09:19:00.000Z</time>
      </trkpt>
      <trkpt lat="46.58853" lon="6.1071">
        <ele>1090.4000244141</ele>
        <time>2014-07-19T09:19:02.000Z</time>
      </trkpt>
      <trkpt lat="46.58867" lon="6.10688">
        <ele>1089.5999755859</ele>
        <time>2014-07-19T09:19:07.000Z</time>
      </trkpt>
      <trkpt lat="46.58881" lon="6.10655">
        <ele>1089.1999511719</ele>
        <time>2014-07-19T09:19:12.000Z</time>
      </trkpt>
      <trkpt lat="46.58893" lon="6.10628">
        <ele>1088.5999755859</ele>
        <time>2014-07-19T09:19:15.000Z</time>
      </trkpt>
      <trkpt lat="46.58906" lon="6.10603">
        <ele>1088</ele>
        <time>2014-07-19T09:19:20.000Z</time>
      </trkpt>
      <trkpt lat="46.58921" lon="6.10582">
        <ele>1087.8000488281</ele>
        <time>2014-07-19T09:19:25.000Z</time>
      </trkpt>
      <trkpt lat="46.58931" lon="6.10563">
        <ele>1087.5999755859</ele>
        <time>2014-07-19T09:19:31.000Z</time>
      </trkpt>
      <trkpt lat="46.58936" lon="6.10545">
        <ele>1088.4000244141</ele>
        <time>2014-07-19T09:19:37.000Z</time>
      </trkpt>
      <trkpt lat="46.5894" lon="6.10518">
        <ele>1089.5999755859</ele>
        <time>2014-07-19T09:19:45.000Z</time>
      </trkpt>
      <trkpt lat="46.5894" lon="6.10495">
        <ele>1090.8000488281</ele>
        <time>2014-07-19T09:19:55.000Z</time>
      </trkpt>
      <trkpt lat="46.58935" lon="6.10478">
        <ele>1092</ele>
        <time>2014-07-19T09:20:02.000Z</time>
      </trkpt>
      <trkpt lat="46.58929" lon="6.10465">
        <ele>1092.8000488281</ele>
        <time>2014-07-19T09:20:07.000Z</time>
      </trkpt>
      <trkpt lat="46.58926" lon="6.10449">
        <ele>1094</ele>
        <time>2014-07-19T09:20:14.000Z</time>
      </trkpt>
      <trkpt lat="46.58929" lon="6.10434">
        <ele>1095.1999511719</ele>
        <time>2014-07-19T09:20:21.000Z</time>
      </trkpt>
      <trkpt lat="46.5893" lon="6.10432">
        <ele>1095.1999511719</ele>
        <time>2014-07-19T09:20:23.000Z</time>
      </trkpt>
      <trkpt lat="46.58924" lon="6.1042">
        <ele>1096</ele>
        <time>2014-07-19T09:20:30.000Z</time>
      </trkpt>
      <trkpt lat="46.58921" lon="6.10419">
        <ele>1096.1999511719</ele>
        <time>2014-07-19T09:20:31.000Z</time>
      </trkpt>
      <trkpt lat="46.58899" lon="6.10409">
        <ele>1096.8000488281</ele>
        <time>2014-07-19T09:20:40.000Z</time>
      </trkpt>
      <trkpt lat="46.5888" lon="6.10402">
        <ele>1097.4000244141</ele>
        <time>2014-07-19T09:20:47.000Z</time>
      </trkpt>
      <trkpt lat="46.58861" lon="6.10394">
        <ele>1098</ele>
        <time>2014-07-19T09:20:54.000Z</time>
      </trkpt>
      <trkpt lat="46.58843" lon="6.10388">
        <ele>1098.1999511719</ele>
        <time>2014-07-19T09:21:00.000Z</time>
      </trkpt>
      <trkpt lat="46.58825" lon="6.10381">
        <ele>1098.4000244141</ele>
        <time>2014-07-19T09:21:06.000Z</time>
      </trkpt>
      <trkpt lat="46.58806" lon="6.10371">
        <ele>1098.8000488281</ele>
        <time>2014-07-19T09:21:12.000Z</time>
      </trkpt>
      <trkpt lat="46.58789" lon="6.10359">
        <ele>1099.5999755859</ele>
        <time>2014-07-19T09:21:21.000Z</time>
      </trkpt>
      <trkpt lat="46.58772" lon="6.10346">
        <ele>1100.1999511719</ele>
        <time>2014-07-19T09:21:30.000Z</time>
      </trkpt>
      <trkpt lat="46.58755" lon="6.10331">
        <ele>1101</ele>
        <time>2014-07-19T09:21:40.000Z</time>
      </trkpt>
      <trkpt lat="46.58739" lon="6.10318">
        <ele>1101.5999755859</ele>
        <time>2014-07-19T09:21:49.000Z</time>
      </trkpt>
      <trkpt lat="46.58724" lon="6.10304">
        <ele>1102.5999755859</ele>
        <time>2014-07-19T09:21:57.000Z</time>
      </trkpt>
      <trkpt lat="46.5871" lon="6.10292">
        <ele>1103.4000244141</ele>
        <time>2014-07-19T09:22:06.000Z</time>
      </trkpt>
      <trkpt lat="46.58694" lon="6.10279">
        <ele>1104.4000244141</ele>
        <time>2014-07-19T09:22:15.000Z</time>
      </trkpt>
      <trkpt lat="46.58679" lon="6.10265">
        <ele>1105.4000244141</ele>
        <time>2014-07-19T09:22:24.000Z</time>
      </trkpt>
      <trkpt lat="46.58664" lon="6.10248">
        <ele>1106.1999511719</ele>
        <time>2014-07-19T09:22:32.000Z</time>
      </trkpt>
      <trkpt lat="46.58648" lon="6.1022">
        <ele>1107.4000244141</ele>
        <time>2014-07-19T09:22:43.000Z</time>
      </trkpt>
      <trkpt lat="46.58639" lon="6.10199">
        <ele>1108.1999511719</ele>
        <time>2014-07-19T09:22:51.000Z</time>
      </trkpt>
      <trkpt lat="46.58631" lon="6.10179">
        <ele>1109</ele>
        <time>2014-07-19T09:22:58.000Z</time>
      </trkpt>
      <trkpt lat="46.58625" lon="6.10163">
        <ele>1109.5999755859</ele>
        <time>2014-07-19T09:23:03.000Z</time>
      </trkpt>
      <trkpt lat="46.58624" lon="6.10161">
        <ele>1109.5999755859</ele>
        <time>2014-07-19T09:23:04.000Z</time>
      </trkpt>
      <trkpt lat="46.58613" lon="6.10169">
        <ele>1109.5999755859</ele>
        <time>2014-07-19T09:23:09.000Z</time>
      </trkpt>
      <trkpt lat="46.5861" lon="6.10176">
        <ele>1109.4000244141</ele>
        <time>2014-07-19T09:23:12.000Z</time>
      </trkpt>
      <trkpt lat="46.58595" lon="6.102">
        <ele>1110</ele>
        <time>2014-07-19T09:23:22.000Z</time>
      </trkpt>
      <trkpt lat="46.58583" lon="6.1022">
        <ele>1111</ele>
        <time>2014-07-19T09:23:30.000Z</time>
      </trkpt>
      <trkpt lat="46.58572" lon="6.1024">
        <ele>1111.5999755859</ele>
        <time>2014-07-19T09:23:38.000Z</time>
      </trkpt>
      <trkpt lat="46.58559" lon="6.10262">
        <ele>1112.1999511719</ele>
        <time>2014-07-19T09:23:47.000Z</time>
      </trkpt>
      <trkpt lat="46.58548" lon="6.10282">
        <ele>1112.5999755859</ele>
        <time>2014-07-19T09:23:55.000Z</time>
      </trkpt>
      <trkpt lat="46.58538" lon="6.10301">
        <ele>1113</ele>
        <time>2014-07-19T09:24:03.000Z</time>
      </trkpt>
      <trkpt lat="46.58529" lon="6.10315">
        <ele>1113.1999511719</ele>
        <time>2014-07-19T09:24:09.000Z</time>
      </trkpt>
      <trkpt lat="46.58517" lon="6.10335">
        <ele>1113.4000244141</ele>
        <time>2014-07-19T09:24:17.000Z</time>
      </trkpt>
      <trkpt lat="46.58503" lon="6.10352">
        <ele>1113.8000488281</ele>
        <time>2014-07-19T09:24:25.000Z</time>
      </trkpt>
      <trkpt lat="46.58489" lon="6.10368">
        <ele>1114.4000244141</ele>
        <time>2014-07-19T09:24:33.000Z</time>
      </trkpt>
      <trkpt lat="46.5847" lon="6.1038">
        <ele>1114.8000488281</ele>
        <time>2014-07-19T09:24:42.000Z</time>
      </trkpt>
      <trkpt lat="46.58454" lon="6.1039">
        <ele>1116.1999511719</ele>
        <time>2014-07-19T09:24:49.000Z</time>
      </trkpt>
      <trkpt lat="46.58439" lon="6.10405">
        <ele>1117.4000244141</ele>
        <time>2014-07-19T09:24:56.000Z</time>
      </trkpt>
      <trkpt lat="46.58427" lon="6.10427">
        <ele>1118.5999755859</ele>
        <time>2014-07-19T09:25:02.000Z</time>
      </trkpt>
      <trkpt lat="46.58419" lon="6.10455">
        <ele>1119.4000244141</ele>
        <time>2014-07-19T09:25:09.000Z</time>
      </trkpt>
      <trkpt lat="46.58418" lon="6.10478">
        <ele>1119.8000488281</ele>
        <time>2014-07-19T09:25:14.000Z</time>
      </trkpt>
      <trkpt lat="46.58417" lon="6.10505">
        <ele>1120.1999511719</ele>
        <time>2014-07-19T09:25:21.000Z</time>
      </trkpt>
      <trkpt lat="46.58414" lon="6.10531">
        <ele>1119.8000488281</ele>
        <time>2014-07-19T09:25:29.000Z</time>
      </trkpt>
      <trkpt lat="46.58409" lon="6.1056">
        <ele>1119.8000488281</ele>
        <time>2014-07-19T09:25:36.000Z</time>
      </trkpt>
      <trkpt lat="46.58404" lon="6.10585">
        <ele>1120</ele>
        <time>2014-07-19T09:25:44.000Z</time>
      </trkpt>
      <trkpt lat="46.58398" lon="6.10611">
        <ele>1120.8000488281</ele>
        <time>2014-07-19T09:25:51.000Z</time>
      </trkpt>
      <trkpt lat="46.58391" lon="6.10638">
        <ele>1121.4000244141</ele>
        <time>2014-07-19T09:25:57.000Z</time>
      </trkpt>
      <trkpt lat="46.58382" lon="6.10661">
        <ele>1121.5999755859</ele>
        <time>2014-07-19T09:26:03.000Z</time>
      </trkpt>
      <trkpt lat="46.58369" lon="6.10681">
        <ele>1121.5999755859</ele>
        <time>2014-07-19T09:26:09.000Z</time>
      </trkpt>
      <trkpt lat="46.58354" lon="6.10698">
        <ele>1121.5999755859</ele>
        <time>2014-07-19T09:26:15.000Z</time>
      </trkpt>
      <trkpt lat="46.58337" lon="6.10714">
        <ele>1121.1999511719</ele>
        <time>2014-07-19T09:26:21.000Z</time>
      </trkpt>
      <trkpt lat="46.58318" lon="6.10726">
        <ele>1121</ele>
        <time>2014-07-19T09:26:27.000Z</time>
      </trkpt>
      <trkpt lat="46.58301" lon="6.10737">
        <ele>1121.4000244141</ele>
        <time>2014-07-19T09:26:33.000Z</time>
      </trkpt>
      <trkpt lat="46.58282" lon="6.10745">
        <ele>1121.8000488281</ele>
        <time>2014-07-19T09:26:41.000Z</time>
      </trkpt>
      <trkpt lat="46.58263" lon="6.1075">
        <ele>1122.4000244141</ele>
        <time>2014-07-19T09:26:47.000Z</time>
      </trkpt>
      <trkpt lat="46.58245" lon="6.10751">
        <ele>1123</ele>
        <time>2014-07-19T09:26:55.000Z</time>
      </trkpt>
      <trkpt lat="46.58228" lon="6.10744">
        <ele>1123.4000244141</ele>
        <time>2014-07-19T09:27:02.000Z</time>
      </trkpt>
      <trkpt lat="46.58213" lon="6.10735">
        <ele>1123.8000488281</ele>
        <time>2014-07-19T09:27:09.000Z</time>
      </trkpt>
      <trkpt lat="46.58199" lon="6.10725">
        <ele>1124.1999511719</ele>
        <time>2014-07-19T09:27:17.000Z</time>
      </trkpt>
      <trkpt lat="46.58188" lon="6.10716">
        <ele>1124</ele>
        <time>2014-07-19T09:27:21.000Z</time>
      </trkpt>
      <trkpt lat="46.58173" lon="6.10702">
        <ele>1123.8000488281</ele>
        <time>2014-07-19T09:27:27.000Z</time>
      </trkpt>
      <trkpt lat="46.58159" lon="6.10686">
        <ele>1123.1999511719</ele>
        <time>2014-07-19T09:27:33.000Z</time>
      </trkpt>
      <trkpt lat="46.58141" lon="6.10666">
        <ele>1123</ele>
        <time>2014-07-19T09:27:38.000Z</time>
      </trkpt>
      <trkpt lat="46.58125" lon="6.10647">
        <ele>1122.8000488281</ele>
        <time>2014-07-19T09:27:44.000Z</time>
      </trkpt>
      <trkpt lat="46.58106" lon="6.10625">
        <ele>1122.1999511719</ele>
        <time>2014-07-19T09:27:49.000Z</time>
      </trkpt>
      <trkpt lat="46.58089" lon="6.10606">
        <ele>1121.5999755859</ele>
        <time>2014-07-19T09:27:52.000Z</time>
      </trkpt>
      <trkpt lat="46.58073" lon="6.10587">
        <ele>1121</ele>
        <time>2014-07-19T09:27:57.000Z</time>
      </trkpt>
      <trkpt lat="46.58058" lon="6.10572">
        <ele>1120.8000488281</ele>
        <time>2014-07-19T09:28:02.000Z</time>
      </trkpt>
      <trkpt lat="46.58041" lon="6.10561">
        <ele>1121.4000244141</ele>
        <time>2014-07-19T09:28:08.000Z</time>
      </trkpt>
      <trkpt lat="46.58022" lon="6.10556">
        <ele>1122.4000244141</ele>
        <time>2014-07-19T09:28:14.000Z</time>
      </trkpt>
      <trkpt lat="46.58003" lon="6.10553">
        <ele>1123.5999755859</ele>
        <time>2014-07-19T09:28:20.000Z</time>
      </trkpt>
      <trkpt lat="46.57984" lon="6.1055">
        <ele>1124.8000488281</ele>
        <time>2014-07-19T09:28:27.000Z</time>
      </trkpt>
      <trkpt lat="46.5797" lon="6.1055">
        <ele>1125.4000244141</ele>
        <time>2014-07-19T09:28:33.000Z</time>
      </trkpt>
      <trkpt lat="46.57951" lon="6.1055">
        <ele>1126.8000488281</ele>
        <time>2014-07-19T09:28:41.000Z</time>
      </trkpt>
      <trkpt lat="46.57934" lon="6.10554">
        <ele>1128.5999755859</ele>
        <time>2014-07-19T09:28:49.000Z</time>
      </trkpt>
      <trkpt lat="46.57916" lon="6.10556">
        <ele>1130.1999511719</ele>
        <time>2014-07-19T09:28:57.000Z</time>
      </trkpt>
      <trkpt lat="46.57901" lon="6.10561">
        <ele>1132</ele>
        <time>2014-07-19T09:29:03.000Z</time>
      </trkpt>
      <trkpt lat="46.57885" lon="6.10569">
        <ele>1132.4000244141</ele>
        <time>2014-07-19T09:29:11.000Z</time>
      </trkpt>
      <trkpt lat="46.5787" lon="6.10575">
        <ele>1132.8000488281</ele>
        <time>2014-07-19T09:29:18.000Z</time>
      </trkpt>
      <trkpt lat="46.57855" lon="6.10577">
        <ele>1132.8000488281</ele>
        <time>2014-07-19T09:29:23.000Z</time>
      </trkpt>
      <trkpt lat="46.57836" lon="6.10575">
        <ele>1132.8000488281</ele>
        <time>2014-07-19T09:29:31.000Z</time>
      </trkpt>
      <trkpt lat="46.57822" lon="6.10572">
        <ele>1132.5999755859</ele>
        <time>2014-07-19T09:29:38.000Z</time>
      </trkpt>
      <trkpt lat="46.5781" lon="6.10569">
        <ele>1133.1999511719</ele>
        <time>2014-07-19T09:29:44.000Z</time>
      </trkpt>
      <trkpt lat="46.57794" lon="6.10563">
        <ele>1134.1999511719</ele>
        <time>2014-07-19T09:29:52.000Z</time>
      </trkpt>
      <trkpt lat="46.5778" lon="6.10552">
        <ele>1135.1999511719</ele>
        <time>2014-07-19T09:30:01.000Z</time>
      </trkpt>
      <trkpt lat="46.57767" lon="6.10533">
        <ele>1136.5999755859</ele>
        <time>2014-07-19T09:30:09.000Z</time>
      </trkpt>
      <trkpt lat="46.57754" lon="6.10513">
        <ele>1138</ele>
        <time>2014-07-19T09:30:17.000Z</time>
      </trkpt>
      <trkpt lat="46.57742" lon="6.10495">
        <ele>1139.1999511719</ele>
        <time>2014-07-19T09:30:26.000Z</time>
      </trkpt>
      <trkpt lat="46.57729" lon="6.10475">
        <ele>1140</ele>
        <time>2014-07-19T09:30:33.000Z</time>
      </trkpt>
      <trkpt lat="46.57722" lon="6.10462">
        <ele>1139.5999755859</ele>
        <time>2014-07-19T09:30:38.000Z</time>
      </trkpt>
      <trkpt lat="46.57718" lon="6.10455">
        <ele>1139.4000244141</ele>
        <time>2014-07-19T09:30:40.000Z</time>
      </trkpt>
      <trkpt lat="46.57706" lon="6.10437">
        <ele>1139.1999511719</ele>
        <time>2014-07-19T09:30:46.000Z</time>
      </trkpt>
      <trkpt lat="46.57693" lon="6.10415">
        <ele>1138.8000488281</ele>
        <time>2014-07-19T09:30:54.000Z</time>
      </trkpt>
      <trkpt lat="46.57679" lon="6.10393">
        <ele>1138.1999511719</ele>
        <time>2014-07-19T09:31:02.000Z</time>
      </trkpt>
      <trkpt lat="46.57664" lon="6.1037">
        <ele>1136.8000488281</ele>
        <time>2014-07-19T09:31:07.000Z</time>
      </trkpt>
      <trkpt lat="46.57649" lon="6.10348">
        <ele>1135.4000244141</ele>
        <time>2014-07-19T09:31:11.000Z</time>
      </trkpt>
      <trkpt lat="46.57645" lon="6.10343">
        <ele>1135.1999511719</ele>
        <time>2014-07-19T09:31:12.000Z</time>
      </trkpt>
      <trkpt lat="46.57622" lon="6.10323">
        <ele>1134.1999511719</ele>
        <time>2014-07-19T09:31:17.000Z</time>
      </trkpt>
      <trkpt lat="46.57613" lon="6.10316">
        <ele>1133.8000488281</ele>
        <time>2014-07-19T09:31:19.000Z</time>
      </trkpt>
      <trkpt lat="46.57591" lon="6.10301">
        <ele>1132.8000488281</ele>
        <time>2014-07-19T09:31:23.000Z</time>
      </trkpt>
      <trkpt lat="46.57573" lon="6.10287">
        <ele>1132</ele>
        <time>2014-07-19T09:31:26.000Z</time>
      </trkpt>
      <trkpt lat="46.57561" lon="6.10275">
        <ele>1132.4000244141</ele>
        <time>2014-07-19T09:31:29.000Z</time>
      </trkpt>
      <trkpt lat="46.57557" lon="6.10272">
        <ele>1132.5999755859</ele>
        <time>2014-07-19T09:31:30.000Z</time>
      </trkpt>
      <trkpt lat="46.5755" lon="6.10259">
        <ele>1133</ele>
        <time>2014-07-19T09:31:34.000Z</time>
      </trkpt>
      <trkpt lat="46.57538" lon="6.10232">
        <ele>1133.1999511719</ele>
        <time>2014-07-19T09:31:43.000Z</time>
      </trkpt>
      <trkpt lat="46.57535" lon="6.10213">
        <ele>1132.4000244141</ele>
        <time>2014-07-19T09:31:49.000Z</time>
      </trkpt>
      <trkpt lat="46.57532" lon="6.10187">
        <ele>1131.1999511719</ele>
        <time>2014-07-19T09:31:55.000Z</time>
      </trkpt>
      <trkpt lat="46.57523" lon="6.1016">
        <ele>1131.4000244141</ele>
        <time>2014-07-19T09:32:01.000Z</time>
      </trkpt>
      <trkpt lat="46.57514" lon="6.10134">
        <ele>1132</ele>
        <time>2014-07-19T09:32:05.000Z</time>
      </trkpt>
      <trkpt lat="46.5751" lon="6.10115">
        <ele>1132.4000244141</ele>
        <time>2014-07-19T09:32:08.000Z</time>
      </trkpt>
      <trkpt lat="46.57518" lon="6.10082">
        <ele>1131.5999755859</ele>
        <time>2014-07-19T09:32:13.000Z</time>
      </trkpt>
      <trkpt lat="46.57521" lon="6.10076">
        <ele>1131</ele>
        <time>2014-07-19T09:32:14.000Z</time>
      </trkpt>
      <trkpt lat="46.57523" lon="6.10069">
        <ele>1130.4000244141</ele>
        <time>2014-07-19T09:32:15.000Z</time>
      </trkpt>
      <trkpt lat="46.57521" lon="6.10051">
        <ele>1129.8000488281</ele>
        <time>2014-07-19T09:32:18.000Z</time>
      </trkpt>
      <trkpt lat="46.5752" lon="6.10046">
        <ele>1129.5999755859</ele>
        <time>2014-07-19T09:32:19.000Z</time>
      </trkpt>
      <trkpt lat="46.57519" lon="6.10041">
        <ele>1129.5999755859</ele>
        <time>2014-07-19T09:32:20.000Z</time>
      </trkpt>
      <trkpt lat="46.5751" lon="6.1001">
        <ele>1129.1999511719</ele>
        <time>2014-07-19T09:32:26.000Z</time>
      </trkpt>
      <trkpt lat="46.57503" lon="6.09985">
        <ele>1128.4000244141</ele>
        <time>2014-07-19T09:32:30.000Z</time>
      </trkpt>
      <trkpt lat="46.57496" lon="6.09957">
        <ele>1128</ele>
        <time>2014-07-19T09:32:33.000Z</time>
      </trkpt>
      <trkpt lat="46.57487" lon="6.09929">
        <ele>1128.1999511719</ele>
        <time>2014-07-19T09:32:38.000Z</time>
      </trkpt>
      <trkpt lat="46.5748" lon="6.09897">
        <ele>1128.4000244141</ele>
        <time>2014-07-19T09:32:42.000Z</time>
      </trkpt>
      <trkpt lat="46.57479" lon="6.0989">
        <ele>1127.8000488281</ele>
        <time>2014-07-19T09:32:43.000Z</time>
      </trkpt>
      <trkpt lat="46.5748" lon="6.0986">
        <ele>1124.8000488281</ele>
        <time>2014-07-19T09:32:47.000Z</time>
      </trkpt>
      <trkpt lat="46.57481" lon="6.09836">
        <ele>1122</ele>
        <time>2014-07-19T09:32:50.000Z</time>
      </trkpt>
      <trkpt lat="46.57481" lon="6.09824">
        <ele>1121</ele>
        <time>2014-07-19T09:32:52.000Z</time>
      </trkpt>
      <trkpt lat="46.57467" lon="6.09803">
        <ele>1121.1999511719</ele>
        <time>2014-07-19T09:32:57.000Z</time>
      </trkpt>
      <trkpt lat="46.57453" lon="6.09794">
        <ele>1122.5999755859</ele>
        <time>2014-07-19T09:33:01.000Z</time>
      </trkpt>
      <trkpt lat="46.57429" lon="6.09783">
        <ele>1125.4000244141</ele>
        <time>2014-07-19T09:33:06.000Z</time>
      </trkpt>
      <trkpt lat="46.57409" lon="6.09773">
        <ele>1127.5999755859</ele>
        <time>2014-07-19T09:33:09.000Z</time>
      </trkpt>
      <trkpt lat="46.57386" lon="6.09765">
        <ele>1127.5999755859</ele>
        <time>2014-07-19T09:33:14.000Z</time>
      </trkpt>
      <trkpt lat="46.57368" lon="6.0976">
        <ele>1126.4000244141</ele>
        <time>2014-07-19T09:33:17.000Z</time>
      </trkpt>
      <trkpt lat="46.5735" lon="6.09757">
        <ele>1125.5999755859</ele>
        <time>2014-07-19T09:33:20.000Z</time>
      </trkpt>
      <trkpt lat="46.57327" lon="6.09751">
        <ele>1123</ele>
        <time>2014-07-19T09:33:24.000Z</time>
      </trkpt>
      <trkpt lat="46.57316" lon="6.09748">
        <ele>1122.4000244141</ele>
        <time>2014-07-19T09:33:26.000Z</time>
      </trkpt>
      <trkpt lat="46.57302" lon="6.09733">
        <ele>1122.5999755859</ele>
        <time>2014-07-19T09:33:30.000Z</time>
      </trkpt>
      <trkpt lat="46.57301" lon="6.0973">
        <ele>1122.4000244141</ele>
        <time>2014-07-19T09:33:31.000Z</time>
      </trkpt>
      <trkpt lat="46.57299" lon="6.09725">
        <ele>1122.1999511719</ele>
        <time>2014-07-19T09:33:32.000Z</time>
      </trkpt>
      <trkpt lat="46.57298" lon="6.09717">
        <ele>1121.8000488281</ele>
        <time>2014-07-19T09:33:34.000Z</time>
      </trkpt>
      <trkpt lat="46.57289" lon="6.09685">
        <ele>1120.5999755859</ele>
        <time>2014-07-19T09:33:41.000Z</time>
      </trkpt>
      <trkpt lat="46.57279" lon="6.09661">
        <ele>1119.8000488281</ele>
        <time>2014-07-19T09:33:47.000Z</time>
      </trkpt>
      <trkpt lat="46.57272" lon="6.09636">
        <ele>1118.1999511719</ele>
        <time>2014-07-19T09:33:53.000Z</time>
      </trkpt>
      <trkpt lat="46.57262" lon="6.09611">
        <ele>1116.5999755859</ele>
        <time>2014-07-19T09:33:59.000Z</time>
      </trkpt>
      <trkpt lat="46.57251" lon="6.0959">
        <ele>1115.4000244141</ele>
        <time>2014-07-19T09:34:05.000Z</time>
      </trkpt>
      <trkpt lat="46.5724" lon="6.09569">
        <ele>1114.1999511719</ele>
        <time>2014-07-19T09:34:11.000Z</time>
      </trkpt>
      <trkpt lat="46.57229" lon="6.09548">
        <ele>1112.8000488281</ele>
        <time>2014-07-19T09:34:17.000Z</time>
      </trkpt>
      <trkpt lat="46.57225" lon="6.09535">
        <ele>1111.4000244141</ele>
        <time>2014-07-19T09:34:20.000Z</time>
      </trkpt>
      <trkpt lat="46.57221" lon="6.09524">
        <ele>1110.1999511719</ele>
        <time>2014-07-19T09:34:23.000Z</time>
      </trkpt>
      <trkpt lat="46.57214" lon="6.09497">
        <ele>1107.1999511719</ele>
        <time>2014-07-19T09:34:30.000Z</time>
      </trkpt>
      <trkpt lat="46.57203" lon="6.09475">
        <ele>1105.1999511719</ele>
        <time>2014-07-19T09:34:37.000Z</time>
      </trkpt>
      <trkpt lat="46.57195" lon="6.09465">
        <ele>1104.8000488281</ele>
        <time>2014-07-19T09:34:42.000Z</time>
      </trkpt>
      <trkpt lat="46.57178" lon="6.09448">
        <ele>1104.5999755859</ele>
        <time>2014-07-19T09:34:48.000Z</time>
      </trkpt>
      <trkpt lat="46.57161" lon="6.09432">
        <ele>1104.5999755859</ele>
        <time>2014-07-19T09:34:52.000Z</time>
      </trkpt>
      <trkpt lat="46.57146" lon="6.09415">
        <ele>1104</ele>
        <time>2014-07-19T09:34:55.000Z</time>
      </trkpt>
      <trkpt lat="46.57128" lon="6.09396">
        <ele>1102.4000244141</ele>
        <time>2014-07-19T09:34:59.000Z</time>
      </trkpt>
      <trkpt lat="46.57112" lon="6.09376">
        <ele>1101.5999755859</ele>
        <time>2014-07-19T09:35:03.000Z</time>
      </trkpt>
      <trkpt lat="46.57108" lon="6.09371">
        <ele>1101.4000244141</ele>
        <time>2014-07-19T09:35:04.000Z</time>
      </trkpt>
      <trkpt lat="46.57087" lon="6.09343">
        <ele>1100.4000244141</ele>
        <time>2014-07-19T09:35:09.000Z</time>
      </trkpt>
      <trkpt lat="46.5707" lon="6.09323">
        <ele>1099.5999755859</ele>
        <time>2014-07-19T09:35:13.000Z</time>
      </trkpt>
      <trkpt lat="46.57057" lon="6.09308">
        <ele>1099.5999755859</ele>
        <time>2014-07-19T09:35:16.000Z</time>
      </trkpt>
      <trkpt lat="46.57037" lon="6.09283">
        <ele>1100.1999511719</ele>
        <time>2014-07-19T09:35:22.000Z</time>
      </trkpt>
      <trkpt lat="46.57035" lon="6.09279">
        <ele>1100.1999511719</ele>
        <time>2014-07-19T09:35:23.000Z</time>
      </trkpt>
      <trkpt lat="46.57025" lon="6.09258">
        <ele>1100.5999755859</ele>
        <time>2014-07-19T09:35:29.000Z</time>
      </trkpt>
      <trkpt lat="46.57011" lon="6.09243">
        <ele>1101</ele>
        <time>2014-07-19T09:35:36.000Z</time>
      </trkpt>
      <trkpt lat="46.56994" lon="6.09231">
        <ele>1101.5999755859</ele>
        <time>2014-07-19T09:35:44.000Z</time>
      </trkpt>
      <trkpt lat="46.56978" lon="6.0922">
        <ele>1102</ele>
        <time>2014-07-19T09:35:52.000Z</time>
      </trkpt>
      <trkpt lat="46.5696" lon="6.0921">
        <ele>1102.1999511719</ele>
        <time>2014-07-19T09:35:59.000Z</time>
      </trkpt>
      <trkpt lat="46.56942" lon="6.09204">
        <ele>1102.8000488281</ele>
        <time>2014-07-19T09:36:04.000Z</time>
      </trkpt>
      <trkpt lat="46.56923" lon="6.09194">
        <ele>1103</ele>
        <time>2014-07-19T09:36:09.000Z</time>
      </trkpt>
      <trkpt lat="46.56907" lon="6.09178">
        <ele>1103</ele>
        <time>2014-07-19T09:36:14.000Z</time>
      </trkpt>
      <trkpt lat="46.56894" lon="6.0916">
        <ele>1103.1999511719</ele>
        <time>2014-07-19T09:36:19.000Z</time>
      </trkpt>
      <trkpt lat="46.5688" lon="6.09139">
        <ele>1103.4000244141</ele>
        <time>2014-07-19T09:36:26.000Z</time>
      </trkpt>
      <trkpt lat="46.56878" lon="6.09136">
        <ele>1103.4000244141</ele>
        <time>2014-07-19T09:36:27.000Z</time>
      </trkpt>
      <trkpt lat="46.56872" lon="6.09134">
        <ele>1103.8000488281</ele>
        <time>2014-07-19T09:36:29.000Z</time>
      </trkpt>
      <trkpt lat="46.56859" lon="6.09111">
        <ele>1104</ele>
        <time>2014-07-19T09:36:38.000Z</time>
      </trkpt>
      <trkpt lat="46.56849" lon="6.09094">
        <ele>1104</ele>
        <time>2014-07-19T09:36:44.000Z</time>
      </trkpt>
      <trkpt lat="46.56839" lon="6.0907">
        <ele>1104.1999511719</ele>
        <time>2014-07-19T09:36:50.000Z</time>
      </trkpt>
      <trkpt lat="46.56828" lon="6.09045">
        <ele>1104.1999511719</ele>
        <time>2014-07-19T09:36:56.000Z</time>
      </trkpt>
      <trkpt lat="46.56817" lon="6.09019">
        <ele>1104</ele>
        <time>2014-07-19T09:37:02.000Z</time>
      </trkpt>
      <trkpt lat="46.56809" lon="6.08992">
        <ele>1104</ele>
        <time>2014-07-19T09:37:08.000Z</time>
      </trkpt>
      <trkpt lat="46.56801" lon="6.08969">
        <ele>1103.5999755859</ele>
        <time>2014-07-19T09:37:13.000Z</time>
      </trkpt>
      <trkpt lat="46.5679" lon="6.08941">
        <ele>1102.8000488281</ele>
        <time>2014-07-19T09:37:19.000Z</time>
      </trkpt>
      <trkpt lat="46.56776" lon="6.08925">
        <ele>1102.8000488281</ele>
        <time>2014-07-19T09:37:24.000Z</time>
      </trkpt>
      <trkpt lat="46.5676" lon="6.08908">
        <ele>1102.8000488281</ele>
        <time>2014-07-19T09:37:30.000Z</time>
      </trkpt>
      <trkpt lat="46.56748" lon="6.08888">
        <ele>1102.4000244141</ele>
        <time>2014-07-19T09:37:36.000Z</time>
      </trkpt>
      <trkpt lat="46.56738" lon="6.08865">
        <ele>1102</ele>
        <time>2014-07-19T09:37:41.000Z</time>
      </trkpt>
      <trkpt lat="46.56729" lon="6.08839">
        <ele>1100.8000488281</ele>
        <time>2014-07-19T09:37:46.000Z</time>
      </trkpt>
      <trkpt lat="46.5672" lon="6.08815">
        <ele>1099.5999755859</ele>
        <time>2014-07-19T09:37:50.000Z</time>
      </trkpt>
      <trkpt lat="46.56712" lon="6.0879">
        <ele>1098.5999755859</ele>
        <time>2014-07-19T09:37:54.000Z</time>
      </trkpt>
      <trkpt lat="46.56704" lon="6.08765">
        <ele>1097.8000488281</ele>
        <time>2014-07-19T09:37:57.000Z</time>
      </trkpt>
      <trkpt lat="46.56695" lon="6.08738">
        <ele>1096.8000488281</ele>
        <time>2014-07-19T09:38:02.000Z</time>
      </trkpt>
      <trkpt lat="46.56674" lon="6.08689">
        <ele>1096.8000488281</ele>
        <time>2014-07-19T09:38:11.000Z</time>
      </trkpt>
      <trkpt lat="46.56664" lon="6.08666">
        <ele>1097</ele>
        <time>2014-07-19T09:38:16.000Z</time>
      </trkpt>
      <trkpt lat="46.56654" lon="6.0864">
        <ele>1097</ele>
        <time>2014-07-19T09:38:21.000Z</time>
      </trkpt>
      <trkpt lat="46.56645" lon="6.08615">
        <ele>1096.5999755859</ele>
        <time>2014-07-19T09:38:26.000Z</time>
      </trkpt>
      <trkpt lat="46.56639" lon="6.08601">
        <ele>1096.5999755859</ele>
        <time>2014-07-19T09:38:29.000Z</time>
      </trkpt>
      <trkpt lat="46.56635" lon="6.08593">
        <ele>1096.5999755859</ele>
        <time>2014-07-19T09:38:31.000Z</time>
      </trkpt>
      <trkpt lat="46.56624" lon="6.08569">
        <ele>1096.5999755859</ele>
        <time>2014-07-19T09:38:37.000Z</time>
      </trkpt>
      <trkpt lat="46.56613" lon="6.08541">
        <ele>1097</ele>
        <time>2014-07-19T09:38:43.000Z</time>
      </trkpt>
      <trkpt lat="46.56603" lon="6.08504">
        <ele>1098</ele>
        <time>2014-07-19T09:38:51.000Z</time>
      </trkpt>
      <trkpt lat="46.566" lon="6.08474">
        <ele>1098.8000488281</ele>
        <time>2014-07-19T09:38:57.000Z</time>
      </trkpt>
      <trkpt lat="46.566" lon="6.08445">
        <ele>1098.4000244141</ele>
        <time>2014-07-19T09:39:03.000Z</time>
      </trkpt>
      <trkpt lat="46.56602" lon="6.08419">
        <ele>1098.4000244141</ele>
        <time>2014-07-19T09:39:08.000Z</time>
      </trkpt>
      <trkpt lat="46.56612" lon="6.08393">
        <ele>1099</ele>
        <time>2014-07-19T09:39:13.000Z</time>
      </trkpt>
      <trkpt lat="46.56622" lon="6.08368">
        <ele>1098.4000244141</ele>
        <time>2014-07-19T09:39:18.000Z</time>
      </trkpt>
      <trkpt lat="46.56633" lon="6.08343">
        <ele>1098.1999511719</ele>
        <time>2014-07-19T09:39:23.000Z</time>
      </trkpt>
      <trkpt lat="46.56635" lon="6.08337">
        <ele>1098.1999511719</ele>
        <time>2014-07-19T09:39:24.000Z</time>
      </trkpt>
      <trkpt lat="46.56648" lon="6.08309">
        <ele>1098</ele>
        <time>2014-07-19T09:39:29.000Z</time>
      </trkpt>
      <trkpt lat="46.56657" lon="6.08285">
        <ele>1097</ele>
        <time>2014-07-19T09:39:33.000Z</time>
      </trkpt>
      <trkpt lat="46.56667" lon="6.08256">
        <ele>1095.8000488281</ele>
        <time>2014-07-19T09:39:37.000Z</time>
      </trkpt>
      <trkpt lat="46.56676" lon="6.08227">
        <ele>1095.4000244141</ele>
        <time>2014-07-19T09:39:42.000Z</time>
      </trkpt>
      <trkpt lat="46.56684" lon="6.08203">
        <ele>1094.8000488281</ele>
        <time>2014-07-19T09:39:45.000Z</time>
      </trkpt>
      <trkpt lat="46.56696" lon="6.08174">
        <ele>1094</ele>
        <time>2014-07-19T09:39:50.000Z</time>
      </trkpt>
      <trkpt lat="46.56709" lon="6.08146">
        <ele>1092.4000244141</ele>
        <time>2014-07-19T09:39:53.000Z</time>
      </trkpt>
      <trkpt lat="46.56718" lon="6.08128">
        <ele>1091.5999755859</ele>
        <time>2014-07-19T09:39:56.000Z</time>
      </trkpt>
      <trkpt lat="46.56729" lon="6.0809">
        <ele>1090.8000488281</ele>
        <time>2014-07-19T09:40:01.000Z</time>
      </trkpt>
      <trkpt lat="46.56733" lon="6.08066">
        <ele>1090.1999511719</ele>
        <time>2014-07-19T09:40:06.000Z</time>
      </trkpt>
      <trkpt lat="46.56734" lon="6.08057">
        <ele>1090</ele>
        <time>2014-07-19T09:40:07.000Z</time>
      </trkpt>
      <trkpt lat="46.56732" lon="6.08038">
        <ele>1090.8000488281</ele>
        <time>2014-07-19T09:40:12.000Z</time>
      </trkpt>
      <trkpt lat="46.56723" lon="6.08013">
        <ele>1091.5999755859</ele>
        <time>2014-07-19T09:40:19.000Z</time>
      </trkpt>
      <trkpt lat="46.56711" lon="6.07992">
        <ele>1092.4000244141</ele>
        <time>2014-07-19T09:40:26.000Z</time>
      </trkpt>
      <trkpt lat="46.56698" lon="6.07972">
        <ele>1093</ele>
        <time>2014-07-19T09:40:32.000Z</time>
      </trkpt>
      <trkpt lat="46.56691" lon="6.07964">
        <ele>1093.4000244141</ele>
        <time>2014-07-19T09:40:37.000Z</time>
      </trkpt>
      <trkpt lat="46.56688" lon="6.07963">
        <ele>1093.4000244141</ele>
        <time>2014-07-19T09:40:43.000Z</time>
      </trkpt>
      <trkpt lat="46.56684" lon="6.07963">
        <ele>1093.4000244141</ele>
        <time>2014-07-19T09:40:44.000Z</time>
      </trkpt>
      <trkpt lat="46.56667" lon="6.07984">
        <ele>1092.8000488281</ele>
        <time>2014-07-19T09:40:51.000Z</time>
      </trkpt>
      <trkpt lat="46.56651" lon="6.08">
        <ele>1092.1999511719</ele>
        <time>2014-07-19T09:40:56.000Z</time>
      </trkpt>
      <trkpt lat="46.56637" lon="6.08007">
        <ele>1090.5999755859</ele>
        <time>2014-07-19T09:40:59.000Z</time>
      </trkpt>
      <trkpt lat="46.56617" lon="6.07996">
        <ele>1089</ele>
        <time>2014-07-19T09:41:03.000Z</time>
      </trkpt>
      <trkpt lat="46.56606" lon="6.07975">
        <ele>1088.5999755859</ele>
        <time>2014-07-19T09:41:06.000Z</time>
      </trkpt>
      <trkpt lat="46.56602" lon="6.07966">
        <ele>1088.4000244141</ele>
        <time>2014-07-19T09:41:07.000Z</time>
      </trkpt>
      <trkpt lat="46.56591" lon="6.07938">
        <ele>1087.8000488281</ele>
        <time>2014-07-19T09:41:09.000Z</time>
      </trkpt>
      <trkpt lat="46.56577" lon="6.07908">
        <ele>1086.5999755859</ele>
        <time>2014-07-19T09:41:12.000Z</time>
      </trkpt>
      <trkpt lat="46.56561" lon="6.07878">
        <ele>1085.4000244141</ele>
        <time>2014-07-19T09:41:15.000Z</time>
      </trkpt>
      <trkpt lat="46.5655" lon="6.07859">
        <ele>1084.4000244141</ele>
        <time>2014-07-19T09:41:17.000Z</time>
      </trkpt>
      <trkpt lat="46.56526" lon="6.07843">
        <ele>1082</ele>
        <time>2014-07-19T09:41:21.000Z</time>
      </trkpt>
      <trkpt lat="46.56507" lon="6.07845">
        <ele>1080.4000244141</ele>
        <time>2014-07-19T09:41:22.000Z</time>
      </trkpt>
      <trkpt lat="46.56489" lon="6.07852">
        <ele>1078.8000488281</ele>
        <time>2014-07-19T09:41:25.000Z</time>
      </trkpt>
      <trkpt lat="46.5648" lon="6.07856">
        <ele>1078.4000244141</ele>
        <time>2014-07-19T09:41:26.000Z</time>
      </trkpt>
      <trkpt lat="46.56461" lon="6.07865">
        <ele>1077.8000488281</ele>
        <time>2014-07-19T09:41:27.000Z</time>
      </trkpt>
      <trkpt lat="46.56451" lon="6.07868">
        <ele>1077.4000244141</ele>
        <time>2014-07-19T09:41:29.000Z</time>
      </trkpt>
      <trkpt lat="46.56423" lon="6.07866">
        <ele>1076</ele>
        <time>2014-07-19T09:41:32.000Z</time>
      </trkpt>
      <trkpt lat="46.56416" lon="6.07862">
        <ele>1075.5999755859</ele>
        <time>2014-07-19T09:41:33.000Z</time>
      </trkpt>
      <trkpt lat="46.56386" lon="6.07848">
        <ele>1075.8000488281</ele>
        <time>2014-07-19T09:41:37.000Z</time>
      </trkpt>
      <trkpt lat="46.56371" lon="6.0784">
        <ele>1076.8000488281</ele>
        <time>2014-07-19T09:41:40.000Z</time>
      </trkpt>
      <trkpt lat="46.56361" lon="6.07834">
        <ele>1077.4000244141</ele>
        <time>2014-07-19T09:41:42.000Z</time>
      </trkpt>
      <trkpt lat="46.56357" lon="6.07832">
        <ele>1077.5999755859</ele>
        <time>2014-07-19T09:41:43.000Z</time>
      </trkpt>
      <trkpt lat="46.56343" lon="6.07818">
        <ele>1078.4000244141</ele>
        <time>2014-07-19T09:41:47.000Z</time>
      </trkpt>
      <trkpt lat="46.56332" lon="6.07798">
        <ele>1079.1999511719</ele>
        <time>2014-07-19T09:41:50.000Z</time>
      </trkpt>
      <trkpt lat="46.56321" lon="6.07765">
        <ele>1079.8000488281</ele>
        <time>2014-07-19T09:41:56.000Z</time>
      </trkpt>
      <trkpt lat="46.5632" lon="6.07758">
        <ele>1079.8000488281</ele>
        <time>2014-07-19T09:41:57.000Z</time>
      </trkpt>
      <trkpt lat="46.56314" lon="6.07732">
        <ele>1080.5999755859</ele>
        <time>2014-07-19T09:42:01.000Z</time>
      </trkpt>
      <trkpt lat="46.56307" lon="6.07705">
        <ele>1081.4000244141</ele>
        <time>2014-07-19T09:42:05.000Z</time>
      </trkpt>
      <trkpt lat="46.56302" lon="6.07676">
        <ele>1082.4000244141</ele>
        <time>2014-07-19T09:42:09.000Z</time>
      </trkpt>
      <trkpt lat="46.56301" lon="6.07661">
        <ele>1082.5999755859</ele>
        <time>2014-07-19T09:42:11.000Z</time>
      </trkpt>
      <trkpt lat="46.56308" lon="6.07624">
        <ele>1082.1999511719</ele>
        <time>2014-07-19T09:42:16.000Z</time>
      </trkpt>
      <trkpt lat="46.56317" lon="6.07601">
        <ele>1082.5999755859</ele>
        <time>2014-07-19T09:42:19.000Z</time>
      </trkpt>
      <trkpt lat="46.56331" lon="6.07574">
        <ele>1081.8000488281</ele>
        <time>2014-07-19T09:42:23.000Z</time>
      </trkpt>
      <trkpt lat="46.56342" lon="6.07554">
        <ele>1081.5999755859</ele>
        <time>2014-07-19T09:42:26.000Z</time>
      </trkpt>
      <trkpt lat="46.56345" lon="6.07512">
        <ele>1079.5999755859</ele>
        <time>2014-07-19T09:42:31.000Z</time>
      </trkpt>
      <trkpt lat="46.5633" lon="6.07492">
        <ele>1080.4000244141</ele>
        <time>2014-07-19T09:42:34.000Z</time>
      </trkpt>
      <trkpt lat="46.56314" lon="6.07486">
        <ele>1081.4000244141</ele>
        <time>2014-07-19T09:42:36.000Z</time>
      </trkpt>
      <trkpt lat="46.5629" lon="6.07473">
        <ele>1081.5999755859</ele>
        <time>2014-07-19T09:42:39.000Z</time>
      </trkpt>
      <trkpt lat="46.56273" lon="6.0746">
        <ele>1080.5999755859</ele>
        <time>2014-07-19T09:42:41.000Z</time>
      </trkpt>
      <trkpt lat="46.56249" lon="6.07441">
        <ele>1078.8000488281</ele>
        <time>2014-07-19T09:42:44.000Z</time>
      </trkpt>
      <trkpt lat="46.56233" lon="6.07426">
        <ele>1077.4000244141</ele>
        <time>2014-07-19T09:42:46.000Z</time>
      </trkpt>
      <trkpt lat="46.56218" lon="6.0741">
        <ele>1074</ele>
        <time>2014-07-19T09:42:48.000Z</time>
      </trkpt>
      <trkpt lat="46.56202" lon="6.07394">
        <ele>1070.8000488281</ele>
        <time>2014-07-19T09:42:50.000Z</time>
      </trkpt>
      <trkpt lat="46.56194" lon="6.07386">
        <ele>1069.4000244141</ele>
        <time>2014-07-19T09:42:51.000Z</time>
      </trkpt>
      <trkpt lat="46.56169" lon="6.07375">
        <ele>1066.5999755859</ele>
        <time>2014-07-19T09:42:54.000Z</time>
      </trkpt>
      <trkpt lat="46.56151" lon="6.07384">
        <ele>1066.1999511719</ele>
        <time>2014-07-19T09:42:56.000Z</time>
      </trkpt>
      <trkpt lat="46.56142" lon="6.07392">
        <ele>1065.4000244141</ele>
        <time>2014-07-19T09:42:57.000Z</time>
      </trkpt>
      <trkpt lat="46.56115" lon="6.07415">
        <ele>1063.8000488281</ele>
        <time>2014-07-19T09:43:00.000Z</time>
      </trkpt>
      <trkpt lat="46.56096" lon="6.07426">
        <ele>1062.1999511719</ele>
        <time>2014-07-19T09:43:02.000Z</time>
      </trkpt>
      <trkpt lat="46.56086" lon="6.07429">
        <ele>1061.5999755859</ele>
        <time>2014-07-19T09:43:03.000Z</time>
      </trkpt>
      <trkpt lat="46.56064" lon="6.07429">
        <ele>1059.5999755859</ele>
        <time>2014-07-19T09:43:05.000Z</time>
      </trkpt>
      <trkpt lat="46.56043" lon="6.07422">
        <ele>1058.8000488281</ele>
        <time>2014-07-19T09:43:07.000Z</time>
      </trkpt>
      <trkpt lat="46.56023" lon="6.07409">
        <ele>1056.8000488281</ele>
        <time>2014-07-19T09:43:09.000Z</time>
      </trkpt>
      <trkpt lat="46.56015" lon="6.07402">
        <ele>1055.5999755859</ele>
        <time>2014-07-19T09:43:10.000Z</time>
      </trkpt>
      <trkpt lat="46.55996" lon="6.07385">
        <ele>1053.5999755859</ele>
        <time>2014-07-19T09:43:12.000Z</time>
      </trkpt>
      <trkpt lat="46.55979" lon="6.07368">
        <ele>1052.4000244141</ele>
        <time>2014-07-19T09:43:14.000Z</time>
      </trkpt>
      <trkpt lat="46.55971" lon="6.07359">
        <ele>1052</ele>
        <time>2014-07-19T09:43:15.000Z</time>
      </trkpt>
      <trkpt lat="46.55958" lon="6.07324">
        <ele>1048.5999755859</ele>
        <time>2014-07-19T09:43:18.000Z</time>
      </trkpt>
      <trkpt lat="46.55959" lon="6.07295">
        <ele>1046.1999511719</ele>
        <time>2014-07-19T09:43:20.000Z</time>
      </trkpt>
      <trkpt lat="46.5596" lon="6.07283">
        <ele>1045.4000244141</ele>
        <time>2014-07-19T09:43:21.000Z</time>
      </trkpt>
      <trkpt lat="46.55961" lon="6.0726">
        <ele>1044.4000244141</ele>
        <time>2014-07-19T09:43:23.000Z</time>
      </trkpt>
      <trkpt lat="46.55951" lon="6.07224">
        <ele>1043.1999511719</ele>
        <time>2014-07-19T09:43:27.000Z</time>
      </trkpt>
      <trkpt lat="46.55947" lon="6.07217">
        <ele>1043</ele>
        <time>2014-07-19T09:43:28.000Z</time>
      </trkpt>
      <trkpt lat="46.55931" lon="6.07187">
        <ele>1042</ele>
        <time>2014-07-19T09:43:32.000Z</time>
      </trkpt>
      <trkpt lat="46.55917" lon="6.07167">
        <ele>1041.5999755859</ele>
        <time>2014-07-19T09:43:35.000Z</time>
      </trkpt>
      <trkpt lat="46.55905" lon="6.07147">
        <ele>1041</ele>
        <time>2014-07-19T09:43:38.000Z</time>
      </trkpt>
      <trkpt lat="46.55891" lon="6.07126">
        <ele>1040.4000244141</ele>
        <time>2014-07-19T09:43:41.000Z</time>
      </trkpt>
      <trkpt lat="46.55877" lon="6.07107">
        <ele>1040</ele>
        <time>2014-07-19T09:43:45.000Z</time>
      </trkpt>
      <trkpt lat="46.55866" lon="6.07092">
        <ele>1039.8000488281</ele>
        <time>2014-07-19T09:43:47.000Z</time>
      </trkpt>
      <trkpt lat="46.55859" lon="6.07084">
        <ele>1039.8000488281</ele>
        <time>2014-07-19T09:43:49.000Z</time>
      </trkpt>
      <trkpt lat="46.55844" lon="6.07066">
        <ele>1039.5999755859</ele>
        <time>2014-07-19T09:43:53.000Z</time>
      </trkpt>
      <trkpt lat="46.55839" lon="6.07061">
        <ele>1039.5999755859</ele>
        <time>2014-07-19T09:43:54.000Z</time>
      </trkpt>
      <trkpt lat="46.55823" lon="6.07043">
        <ele>1040</ele>
        <time>2014-07-19T09:43:57.000Z</time>
      </trkpt>
      <trkpt lat="46.55805" lon="6.07021">
        <ele>1039.8000488281</ele>
        <time>2014-07-19T09:44:02.000Z</time>
      </trkpt>
      <trkpt lat="46.55792" lon="6.07002">
        <ele>1039.1999511719</ele>
        <time>2014-07-19T09:44:05.000Z</time>
      </trkpt>
      <trkpt lat="46.55789" lon="6.06994">
        <ele>1039</ele>
        <time>2014-07-19T09:44:06.000Z</time>
      </trkpt>
      <trkpt lat="46.55787" lon="6.06957">
        <ele>1037.4000244141</ele>
        <time>2014-07-19T09:44:10.000Z</time>
      </trkpt>
      <trkpt lat="46.55788" lon="6.06946">
        <ele>1037</ele>
        <time>2014-07-19T09:44:11.000Z</time>
      </trkpt>
      <trkpt lat="46.55796" lon="6.0691">
        <ele>1035.5999755859</ele>
        <time>2014-07-19T09:44:15.000Z</time>
      </trkpt>
      <trkpt lat="46.55802" lon="6.06885">
        <ele>1034.8000488281</ele>
        <time>2014-07-19T09:44:18.000Z</time>
      </trkpt>
      <trkpt lat="46.55811" lon="6.06853">
        <ele>1034.4000244141</ele>
        <time>2014-07-19T09:44:22.000Z</time>
      </trkpt>
      <trkpt lat="46.5582" lon="6.06823">
        <ele>1034</ele>
        <time>2014-07-19T09:44:26.000Z</time>
      </trkpt>
      <trkpt lat="46.55827" lon="6.06793">
        <ele>1033.1999511719</ele>
        <time>2014-07-19T09:44:30.000Z</time>
      </trkpt>
      <trkpt lat="46.55834" lon="6.06766">
        <ele>1032.4000244141</ele>
        <time>2014-07-19T09:44:34.000Z</time>
      </trkpt>
      <trkpt lat="46.55843" lon="6.06732">
        <ele>1032</ele>
        <time>2014-07-19T09:44:38.000Z</time>
      </trkpt>
      <trkpt lat="46.55851" lon="6.067">
        <ele>1031.5999755859</ele>
        <time>2014-07-19T09:44:43.000Z</time>
      </trkpt>
      <trkpt lat="46.55853" lon="6.0669">
        <ele>1031.1999511719</ele>
        <time>2014-07-19T09:44:44.000Z</time>
      </trkpt>
      <trkpt lat="46.55854" lon="6.06687">
        <ele>1031.1999511719</ele>
        <time>2014-07-19T09:44:45.000Z</time>
      </trkpt>
      <trkpt lat="46.55868" lon="6.06687">
        <ele>1030.8000488281</ele>
        <time>2014-07-19T09:44:48.000Z</time>
      </trkpt>
      <trkpt lat="46.55875" lon="6.06706">
        <ele>1030.5999755859</ele>
        <time>2014-07-19T09:44:50.000Z</time>
      </trkpt>
      <trkpt lat="46.55878" lon="6.06716">
        <ele>1030.8000488281</ele>
        <time>2014-07-19T09:44:51.000Z</time>
      </trkpt>
      <trkpt lat="46.55887" lon="6.06748">
        <ele>1030.1999511719</ele>
        <time>2014-07-19T09:44:54.000Z</time>
      </trkpt>
      <trkpt lat="46.55894" lon="6.06781">
        <ele>1029.5999755859</ele>
        <time>2014-07-19T09:44:57.000Z</time>
      </trkpt>
      <trkpt lat="46.55896" lon="6.0679">
        <ele>1029.4000244141</ele>
        <time>2014-07-19T09:44:58.000Z</time>
      </trkpt>
      <trkpt lat="46.55907" lon="6.06819">
        <ele>1029.1999511719</ele>
        <time>2014-07-19T09:45:01.000Z</time>
      </trkpt>
      <trkpt lat="46.55933" lon="6.06843">
        <ele>1030.1999511719</ele>
        <time>2014-07-19T09:45:05.000Z</time>
      </trkpt>
      <trkpt lat="46.55952" lon="6.06843">
        <ele>1030.4000244141</ele>
        <time>2014-07-19T09:45:08.000Z</time>
      </trkpt>
      <trkpt lat="46.55959" lon="6.06842">
        <ele>1030.4000244141</ele>
        <time>2014-07-19T09:45:09.000Z</time>
      </trkpt>
      <trkpt lat="46.55965" lon="6.06842">
        <ele>1030.5999755859</ele>
        <time>2014-07-19T09:45:10.000Z</time>
      </trkpt>
      <trkpt lat="46.55976" lon="6.06856">
        <ele>1031</ele>
        <time>2014-07-19T09:45:13.000Z</time>
      </trkpt>
      <trkpt lat="46.55982" lon="6.06882">
        <ele>1031.8000488281</ele>
        <time>2014-07-19T09:45:17.000Z</time>
      </trkpt>
      <trkpt lat="46.5599" lon="6.06896">
        <ele>1033</ele>
        <time>2014-07-19T09:45:20.000Z</time>
      </trkpt>
      <trkpt lat="46.56005" lon="6.0692">
        <ele>1034.1999511719</ele>
        <time>2014-07-19T09:45:26.000Z</time>
      </trkpt>
      <trkpt lat="46.56019" lon="6.06942">
        <ele>1035.4000244141</ele>
        <time>2014-07-19T09:45:32.000Z</time>
      </trkpt>
      <trkpt lat="46.56027" lon="6.06966">
        <ele>1036</ele>
        <time>2014-07-19T09:45:37.000Z</time>
      </trkpt>
      <trkpt lat="46.56035" lon="6.0699">
        <ele>1036</ele>
        <time>2014-07-19T09:45:43.000Z</time>
      </trkpt>
      <trkpt lat="46.56043" lon="6.07012">
        <ele>1036</ele>
        <time>2014-07-19T09:45:48.000Z</time>
      </trkpt>
      <trkpt lat="46.56054" lon="6.07034">
        <ele>1036.4000244141</ele>
        <time>2014-07-19T09:45:54.000Z</time>
      </trkpt>
      <trkpt lat="46.56057" lon="6.07037">
        <ele>1036.5999755859</ele>
        <time>2014-07-19T09:45:56.000Z</time>
      </trkpt>
      <trkpt lat="46.5606" lon="6.07033">
        <ele>1037.1999511719</ele>
        <time>2014-07-19T09:45:59.000Z</time>
      </trkpt>
      <trkpt lat="46.5606" lon="6.07032">
        <ele>1037.4000244141</ele>
        <time>2014-07-19T09:46:02.000Z</time>
      </trkpt>
    </trkseg>
  </trk>
</gpx>